[[{"header":{"parameterUnit":"m.s-1","parameterCategory":1,"la1":31.0,"la2":29.5877,"lo1":-88.7671,"lo2":-86.6584,"dy":0.0162,"dx":0.0185,"nx":115,"ny":88,"refTime":"2024-06-20T12:00:00:Z","depth":0,"parameterNumber":2,"parameterNumberName":"U-component_of_WINDS"},"data":[0.0,0.0,0.0,0.0,0.0,0.0,0.0,0.0,0.0,0.0,0.0,0.0,0.0,0.0,0.0,0.0,0.0,0.0,0.0,0.0,0.0,0.0,0.0,0.0,0.0,0.0,0.0,0.0,0.0,0.0,0.0,0.0,0.0,0.0,0.0,0.0,0.0,0.0,0.0,0.0,0.0,0.0,0.0,0.0,0.0,0.0,0.0,0.0,0.0,0.0,0.0,0.0,0.0,0.0,0.0,0.0,0.0,0.0,0.0,0.0,0.0,0.0,0.0,0.0,0.0,0.0,0.0,0.0,0.0,0.0,0.0,0.0,0.0,0.0,0.0,0.0,0.0,0.0,0.0,0.0,0.0,0.0,0.0,0.0,0.0,0.0,0.0,0.0,0.0,0.0,0.0,0.0,0.0,0.0,0.0,0.0,0.0,0.0,0.0,0.0,0.0,0.0,0.0,0.0,0.0,0.0,0.0,0.0,0.0,0.0,0.0,0.0,0.0,0.0,0.0,0.0,0.0,0.0,0.0,0.0,0.0,0.0,0.0,0.0,0.0,0.0,0.0,0.0,0.0,0.0,0.0,0.0,0.0,0.0,0.0,0.0,0.0,0.0,0.0,0.0,0.0,0.0,0.0,0.0,0.0,0.0,0.0,0.0,0.0,0.0,0.0,0.0,0.0,0.0,0.0,0.0,0.0,0.0,0.0,0.0,0.0,0.0,0.0,0.0,0.0,0.0,0.0,0.0,0.0,0.0,0.0,0.0,0.0,0.0,0.0,0.0,0.0,0.0,0.0,0.0,0.0,0.0,0.0,0.0,0.0,0.0,0.0,0.0,0.0,0.0,0.0,0.0,0.0,0.0,0.0,0.0,0.0,0.0,0.0,0.0,0.0,0.0,0.0,0.0,0.0,0.0,0.0,0.0,0.0,0.0,0.0,0.0,0.0,0.0,0.0,0.0,0.0,0.0,0.0,0.0,0.0,0.0,0.0,0.0,0.0,0.0,0.0,0.0,0.0,0.0,0.0,0.0,0.0,0.0,0.0,0.0,0.0,0.0,0.0,0.0,0.0,0.0,0.0,0.0,0.0,0.0,0.0,0.0,0.0,0.0,0.0,0.0,0.0,0.0,0.0,0.0,0.0,0.0,0.0,0.0,0.0,0.0,0.0,0.0,0.0,0.0,0.0,0.0,0.0,0.0,0.0,0.0,0.0,0.0,0.0,0.0,0.0,0.0,0.0,0.0,0.0,0.0,0.0,0.0,0.0,0.0,0.0,0.0,0.0,0.0,0.0,0.0,0.0,0.0,0.0,0.0,0.0,0.0,0.0,0.0,0.0,0.0,0.0,0.0,0.0,0.0,0.0,0.0,0.0,0.0,0.0,0.0,0.0,0.0,0.0,0.0,0.0,0.0,0.0,0.0,0.0,0.0,0.0,0.0,0.0,0.0,0.0,0.0,0.0,0.0,0.0,0.0,0.0,0.0,0.0,0.0,0.0,0.0,0.0,0.0,0.0,0.0,0.0,0.0,0.0,0.0,0.0,0.0,0.0,0.0,0.0,0.0,0.0,0.0,0.0,0.0,0.0,0.0,0.0,0.0,0.0,0.0,0.0,0.0,0.0,0.0,0.0,0.0,0.0,0.0,0.0,0.0,0.0,0.0,0.0,0.0,0.0,0.0,0.0,0.0,0.0,0.0,0.0,0.0,0.0,0.0,0.0,0.0,0.0,0.0,0.0,0.0,0.0,0.0,0.0,0.0,0.0,0.0,0.0,0.0,0.0,0.0,0.0,0.0,0.0,0.0,0.0,0.0,0.0,0.0,0.0,0.0,0.0,0.0,0.0,0.0,0.0,0.0,0.0,0.0,0.0,0.0,0.0,0.0,0.0,0.0,0.0,0.0,0.0,0.0,0.0,0.0,0.0,0.0,0.0,0.0,0.0,0.0,0.0,0.0,0.0,0.0,0.0,0.0,0.0,0.0,0.0,0.0,0.0,0.0,0.0,0.0,0.0,0.0,0.0,0.0,0.0,0.0,0.0,0.0,0.0,0.0,0.0,0.0,0.0,0.0,0.0,0.0,0.0,0.0,0.0,0.0,0.0,0.0,0.0,0.0,0.0,0.0,0.0,0.0,0.0,0.0,0.0,0.0,0.0,0.0,0.0,0.0,0.0,0.0,0.0,0.0,0.0,0.0,0.0,0.0,0.0,0.0,0.0,0.0,0.0,0.0,0.0,0.0,0.0,0.0,0.0,0.0,0.0,0.0,0.0,0.0,0.0,0.0,0.0,0.0,0.0,0.0,0.0,0.0,0.0,0.0,0.0,0.0,0.0,0.0,0.0,0.0,0.0,0.0,0.0,0.0,0.0,0.0,0.0,0.0,0.0,0.0,0.0,0.0,0.0,0.0,0.0,0.0,0.0,0.0,0.0,0.0,0.0,0.0,0.0,0.0,0.0,0.0,0.0,0.0,0.0,0.0,0.0,0.0,0.0,0.0,0.0,0.0,0.0,0.0,0.0,0.0,0.0,0.0,0.0,0.0,0.0,0.0,0.0,0.0,0.0,0.0,0.0,0.0,0.0,0.0,0.0,0.0,0.0,0.0,0.0,0.0,0.0,0.0,0.0,0.0,0.0,0.0,0.0,0.0,0.0,0.0,0.0,0.0,0.0,0.0,0.0,0.0,0.0,0.0,0.0,0.0,0.0,0.0,0.0,0.0,0.0,0.0,0.0,0.0,0.0,0.0,0.0,0.0,0.0,0.0,0.0,0.0,0.0,0.0,0.0,0.0,0.0,0.0,0.0,0.0,0.0,0.0,0.0,0.0,0.0,0.0,0.0,0.0,0.0,0.0,0.0,0.0,0.0,0.0,0.0,0.0,0.0,0.0,0.0,0.0,0.0,0.0,0.0,0.0,0.0,0.0,0.0,0.0,0.0,0.0,0.0,0.0,0.0,0.0,0.0,0.0,0.0,0.0,0.0,0.0,0.0,0.0,0.0,0.0,0.0,0.0,0.0,0.0,0.0,0.0,0.0,0.0,0.0,0.0,0.0,0.0,0.0,0.0,0.0,0.0,0.0,0.0,0.0,0.0,0.0,0.0,0.0,0.0,0.0,0.0,0.0,0.0,0.0,0.0,0.0,0.0,0.0,0.0,0.0,0.0,0.0,0.0,0.0,0.0,0.0,0.0,0.0,0.0,0.0,0.0,0.0,0.0,0.0,0.0,0.0,0.0,0.0,0.0,0.0,0.0,0.0,0.0,0.0,0.0,0.0,0.0,0.0,0.0,0.0,0.0,0.0,0.0,0.0,0.0,0.0,0.0,0.0,0.0,0.0,0.0,0.0,0.0,0.0,0.0,0.0,0.0,0.0,0.0,0.0,0.0,0.0,0.0,0.0,0.0,0.0,0.0,0.0,0.0,0.0,0.0,0.0,0.0,0.0,0.0,0.0,0.0,0.0,0.0,0.0,0.0,0.0,0.0,0.0,0.0,0.0,0.0,0.0,0.0,0.0,0.0,0.0,0.0,0.0,0.0,0.0,0.0,0.0,0.0,0.0,0.0,0.0,0.0,0.0,0.0,0.0,0.0,0.0,0.0,0.0,0.0,0.0,0.0,0.0,0.0,0.0,0.0,0.0,0.0,0.0,0.0,0.0,0.0,0.0,0.0,0.0,0.0,0.0,0.0,0.0,0.0,0.0,0.0,0.0,0.0,0.0,0.0,0.0,0.0,0.0,0.0,0.0,0.0,0.0,0.0,0.0,0.0,0.0,0.0,0.0,0.0,0.0,0.0,0.0,0.0,0.0,0.0,0.0,0.0,0.0,0.0,0.0,0.0,0.0,0.0,0.0,0.0,0.0,0.0,0.0,0.0,0.0,0.0,0.0,0.0,0.0,0.0,0.0,0.0,0.0,0.0,0.0,0.0,0.0,0.0,0.0,0.0,0.0,0.0,0.0,0.0,0.0,0.0,0.0,0.0,0.0,0.0,0.0,0.0,0.0,0.0,0.0,0.0,0.0,0.0,0.0,0.0,0.0,0.0,0.0,0.0,0.0,0.0,0.0,0.0,0.0,0.0,0.0,0.0,0.0,0.0,0.0,0.0,0.0,0.0,0.0,0.0,0.0,0.0,0.0,0.0,0.0,0.0,0.0,0.0,0.0,0.0,0.0,0.0,0.0,0.0,0.0,0.0,0.0,0.0,0.0,0.0,0.0,0.0,0.0,0.0,0.0,0.0,0.0,0.0,0.0,0.0,0.0,0.0,0.0,0.0,0.0,0.0,0.0,0.0,-0.6824,0.0,0.0,0.0,0.0,0.0,0.0,0.0,0.0,0.0,0.0,0.0,0.0,0.0,0.0,0.0,0.0,0.0,0.0,0.0,0.0,0.0,0.0,0.0,0.0,0.0,0.0,0.0,0.0,0.0,0.0,0.0,0.0,0.0,0.0,0.0,0.0,0.0,0.0,0.0,0.0,0.0,0.0,0.0,0.0,0.0,0.0,0.0,0.0,0.0,0.0,0.0,0.0,0.0,0.0,0.0,0.0,0.0,0.0,0.0,0.0,0.0,0.0,0.0,0.0,0.0,0.0,0.0,0.0,0.0,0.0,0.0,0.0,0.0,0.0,0.0,0.0,0.0,0.0,0.0,0.0,0.0,0.0,0.0,0.0,0.0,0.0,0.0,0.0,0.0,0.0,0.0,0.0,0.0,0.0,0.0,0.0,0.0,0.0,0.0,0.0,0.0,0.0,0.0,0.0,0.0,0.0,0.0,0.0,0.0,0.0,-0.77,-0.751,-0.738,-0.7142,-0.6798,0.0,0.0,0.0,0.0,0.0,0.0,0.0,0.0,0.0,0.0,0.0,0.0,0.0,0.0,0.0,0.0,0.0,0.0,0.0,0.0,0.0,0.0,0.0,0.0,0.0,0.0,0.0,0.0,0.0,0.0,0.0,0.0,0.0,0.0,0.0,0.0,0.0,0.0,0.0,0.0,0.0,0.0,0.0,0.0,0.0,0.0,0.0,0.0,0.0,0.0,0.0,0.0,0.0,0.0,0.0,0.0,0.0,0.0,0.0,0.0,0.0,0.0,0.0,0.0,0.0,0.0,0.0,0.0,0.0,0.0,0.0,0.0,0.0,0.0,0.0,0.0,0.0,0.0,0.0,0.0,0.0,0.0,0.0,0.0,0.0,0.0,0.0,0.0,0.0,0.0,0.0,0.0,0.0,0.0,0.0,0.0,0.0,0.0,0.0,0.0,0.0,0.0,0.0,0.0,0.0,0.0,0.0,0.0,0.0,0.0,0.0,0.0,-0.7666,-0.7507,-0.7197,0.0,0.0,0.0,0.0,0.0,0.0,0.0,0.0,0.0,0.0,0.0,0.0,0.0,0.0,0.0,0.0,0.0,0.0,0.0,0.0,0.0,0.0,0.0,0.0,0.0,0.0,0.0,0.0,0.0,0.0,0.0,0.0,0.0,0.0,0.0,0.0,0.0,0.0,0.0,0.0,0.0,0.0,0.0,0.0,0.0,0.0,0.0,0.0,0.0,0.0,0.0,0.0,0.0,0.0,0.0,0.0,0.0,0.0,0.0,0.0,0.0,0.0,0.0,0.0,0.0,0.0,0.0,0.0,0.0,0.0,0.0,0.0,0.0,0.0,0.0,0.0,0.0,0.0,0.0,0.0,0.0,0.0,0.0,0.0,0.0,0.0,0.0,0.0,0.0,0.0,0.0,0.0,0.0,0.0,0.0,0.0,0.0,0.0,0.0,0.0,0.0,0.0,0.0,0.0,0.0,0.0,0.0,0.0,0.0,0.0,-0.7801,-0.8723,-0.8746,0.0,-0.827,0.0,0.0,0.0,0.0,0.0,0.0,0.0,0.0,0.0,0.0,0.0,0.0,0.0,0.0,0.0,0.0,0.0,0.0,0.0,0.0,0.0,0.0,0.0,0.0,0.0,0.0,0.0,0.0,0.0,0.0,0.0,0.0,0.0,0.0,0.0,0.0,0.0,0.0,0.0,0.0,0.0,0.0,0.0,0.0,0.0,0.0,0.0,0.0,0.0,0.0,0.0,0.0,0.0,0.0,0.0,0.0,0.0,0.0,0.0,0.0,0.0,0.0,0.0,0.0,0.0,0.0,0.0,0.0,0.0,0.0,0.0,0.0,0.0,0.0,0.0,0.0,0.0,0.0,0.0,0.0,0.0,0.0,0.0,0.0,0.0,0.0,0.0,0.0,0.0,0.0,0.0,0.0,0.0,0.0,0.0,0.0,0.0,0.0,0.0,0.0,0.0,0.0,0.0,0.0,0.0,0.0,0.0,0.0,0.0,0.0,0.0,-0.8262,-0.8229,-0.8302,0.0,0.0,0.0,0.0,0.0,0.0,0.0,0.0,0.0,0.0,0.0,0.0,0.0,0.0,0.0,0.0,0.0,0.0,0.0,0.0,0.0,0.0,0.0,0.0,0.0,0.0,0.0,0.0,0.0,0.0,0.0,0.0,0.0,0.0,0.0,0.0,0.0,0.0,0.0,0.0,0.0,0.0,0.0,0.0,0.0,0.0,0.0,0.0,0.0,0.0,0.0,0.0,0.0,0.0,0.0,0.0,0.0,0.0,0.0,0.0,0.0,0.0,0.0,0.0,0.0,0.0,0.0,0.0,0.0,0.0,0.0,0.0,0.0,0.0,0.0,0.0,0.0,0.0,0.0,0.0,0.0,0.0,0.0,0.0,0.0,0.0,0.0,0.0,0.0,0.0,0.0,0.0,0.0,0.0,0.0,0.0,0.0,0.0,0.0,0.0,0.0,0.0,0.0,0.0,0.0,0.0,0.0,0.0,0.0,0.0,-0.7952,0.0,-0.8364,-0.8309,-0.8254,-0.823,0.0,0.0,0.0,0.0,0.0,0.0,0.0,0.0,0.0,0.0,0.0,0.0,0.0,0.0,0.0,0.0,0.0,0.0,0.0,0.0,0.0,0.0,0.0,0.0,0.0,0.0,0.0,0.0,0.0,0.0,0.0,0.0,0.0,0.0,0.0,0.0,0.0,0.0,0.0,0.0,0.0,0.0,0.0,0.0,0.0,0.0,0.0,0.0,0.0,0.0,0.0,0.0,0.0,0.0,0.0,0.0,0.0,0.0,0.0,0.0,0.0,0.0,0.0,0.0,0.0,0.0,0.0,0.0,0.0,0.0,0.0,0.0,0.0,0.0,0.0,0.0,0.0,0.0,0.0,0.0,0.0,0.0,0.0,0.0,0.0,0.0,0.0,0.0,0.0,0.0,0.0,0.0,0.0,0.0,0.0,0.0,0.0,0.0,0.0,0.0,0.0,0.0,0.0,0.0,0.0,0.0,0.0,0.0,0.0,-0.8651,-0.8842,-0.9763,-0.9493,-0.8866,0.0,0.0,0.0,0.0,0.0,0.0,0.0,0.0,0.0,0.0,0.0,0.0,0.0,0.0,0.0,0.0,0.0,0.0,0.0,0.0,0.0,0.0,0.0,0.0,0.0,0.0,0.0,0.0,0.0,0.0,0.0,0.0,0.0,0.0,0.0,0.0,0.0,0.0,0.0,0.0,0.0,0.0,0.0,0.0,0.0,0.0,0.0,0.0,0.0,0.0,0.0,0.0,0.0,0.0,0.0,0.0,0.0,0.0,0.0,0.0,0.0,0.0,0.0,0.0,0.0,0.0,0.0,0.0,0.0,0.0,0.0,0.0,0.0,0.0,0.0,0.0,0.0,0.0,0.0,0.0,0.0,0.0,0.0,0.0,0.0,0.0,0.0,0.0,0.0,0.0,0.0,0.0,0.0,0.0,0.0,0.0,0.0,0.0,0.0,0.0,0.0,0.0,0.0,0.0,0.0,0.0,0.0,0.0,0.0,-0.738,-0.7801,-0.8866,0.0,-0.913,-0.8524,0.0,0.0,0.0,0.0,0.0,0.0,0.0,0.0,0.0,0.0,0.0,0.0,0.0,0.0,0.0,0.0,0.0,0.0,0.0,0.0,0.0,0.0,0.0,0.0,0.0,0.0,0.0,0.0,0.0,0.0,0.0,0.0,0.0,0.0,0.0,0.0,0.0,0.0,0.0,0.0,0.0,0.0,0.0,0.0,0.0,0.0,0.0,0.0,0.0,0.0,0.0,0.0,0.0,0.0,0.0,0.0,0.0,0.0,0.0,0.0,0.0,0.0,0.0,0.0,0.0,0.0,0.0,0.0,0.0,0.0,0.0,0.0,0.0,0.0,0.0,0.0,0.0,0.0,0.0,0.0,0.0,0.0,0.0,0.0,0.0,0.0,0.0,0.0,0.0,0.0,0.0,0.0,0.0,0.0,0.0,0.0,0.0,0.0,0.0,0.0,0.0,0.0,0.0,0.0,0.0,0.0,0.0,0.0,0.0,-0.7301,0.0,-0.9438,0.0,-0.9152,-0.8413,0.0,0.0,0.0,0.0,0.0,0.0,0.0,0.0,0.0,0.0,0.0,0.0,0.0,0.0,0.0,0.0,0.0,0.0,0.0,0.0,0.0,0.0,0.0,0.0,0.0,0.0,0.0,0.0,0.0,0.0,0.0,0.0,0.0,0.0,0.0,0.0,0.0,0.0,0.0,0.0,0.0,0.0,0.0,0.0,0.0,0.0,0.0,0.0,0.0,0.0,0.0,0.0,0.0,0.0,0.0,0.0,0.0,0.0,0.0,0.0,0.0,0.0,0.0,0.0,0.0,0.0,0.0,0.0,0.0,0.0,0.0,0.0,0.0,0.0,0.0,0.0,0.0,0.0,0.0,0.0,0.0,0.0,0.0,0.0,0.0,0.0,0.0,0.0,0.0,0.0,0.0,0.0,0.0,0.0,0.0,0.0,0.0,0.0,0.0,0.0,0.0,0.0,0.0,0.0,0.0,0.0,0.0,0.0,-0.7332,-0.9257,-1.0335,-1.0534,-0.9921,-0.9541,-0.8572,0.0,0.0,0.0,0.0,0.0,0.0,0.0,0.0,0.0,0.0,0.0,0.0,0.0,0.0,0.0,0.0,0.0,0.0,0.0,0.0,0.0,0.0,0.0,0.0,0.0,0.0,0.0,0.0,0.0,0.0,0.0,0.0,0.0,0.0,0.0,0.0,0.0,0.0,0.0,0.0,0.0,0.0,0.0,0.0,0.0,0.0,0.0,0.0,0.0,0.0,0.0,0.0,0.0,0.0,0.0,0.0,0.0,0.0,0.0,0.0,0.0,0.0,0.0,0.0,0.0,0.0,0.0,0.0,0.0,0.0,0.0,0.0,0.0,0.0,0.0,0.0,0.0,0.0,0.0,0.0,0.0,0.0,0.0,0.0,0.0,0.0,0.0,0.0,0.0,0.0,0.0,0.0,0.0,0.0,0.0,0.0,0.0,0.0,0.0,0.0,0.0,0.0,0.0,0.0,0.0,0.0,0.0,0.0,0.0,-0.8707,-0.9255,-1.0017,-1.0891,-0.9255,-0.8635,0.0,0.0,0.0,0.0,0.0,0.0,0.0,0.0,0.0,0.0,0.0,0.0,0.0,0.0,0.0,0.0,0.0,0.0,0.0,0.0,0.0,0.0,0.0,0.0,0.0,0.0,0.0,0.0,0.0,0.0,0.0,0.0,0.0,0.0,0.0,0.0,0.0,0.0,0.0,0.0,0.0,0.0,0.0,0.0,0.0,0.0,0.0,0.0,0.0,0.0,0.0,0.0,0.0,0.0,0.0,0.0,0.0,0.0,0.0,0.0,0.0,0.0,0.0,0.0,0.0,0.0,0.0,0.0,0.0,0.0,0.0,0.0,0.0,0.0,0.0,0.0,0.0,0.0,0.0,0.0,0.0,0.0,0.0,0.0,0.0,0.0,0.0,0.0,0.0,0.0,0.0,0.0,0.0,0.0,0.0,0.0,0.0,0.0,0.0,0.0,0.0,0.0,0.0,0.0,0.0,0.0,0.0,0.0,0.0,-0.9978,-1.0407,-1.1042,-1.1868,-1.0137,-0.9342,-0.9683,0.0,0.0,0.0,0.0,0.0,0.0,0.0,0.0,0.0,0.0,0.0,0.0,0.0,0.0,0.0,0.0,0.0,0.0,0.0,0.0,0.0,0.0,0.0,0.0,0.0,0.0,0.0,0.0,0.0,0.0,0.0,0.0,0.0,0.0,0.0,0.0,0.0,0.0,0.0,0.0,0.0,0.0,0.0,0.0,0.0,0.0,0.0,0.0,0.0,0.0,0.0,0.0,0.0,0.0,0.0,0.0,0.0,0.0,0.0,0.0,0.0,0.0,0.0,0.0,0.0,0.0,0.0,0.0,0.0,0.0,0.0,0.0,0.0,0.0,0.0,0.0,0.0,0.0,0.0,0.0,0.0,0.0,0.0,0.0,0.0,0.0,0.0,0.0,0.0,0.0,0.0,0.0,0.0,0.0,0.0,0.0,0.0,0.0,0.0,0.0,0.0,0.0,0.0,0.0,0.0,0.0,0.0,0.0,-1.2765,-1.3394,-1.3425,-1.2837,-1.1932,-1.0589,0.0,0.0,0.0,0.0,0.0,0.0,0.0,0.0,0.0,0.0,0.0,0.0,0.0,0.0,0.0,0.0,0.0,0.0,0.0,0.0,0.0,0.0,0.0,0.0,0.0,0.0,0.0,0.0,0.0,0.0,0.0,0.0,0.0,0.0,0.0,0.0,0.0,0.0,0.0,0.0,0.0,0.0,0.0,0.0,0.0,0.0,0.0,0.0,0.0,0.0,0.0,0.0,0.0,0.0,0.0,0.0,0.0,0.0,0.0,0.0,0.0,0.0,0.0,0.0,0.0,0.0,0.0,0.0,0.0,0.0,0.0,0.0,0.0,0.0,0.0,0.0,0.0,0.0,0.0,0.0,0.0,0.0,0.0,0.0,0.0,0.0,0.0,0.0,0.0,0.0,0.0,0.0,0.0,0.0,0.0,0.0,0.0,0.0,0.0,0.0,0.0,0.0,0.0,0.0,0.0,0.0,0.0,0.0,0.0,-1.4458,-1.5427,-1.557,-1.4847,-1.2925,-1.1622,0.0,0.0,0.0,0.0,0.0,0.0,0.0,0.0,0.0,0.0,0.0,0.0,0.0,0.0,0.0,0.0,0.0,0.0,0.0,0.0,0.0,0.0,0.0,0.0,0.0,0.0,0.0,0.0,0.0,0.0,0.0,0.0,0.0,0.0,0.0,0.0,0.0,0.0,0.0,0.0,0.0,0.0,0.0,0.0,0.0,0.0,0.0,0.0,0.0,0.0,0.0,0.0,0.0,0.0,0.0,0.0,0.0,0.0,0.0,0.0,0.0,0.0,0.0,0.0,0.0,0.0,0.0,0.0,0.0,0.0,0.0,0.0,0.0,0.0,0.0,0.0,0.0,0.0,0.0,0.0,0.0,0.0,0.0,0.0,0.0,0.0,0.0,0.0,0.0,0.0,0.0,0.0,0.0,0.0,0.0,0.0,0.0,0.0,0.0,0.0,0.0,0.0,0.0,0.0,0.0,0.0,0.0,0.0,-1.4069,-1.538,-1.7135,-1.7715,-1.7016,-1.4768,-1.306,0.0,0.0,0.0,0.0,0.0,0.0,0.0,0.0,0.0,0.0,0.0,0.0,0.0,0.0,0.0,0.0,0.0,0.0,0.0,0.0,0.0,0.0,0.0,0.0,0.0,0.0,0.0,0.0,0.0,0.0,0.0,0.0,0.0,0.0,0.0,0.0,0.0,0.0,0.0,0.0,0.0,0.0,0.0,0.0,0.0,0.0,0.0,0.0,0.0,0.0,0.0,0.0,0.0,0.0,0.0,0.0,0.0,0.0,0.0,0.0,0.0,0.0,0.0,0.0,0.0,0.0,0.0,0.0,0.0,0.0,0.0,0.0,0.0,0.0,0.0,0.0,0.0,0.0,0.0,0.0,0.0,0.0,0.0,0.0,0.0,0.0,0.0,0.0,0.0,0.0,0.0,0.0,0.0,0.0,0.0,0.0,0.0,0.0,0.0,0.0,0.0,0.0,0.0,0.0,0.0,0.0,0.0,0.0,-1.5086,-1.5904,-1.8486,-1.9566,-1.8899,-1.6818,-1.4577,0.0,0.0,0.0,0.0,0.0,0.0,0.0,0.0,0.0,0.0,0.0,0.0,0.0,0.0,0.0,0.0,0.0,0.0,0.0,0.0,0.0,0.0,0.0,0.0,0.0,0.0,0.0,0.0,0.0,0.0,0.0,0.0,0.0,0.0,0.0,0.0,0.0,0.0,0.0,0.0,0.0,0.0,0.0,0.0,0.0,0.0,0.0,0.0,0.0,0.0,0.0,0.0,0.0,0.0,0.0,0.0,0.0,0.0,0.0,0.0,0.0,0.0,0.0,0.0,0.0,0.0,0.0,0.0,0.0,0.0,0.0,0.0,0.0,0.0,0.0,0.0,0.0,0.0,0.0,0.0,0.0,0.0,0.0,0.0,0.0,0.0,0.0,0.0,0.0,0.0,0.0,0.0,0.0,0.0,0.0,0.0,0.0,0.0,0.0,0.0,0.0,0.0,0.0,0.0,0.0,0.0,0.0,0.0,-1.5801,-1.731,-1.8986,-1.9789,-1.9638,-1.7064,-1.4919,0.0,0.0,0.0,0.0,0.0,0.0,0.0,0.0,0.0,0.0,0.0,0.0,0.0,0.0,0.0,0.0,0.0,0.0,0.0,0.0,0.0,0.0,0.0,0.0,0.0,0.0,0.0,0.0,0.0,0.0,0.0,0.0,0.0,0.0,0.0,0.0,0.0,0.0,0.0,0.0,0.0,0.0,0.0,0.0,0.0,0.0,0.0,0.0,-0.7224,0.0,0.0,0.0,0.0,0.0,0.0,0.0,0.0,0.0,0.0,0.0,0.0,0.0,0.0,0.0,0.0,0.0,0.0,0.0,0.0,0.0,0.0,0.0,0.0,0.0,0.0,0.0,0.0,0.0,0.0,0.0,0.0,0.0,0.0,0.0,0.0,0.0,0.0,0.0,0.0,0.0,0.0,0.0,0.0,0.0,0.0,0.0,0.0,0.0,0.0,0.0,0.0,0.0,0.0,0.0,0.0,0.0,0.0,0.0,-1.6427,-1.8061,-1.9541,-2.0202,-1.9805,-1.77,-1.5779,0.0,0.0,0.0,0.0,0.0,0.0,0.0,0.0,0.0,0.0,0.0,0.0,0.0,0.0,0.0,0.0,0.0,0.0,0.0,0.0,0.0,0.0,0.0,0.0,0.0,0.0,0.0,0.0,0.0,0.0,0.0,0.0,0.0,0.0,0.0,0.0,0.0,0.0,0.0,0.0,0.0,0.0,0.0,0.0,0.0,0.0,0.0,0.0,0.0,0.0,0.0,0.0,0.0,0.0,0.0,0.0,0.0,0.0,0.0,0.0,0.0,0.0,0.0,0.0,0.0,0.0,0.0,0.0,0.0,0.0,0.0,0.0,0.0,0.0,0.0,0.0,0.0,0.0,0.0,0.0,0.0,0.0,0.0,0.0,0.0,0.0,0.0,0.0,0.0,0.0,0.0,0.0,0.0,0.0,0.0,0.0,0.0,0.0,0.0,0.0,0.0,0.0,0.0,0.0,0.0,0.0,0.0,-1.4751,-1.6996,-1.8652,-2.019,-2.0583,-1.9868,-1.8391,-1.6692,-1.4648,0.0,0.0,0.0,0.0,0.0,0.0,0.0,0.0,0.0,0.0,0.0,0.0,0.0,0.0,0.0,0.0,0.0,0.0,0.0,0.0,0.0,0.0,0.0,0.0,0.0,0.0,0.0,0.0,0.0,0.0,0.0,0.0,0.0,0.0,0.0,0.0,0.0,0.0,-0.7161,-0.7832,0.0,0.0,0.0,0.0,0.0,0.0,0.0,0.0,-0.6072,0.0,0.0,0.0,0.0,0.0,0.0,0.0,0.0,0.0,0.0,0.0,0.0,0.0,0.0,0.0,0.0,0.0,0.0,0.0,0.0,0.0,0.0,0.0,0.0,0.0,0.0,0.0,0.0,0.0,0.0,0.0,0.0,0.0,0.0,0.0,0.0,0.0,0.0,0.0,0.0,0.0,0.0,0.0,0.0,0.0,0.0,0.0,0.0,0.0,0.0,0.0,0.0,0.0,0.0,0.0,0.0,-1.3797,-1.5109,-1.7183,-1.996,-2.0647,-2.0583,-1.9868,-1.8788,-1.7004,-1.4511,0.0,0.0,0.0,0.0,0.0,0.0,0.0,0.0,0.0,0.0,0.0,0.0,0.0,0.0,0.0,0.0,0.0,0.0,0.0,0.0,0.0,0.0,0.0,0.0,0.0,0.0,0.0,0.0,0.0,0.0,0.0,0.0,0.0,0.0,0.0,0.0,0.0,0.0,0.0,-0.8413,-0.8385,0.0,0.0,0.0,0.0,0.0,0.0,0.0,0.0,-0.6667,0.0,0.0,0.0,0.0,0.0,0.0,0.0,0.0,0.0,0.0,0.0,0.0,0.0,0.0,0.0,0.0,0.0,0.0,0.0,0.0,0.0,0.0,0.0,0.0,0.0,0.0,0.0,0.0,0.0,0.0,0.0,0.0,0.0,0.0,0.0,0.0,0.0,0.0,0.0,0.0,0.0,0.0,0.0,0.0,0.0,0.0,0.0,0.0,0.0,0.0,0.0,0.0,0.0,0.0,0.0,-1.4015,-1.5736,-1.776,-2.0148,-2.0412,-2.0272,-1.9673,-1.8138,-1.6448,0.0,0.0,0.0,0.0,0.0,0.0,0.0,0.0,0.0,0.0,0.0,0.0,0.0,0.0,0.0,0.0,0.0,0.0,0.0,0.0,0.0,0.0,0.0,0.0,0.0,0.0,0.0,0.0,0.0,0.0,0.0,0.0,0.0,0.0,0.0,0.0,0.0,0.0,0.0,0.0,-0.864,-0.9058,-0.9724,0.0,0.0,0.0,0.0,0.0,0.0,-0.7047,-0.6764,0.0,0.0,0.0,0.0,0.0,0.0,0.0,0.0,0.0,0.0,0.0,0.0,0.0,0.0,0.0,0.0,0.0,0.0,0.0,0.0,0.0,0.0,0.0,0.0,0.0,0.0,0.0,0.0,0.0,0.0,0.0,0.0,0.0,0.0,0.0,0.0,0.0,0.0,0.0,0.0,0.0,0.0,0.0,0.0,0.0,0.0,0.0,0.0,0.0,0.0,0.0,0.0,0.0,0.0,0.0,-1.3954,-1.6148,-1.8264,-2.0177,-2.0292,-2.007,-1.9576,-1.764,-1.584,0.0,0.0,0.0,0.0,0.0,0.0,0.0,0.0,0.0,0.0,0.0,0.0,0.0,0.0,0.0,0.0,0.0,0.0,0.0,0.0,0.0,0.0,0.0,0.0,0.0,0.0,0.0,0.0,0.0,0.0,0.0,0.0,0.0,0.0,0.0,0.0,0.0,0.0,0.0,0.0,0.0,-0.9568,-1.0214,-0.9598,0.0,0.0,0.0,0.0,-0.7129,-0.7203,0.0,0.0,0.0,0.0,0.0,0.0,0.0,0.0,0.0,0.0,0.0,0.0,0.0,0.0,0.0,0.0,0.0,0.0,0.0,0.0,0.0,0.0,0.0,0.0,0.0,0.0,0.0,0.0,0.0,0.0,0.0,0.0,0.0,0.0,0.0,0.0,0.0,0.0,0.0,0.0,0.0,0.0,0.0,0.0,0.0,0.0,0.0,0.0,0.0,0.0,0.0,0.0,0.0,0.0,0.0,0.0,-1.4014,-1.6009,-1.8214,-2.0672,-2.0814,-2.049,-1.9868,-1.7998,-1.5973,0.0,0.0,0.0,0.0,0.0,0.0,0.0,0.0,0.0,0.0,0.0,0.0,0.0,0.0,0.0,0.0,0.0,0.0,0.0,0.0,0.0,0.0,0.0,0.0,0.0,0.0,0.0,0.0,0.0,0.0,0.0,0.0,0.0,0.0,0.0,0.0,0.0,0.0,0.0,0.0,0.0,-0.9346,-0.9203,-0.8648,-0.8113,0.0,0.0,-0.825,-0.8226,-0.868,0.0,0.0,0.0,0.0,0.0,0.0,0.0,0.0,0.0,0.0,0.0,0.0,0.0,0.0,0.0,0.0,0.0,0.0,0.0,0.0,0.0,0.0,0.0,0.0,0.0,0.0,0.0,0.0,0.0,0.0,0.0,0.0,0.0,0.0,0.0,0.0,0.0,0.0,0.0,0.0,0.0,0.0,0.0,0.0,0.0,0.0,0.0,0.0,0.0,0.0,0.0,0.0,0.0,0.0,0.0,-1.1435,-1.4249,-1.6477,-1.8586,-2.0326,-2.0094,-1.9875,-1.9501,-1.7182,-1.5248,0.0,0.0,0.0,0.0,0.0,0.0,0.0,0.0,0.0,0.0,0.0,0.0,0.0,0.0,0.0,0.0,0.0,0.0,0.0,0.0,0.0,0.0,0.0,0.0,0.0,0.0,0.0,0.0,0.0,0.0,0.0,0.0,0.0,0.0,0.0,0.0,0.0,0.0,0.0,0.0,0.0,0.0,-0.9778,-0.958,0.0,0.0,0.0,-0.8755,-0.8292,0.0,0.0,0.0,0.0,0.0,0.0,0.0,0.0,0.0,0.0,0.0,0.0,0.0,0.0,0.0,0.0,0.0,0.0,0.0,0.0,0.0,0.0,0.0,0.0,0.0,0.0,0.0,0.0,0.0,0.0,0.0,0.0,0.0,0.0,0.0,0.0,0.0,0.0,0.0,0.0,0.0,0.0,0.0,0.0,0.0,0.0,0.0,0.0,0.0,0.0,0.0,0.0,0.0,0.0,0.0,0.0,0.0,-1.4569,-1.7034,-1.8988,-2.0246,-1.9894,-1.9577,-1.9282,-1.6873,0.0,0.0,0.0,0.0,0.0,0.0,0.0,0.0,0.0,0.0,0.0,0.0,0.0,0.0,0.0,0.0,0.0,0.0,0.0,0.0,0.0,0.0,0.0,0.0,0.0,0.0,0.0,-0.5261,0.0,0.0,0.0,0.0,0.0,0.0,0.0,0.0,0.0,0.0,0.0,0.0,0.0,0.0,-1.0165,-1.0366,-1.0652,-1.0708,0.0,0.0,-0.9346,-0.8727,-0.9464,-0.9568,0.0,0.0,0.0,0.0,0.0,0.0,0.0,0.0,0.0,0.0,0.0,0.0,0.0,0.0,0.0,0.0,0.0,0.0,0.0,0.0,0.0,0.0,0.0,0.0,0.0,0.0,0.0,0.0,0.0,0.0,0.0,0.0,0.0,0.0,0.0,0.0,0.0,0.0,0.0,0.0,0.0,0.0,0.0,0.0,0.0,0.0,0.0,0.0,0.0,0.0,0.0,0.0,0.0,0.0,0.0,-1.5204,-1.7497,-1.9396,-2.0775,-2.0814,-2.0482,-1.9868,-1.7993,-1.6075,0.0,0.0,0.0,0.0,0.0,0.0,0.0,0.0,0.0,0.0,0.0,0.0,0.0,0.0,0.0,0.0,0.0,0.0,0.0,0.0,0.0,0.0,0.0,0.0,0.0,0.0,0.0,0.0,0.0,0.0,0.0,0.0,0.0,0.0,0.0,0.0,0.0,0.0,0.0,0.0,0.0,-1.0792,-1.0573,-1.1319,-1.1567,0.0,0.0,-1.0187,-1.013,-1.0825,-1.0697,-0.867,0.0,0.0,0.0,0.0,0.0,0.0,0.0,0.0,0.0,0.0,0.0,0.0,0.0,0.0,0.0,0.0,0.0,0.0,0.0,0.0,0.0,0.0,0.0,0.0,0.0,0.0,0.0,0.0,0.0,0.0,0.0,0.0,0.0,0.0,0.0,0.0,0.0,0.0,0.0,0.0,0.0,0.0,0.0,0.0,0.0,0.0,0.0,0.0,0.0,0.0,0.0,0.0,0.0,-1.2107,-1.4038,-1.6963,-1.9094,-2.0357,-2.0197,-2.0076,-1.9713,-1.828,-1.6369,0.0,0.0,0.0,0.0,0.0,0.0,0.0,0.0,0.0,0.0,0.0,0.0,0.0,0.0,0.0,0.0,0.0,0.0,0.0,0.0,0.0,0.0,0.0,0.0,0.0,0.0,0.0,0.0,-0.7972,-0.7973,-0.7233,0.0,0.0,0.0,0.0,0.0,0.0,0.0,0.0,0.0,0.0,-1.1617,-1.083,-1.2334,0.0,0.0,-1.1566,-1.1742,-1.0605,-1.0731,-1.0405,-0.8836,-0.8335,0.0,0.0,0.0,0.0,0.0,0.0,0.0,0.0,0.0,0.0,0.0,0.0,0.0,0.0,0.0,0.0,0.0,0.0,0.0,0.0,0.0,0.0,0.0,0.0,0.0,0.0,0.0,0.0,0.0,0.0,0.0,0.0,0.0,0.0,0.0,0.0,0.0,0.0,0.0,0.0,0.0,0.0,0.0,0.0,0.0,0.0,0.0,0.0,0.0,0.0,0.0,0.0,-1.227,-1.3724,-1.6798,-1.8907,-2.0071,-1.9879,-1.9728,-1.9598,-1.8388,-1.6779,0.0,0.0,0.0,0.0,0.0,0.0,0.0,0.0,0.0,0.0,0.0,0.0,0.0,0.0,0.0,0.0,0.0,0.0,0.0,0.0,0.0,0.0,0.0,0.0,0.0,0.0,0.0,0.0,-0.8781,-0.8585,-0.7377,0.0,0.0,0.0,0.0,0.0,0.0,0.0,0.0,0.0,0.0,-1.3112,-1.1921,-1.3345,-1.3811,-1.1668,-1.1933,-1.2047,-1.0913,-1.0721,-1.0357,-0.9176,0.0,0.0,0.0,0.0,0.0,0.0,0.0,0.0,0.0,0.0,0.0,0.0,0.0,0.0,0.0,0.0,0.0,0.0,0.0,0.0,0.0,0.0,0.0,0.0,0.0,0.0,0.0,0.0,0.0,0.0,-0.5577,0.0,0.0,0.0,0.0,0.0,0.0,0.0,0.0,0.0,0.0,0.0,0.0,0.0,0.0,0.0,0.0,0.0,0.0,0.0,0.0,0.0,0.0,0.0,-1.4847,-1.7363,-1.9107,-2.0055,-2.0078,-1.9933,-1.9613,-1.8731,-1.7393,-1.5794,0.0,0.0,0.0,0.0,0.0,0.0,0.0,0.0,0.0,0.0,0.0,0.0,0.0,0.0,0.0,0.0,0.0,0.0,0.0,0.0,0.0,0.0,0.0,0.0,0.0,0.0,-0.8245,-0.8319,-0.8307,0.0,0.0,0.0,0.0,0.0,0.0,0.0,0.0,0.0,0.0,-1.4661,-1.5423,-1.3969,-1.42,-1.4002,-1.1888,-1.111,-1.0772,-1.0972,-1.1042,-1.083,0.0,0.0,0.0,0.0,0.0,0.0,0.0,0.0,0.0,0.0,0.0,0.0,0.0,0.0,0.0,0.0,0.0,0.0,0.0,0.0,0.0,0.0,0.0,0.0,0.0,0.0,0.0,-0.8357,-0.7973,0.0,0.0,0.0,0.0,0.0,0.0,0.0,0.0,0.0,0.0,0.0,-1.4509,-1.5495,0.0,0.0,0.0,0.0,0.0,0.0,0.0,0.0,0.0,0.0,0.0,0.0,-1.3205,-1.4401,-1.7311,-1.9137,-1.9761,-1.9879,-1.9731,-1.9618,-1.929,-1.7968,-1.5561,0.0,0.0,0.0,0.0,0.0,0.0,0.0,0.0,0.0,0.0,0.0,0.0,0.0,0.0,0.0,0.0,0.0,0.0,0.0,0.0,0.0,0.0,0.0,0.0,0.0,-0.8316,0.0,0.0,0.0,0.0,0.0,0.0,0.0,0.0,0.0,0.0,0.0,-1.2652,-1.3195,-1.5198,-1.5975,-1.4443,-1.5804,-1.6454,0.0,0.0,0.0,0.0,0.0,0.0,0.0,0.0,0.0,0.0,0.0,0.0,0.0,0.0,-0.986,-0.8746,-0.8548,-0.86,-0.8529,0.0,0.0,0.0,0.0,0.0,0.0,0.0,0.0,0.0,0.0,0.0,0.0,0.0,0.0,0.0,0.0,-1.0613,0.0,0.0,0.0,0.0,0.0,0.0,0.0,0.0,-1.5194,-1.6526,-1.6893,-1.7908,-1.7987,0.0,-1.6515,-1.4449,0.0,0.0,0.0,0.0,0.0,0.0,0.0,0.0,-1.3765,-1.4795,-1.75,-1.9214,-1.9732,-1.9754,-1.9702,-1.9569,-1.9149,-1.7973,-1.5831,-1.3911,-1.2313,0.0,0.0,0.0,0.0,0.0,0.0,0.0,0.0,0.0,0.0,0.0,0.0,0.0,0.0,0.0,0.0,0.0,0.0,0.0,0.0,0.0,0.0,0.0,-0.9045,0.0,0.0,0.0,0.0,0.0,0.0,0.0,0.0,0.0,-1.1037,-1.3182,-1.4753,-1.49,-1.6549,-1.7103,-1.5215,0.0,0.0,0.0,0.0,0.0,0.0,0.0,-1.1023,-1.061,-1.0405,-1.0386,-1.0565,-1.1047,-1.1364,-1.1222,0.0,0.0,-0.9883,-0.962,-0.962,-0.9538,-0.9429,-0.9246,-0.9123,-0.9121,-0.9161,0.0,0.0,0.0,0.0,0.0,0.0,0.0,0.0,-1.5102,-1.5301,0.0,-1.4175,0.0,0.0,0.0,0.0,0.0,-1.374,0.0,0.0,-1.9287,-2.0332,-1.9961,-1.976,-1.9591,-1.9442,-1.9117,-1.7972,-1.6134,-1.3732,0.0,0.0,0.0,0.0,0.0,0.0,-1.3952,-1.5965,-1.8174,-1.9462,-1.9769,-1.9762,-1.9608,-1.9272,-1.8364,-1.7507,-1.661,-1.5565,-1.433,-1.2938,-1.1493,0.0,0.0,0.0,0.0,0.0,0.0,0.0,0.0,0.0,0.0,0.0,0.0,0.0,0.0,0.0,0.0,0.0,0.0,0.0,0.0,-0.9753,0.0,0.0,0.0,0.0,0.0,0.0,0.0,0.0,0.0,0.0,-1.3853,-1.5533,-1.7091,-1.7596,0.0,0.0,0.0,0.0,-1.6203,-1.4483,-1.3927,-1.3415,-1.2433,-1.2598,-1.2615,-1.1639,0.0,0.0,-1.1964,-1.1879,-1.1803,-1.1392,-1.2025,-1.2262,-1.154,-1.0813,-1.0272,-1.0181,-0.9989,-0.9656,-0.9571,-0.992,-1.003,-1.7896,0.0,0.0,0.0,0.0,-1.5071,-1.6199,-1.7156,-1.7688,-1.7758,-1.7468,-1.6999,0.0,0.0,0.0,0.0,0.0,0.0,-1.6996,-1.8123,-1.9859,-2.0817,-2.114,-2.1495,-2.1433,-2.0995,-2.0895,-2.0292,-1.9322,-1.8323,-1.601,-1.2287,0.0,0.0,0.0,0.0,-1.6017,-1.7289,-1.9045,-2.0003,-2.0091,-1.9879,-1.9608,-1.9286,-1.8782,-1.816,-1.7515,-1.6696,-1.5672,-1.4381,-1.3236,0.0,0.0,0.0,0.0,0.0,0.0,0.0,0.0,0.0,0.0,0.0,0.0,0.0,0.0,0.0,0.0,0.0,0.0,0.0,-0.8999,-0.9715,-1.0234,0.0,0.0,0.0,0.0,0.0,0.0,0.0,0.0,0.0,-1.6872,-1.7086,-1.6973,0.0,0.0,-1.728,-1.5751,-1.6069,-1.6533,-1.6393,0.0,0.0,0.0,-1.3067,-1.2321,-1.2153,-1.2625,-1.297,-1.2947,-1.3183,-1.3391,-1.3391,-1.3365,-1.3366,-1.3108,-1.2434,-1.1948,-1.1711,-1.1586,-1.1465,-1.1594,-1.1573,-1.1598,-2.2218,-1.8943,-1.8188,-1.7584,-1.7327,-1.8484,-1.9627,-2.0602,-2.1056,-2.1137,-2.0849,-2.0311,-1.9071,-1.7174,-1.597,0.0,0.0,0.0,-1.8333,-1.9687,-2.0423,-2.1106,-2.1691,-2.2024,-2.2017,-2.1594,-2.1586,-2.1382,-2.0858,-2.0476,-1.8641,-1.5523,0.0,0.0,-1.4575,-1.6133,-1.7421,-1.8401,-1.9733,-2.0428,-2.042,-1.9989,-1.9667,-1.9469,-1.903,-1.8599,-1.8211,-1.7582,-1.6821,-1.5921,-1.4728,-1.3309,0.0,0.0,0.0,0.0,0.0,0.0,0.0,0.0,0.0,0.0,0.0,-0.8339,0.0,0.0,0.0,0.0,-0.9589,-0.9925,-1.0732,-1.1241,0.0,0.0,0.0,0.0,0.0,0.0,0.0,-1.5397,-1.6971,-1.8225,-1.8906,-1.8723,-1.8074,-1.6948,-1.7351,-1.7306,-1.6286,0.0,-1.795,-1.8087,-1.7125,-1.6235,-1.6214,-1.5044,-1.3948,-1.3246,-1.3381,-1.3594,-1.3736,-1.3972,-1.4166,-1.4284,-1.4252,-1.4056,-1.3929,-1.3455,-1.2924,-1.2669,-1.2634,-1.2627,-1.2494,-1.2532,-1.2537,-2.5778,-2.4637,-2.1883,-2.1018,-2.179,-2.2192,-2.32,-2.4569,-2.469,-2.4873,-2.504,-2.38,-2.2391,-2.0873,-1.8046,0.0,-1.8289,-1.8826,-1.9881,-2.1317,-2.138,-2.1521,-2.1743,-2.172,-2.1705,-2.1713,-2.1683,-2.1554,-2.1266,-2.0858,-2.0174,-1.9284,-1.8183,-1.7408,-1.7029,-1.7552,-1.8357,-1.9301,-2.0216,-2.0691,-2.0713,-2.012,-1.9898,-1.9861,-1.9229,-1.8774,-1.873,-1.8145,-1.7662,-1.7304,-1.5877,-1.4479,-1.3192,0.0,0.0,0.0,0.0,0.0,0.0,0.0,0.0,0.0,0.0,0.0,0.0,0.0,0.0,0.0,-1.1889,0.0,-1.3609,-1.3704,0.0,0.0,0.0,-1.5328,-1.6945,-1.7647,-1.813,-1.846,0.0,0.0,-2.0391,0.0,-1.9847,-1.8762,-1.8531,-1.825,-1.7603,-1.8766,-1.9765,-1.9042,-1.9199,-1.8863,-1.7597,-1.6954,-1.6089,-1.4537,-1.435,-1.4345,-1.4374,-1.4392,-1.4392,-1.4459,-1.4577,-1.459,-1.4318,-1.4182,-1.3813,-1.3199,-1.3125,-1.3125,-1.2553,-1.2809,-1.3051,-2.7589,-2.7254,-2.6604,-2.4864,-2.2889,-2.4477,-2.5031,-2.4726,-2.551,-2.5675,-2.5485,-2.5167,-2.4527,-2.3727,-2.262,-2.252,-2.3035,-2.2682,-2.2665,-2.2982,-2.2727,-2.2423,-2.2061,-2.2037,-2.1918,-2.1678,-2.1443,-2.1439,-2.1546,-2.1436,-2.1083,-2.033,-2.0212,-1.9283,-1.7677,-1.8394,-1.911,-1.9638,-2.0106,-2.0582,-2.1041,-2.0654,-2.042,-2.0385,-1.953,-1.8966,-1.8714,-1.8125,-1.7662,-1.7326,-1.6499,-1.5562,-1.4516,-1.2336,0.0,0.0,0.0,0.0,0.0,0.0,0.0,0.0,0.0,-1.0931,-0.8846,0.0,-1.2175,0.0,-1.3887,-1.5087,-1.5321,-1.5548,0.0,0.0,-1.6887,-1.7384,-1.922,-1.9564,-1.9791,-2.0106,-2.0852,-2.1445,-2.1686,-2.0871,-2.0319,-2.0463,-2.0099,-1.94,-1.8591,-1.8049,-1.7899,-1.7805,-1.6844,-1.5492,-1.5508,-1.5294,-1.5187,-1.4661,-1.4685,-1.4837,-1.4988,-1.5011,-1.5068,-1.5224,-1.53,-1.5337,-1.5189,-1.525,-1.4971,-1.4598,-1.3798,-1.3211,-1.3088,-1.3284,-1.3308,-2.8217,-2.8217,-2.8217,-2.6819,-2.4815,-2.6315,-2.6572,-2.6028,-2.6414,-2.6422,-2.6096,-2.5937,-2.5549,-2.4968,-2.4649,-2.4579,-2.4463,-2.4107,-2.3787,-2.3695,-2.3407,-2.3006,-2.2367,-2.2311,-2.2156,-2.1906,-2.1584,-2.1546,-2.1654,-2.1735,-2.1481,-2.1122,-2.144,-2.0734,-1.9197,-1.9385,-1.959,-1.955,-2.0003,-2.0575,-2.1136,-2.0693,-2.026,-1.9747,-1.9239,-1.8505,-1.774,-1.7446,-1.7059,-1.6499,-1.587,-1.5153,-1.4318,-1.2701,-1.1406,0.0,0.0,0.0,0.0,0.0,0.0,0.0,0.0,0.0,0.0,0.0,-1.4084,0.0,-1.5906,-1.6974,-1.6974,-1.7523,-1.8328,-1.9425,-1.9257,-1.9769,-2.154,-2.1598,-2.1701,-2.2169,-2.2542,-2.2879,-2.3193,-2.2473,-2.2174,-2.2636,-2.2212,-2.1428,-2.0,-1.9588,-1.9608,-1.9397,-1.8629,-1.7882,-1.7587,-1.7205,-1.6718,-1.609,-1.5531,-1.5252,-1.5356,-1.538,-1.5422,-1.5536,-1.563,-1.5692,-1.5697,-1.5501,-1.5283,-1.4988,-1.422,-1.3579,-1.3659,-1.3646,-1.3646,-2.836,-2.836,-2.836,-2.7836,-2.705,-2.7629,-2.7685,-2.7375,-2.7065,-2.6811,-2.6597,-2.6374,-2.5992,-2.5469,-2.5415,-2.5132,-2.4633,-2.4416,-2.4276,-2.3938,-2.3893,-2.3464,-2.2813,-2.2725,-2.2679,-2.2414,-2.2053,-2.1877,-2.1862,-2.1892,-2.1797,-2.1722,-2.1896,-2.1532,-2.0547,-2.0294,-1.9894,-1.9279,-1.9908,-2.0516,-2.1171,-2.0523,-1.9729,-1.8868,-1.8632,-1.7859,-1.6522,-1.6514,-1.624,-1.5511,-1.4955,-1.4414,-1.3879,-1.2936,-1.216,0.0,-1.1267,0.0,0.0,0.0,0.0,0.0,0.0,0.0,0.0,-1.5833,-1.6411,-1.6718,-1.7911,-1.8708,-1.8796,-1.9564,-2.0545,-2.1657,-2.1598,-2.203,-2.3384,-2.3376,-2.3471,-2.4071,-2.4145,-2.4269,-2.4525,-2.4379,-2.432,-2.4518,-2.4291,-2.335,-2.1804,-2.1831,-2.2089,-2.2161,-2.2205,-2.1074,-2.0902,-2.0329,-1.9305,-1.8261,-1.7224,-1.6177,-1.6055,-1.6187,-1.6318,-1.6074,-1.6205,-1.6307,-1.6178,-1.577,-1.5177,-1.5164,-1.4716,-1.4053,-1.3959,-1.3884,-1.3855,-2.9091,-2.9091,-2.9099,-2.898,-2.8789,-2.8638,-2.7439,-2.5604,-2.5532,-2.5786,-2.6279,-2.6779,-2.697,-2.6759,-2.6474,-2.6458,-2.664,-2.5716,-2.535,-2.5206,-2.4675,-2.4389,-2.4163,-2.3643,-2.3615,-2.3771,-2.3194,-2.2898,-2.2891,-2.2572,-2.2139,-2.1719,-2.1641,-2.1056,-1.9994,0.0,0.0,0.0,-1.9908,-2.0406,-2.0714,-2.0061,-1.9565,-1.9079,-1.8229,0.0,-1.6765,-1.6307,-1.595,-1.5826,-1.5709,0.0,0.0,0.0,0.0,0.0,0.0,0.0,0.0,0.0,0.0,0.0,-1.5965,-1.565,-1.6096,-1.7413,-1.8386,-1.8723,-1.9901,-2.0881,-2.1393,-2.1606,-2.192,-2.2381,-2.263,-2.2981,-2.3537,-2.3764,-2.4057,-2.4423,-2.4481,-2.4605,-2.4898,-2.4905,-2.4891,-2.4964,-2.4913,-2.4701,-2.3999,-2.2895,-2.2107,-2.1726,-2.1175,-2.0307,-2.0241,-2.0379,-2.0276,-1.9758,-1.9787,-1.9059,-1.8111,-1.8794,-1.9076,-1.7978,-1.7891,-1.7917,-1.7778,-1.6851,-1.59,-1.5904,-1.5612,-1.5013,-1.4098,-1.394,-1.394,-2.9298,0.0,-2.9298,-2.9004,0.0,-2.8336,-2.7256,-2.5667,-2.6358,-2.6756,-2.6962,-2.7478,-2.7614,-2.7431,-2.6724,-2.6509,-2.6628,-2.547,-2.5125,-2.5373,-2.4947,-2.4842,-2.4857,-2.4509,-2.431,-2.41,-2.3596,-2.3345,-2.3329,-2.3016,-2.2604,-2.2108,-2.2038,-2.17,-2.0891,-2.1302,-2.1033,-2.0173,-2.0178,-2.0501,-2.09,-2.0409,-1.9852,-1.9302,0.0,0.0,0.0,0.0,0.0,0.0,0.0,0.0,0.0,0.0,0.0,-1.5877,-1.6038,-1.6265,-1.6587,-1.6901,-1.7574,-1.8664,-1.8913,-1.8796,-1.8321,-1.9477,-2.042,-2.0896,-2.1533,-2.2037,-2.2367,-2.2689,-2.2937,-2.3098,-2.3391,-2.372,-2.4027,-2.4225,-2.4452,-2.4759,-2.4942,-2.5118,-2.5271,-2.544,-2.552,-2.5535,-2.5527,-2.5461,-2.5257,-2.418,-2.314,-2.2846,-2.2538,-2.2136,-2.2164,-2.1732,-2.1505,-2.1531,-2.0389,-1.9362,-1.8546,-1.8401,-1.8121,-1.7434,-1.7293,-1.7298,-1.7293,-1.6315,-1.5621,-1.5616,-1.5186,-1.4613,-1.4047,-1.4043,-1.4189,-2.9441,-2.9393,-2.9393,-2.8853,-2.8011,-2.8011,-2.751,-2.6764,0.0,0.0,0.0,-2.805,-2.8066,-2.7764,-2.6899,-2.6517,-2.6438,-2.5318,-2.5107,-2.5475,-2.549,-2.5448,-2.5329,-2.5153,-2.4922,-2.4324,-2.3978,-2.3817,-2.3794,-2.36,-2.3299,-2.2928,-2.2859,-2.2651,-2.2337,-2.2139,-2.1834,-2.1409,-2.0719,-2.0604,-2.1126,-2.0773,-2.017,-1.9206,-1.9088,-1.8378,-1.7077,-1.7209,-1.6965,-1.6265,-1.6294,-1.636,-1.6426,-1.6711,-1.7033,-1.7362,-1.7918,-1.8408,-1.8796,-1.9264,-1.9813,-2.045,-2.1284,-2.1423,-2.0559,-2.1335,-2.2074,-2.2586,-2.2674,-2.2725,-2.2791,-2.3267,-2.3618,-2.3676,-2.3969,-2.4276,-2.4525,-2.4693,-2.4854,-2.5118,-2.541,-2.5615,-2.5622,-2.5827,-2.6018,-2.601,-2.5959,-2.6018,-2.59,-2.5205,-2.4436,-2.4225,-2.4144,-2.4422,-2.4538,-2.3884,-2.3229,-2.3079,-2.1296,-1.9529,-1.8876,-1.8049,-1.7369,-1.7023,-1.669,-1.6808,-1.6656,-1.607,-1.5195,-1.519,-1.4613,-1.4185,-1.4043,-1.4332,-1.4336,-3.0005,-2.975,-2.975,-2.9488,-2.9075,-2.9075,-2.8996,-2.8773,-2.7788,-2.732,-2.732,-2.7947,-2.8201,-2.8146,-2.7995,-2.7923,-2.7923,-2.7725,-2.7431,0.0,-2.6884,-2.6596,-2.592,-2.5641,-2.5436,-2.5297,-2.5075,-2.4909,-2.4869,-2.4553,-2.4356,-2.4277,-2.4016,-2.3692,-2.3237,-2.249,-2.2176,-2.2414,-2.1509,-2.0929,-2.0808,-2.0416,-1.9791,-1.8979,-1.8885,-1.8476,-1.7706,-1.7699,-1.764,-1.7552,-1.7808,-1.8094,-1.8372,-1.8672,-1.9016,-1.9338,-1.9696,-2.0164,-2.0735,-2.0633,-2.0794,-2.143,-2.1884,-2.1935,-2.1554,-2.2103,-2.2535,-2.263,-2.2879,-2.3157,-2.3413,-2.3545,-2.3742,-2.3991,-2.4305,-2.4525,-2.4613,-2.5074,-2.5396,-2.5461,-2.5747,-2.5952,-2.5959,-2.601,-2.6076,-2.6039,-2.612,-2.6047,-2.5952,-2.5432,-2.5015,-2.4891,-2.4708,-2.4708,-2.4927,-2.5008,-2.4653,-2.4774,-2.4231,-2.2789,-2.0859,-2.0913,-2.0709,-1.8955,-1.8375,-1.828,-1.8275,-1.6994,-1.6093,-1.5653,-1.5364,-1.5061,-1.45,-1.4496,-1.4344,-3.0227,-3.01,-3.0084,-3.0005,-2.9838,-2.9663,-2.9472,-2.925,-2.8622,-2.8225,-2.8106,-2.8583,-2.8702,-2.8471,-2.7923,-2.7669,-2.7637,-2.6883,-2.6624,-2.6879,-2.6879,-2.6816,-2.6658,-2.6336,-2.6126,-2.589,-2.5365,-2.5206,-2.5349,-2.504,-2.477,-2.4571,-2.4221,-2.388,-2.3554,-2.3043,-2.2871,-2.2788,-2.2035,-2.1539,-2.1428,-2.1235,-2.1,-2.064,-2.0218,-1.9979,-1.9605,-1.9324,-1.9133,-1.9125,-1.9264,-1.9425,-1.9572,-1.9886,-2.0128,-2.0281,-2.0589,-2.0896,-2.1189,-2.1233,-2.1452,-2.192,-2.225,-2.2359,-2.2213,-2.2454,-2.2689,-2.2871,-2.3186,-2.3427,-2.3596,-2.391,-2.4181,-2.4335,-2.4781,-2.5081,-2.5132,-2.5491,-2.5791,-2.582,-2.6083,-2.6274,-2.6281,-2.6435,-2.6544,-2.6544,-2.6544,-2.6486,-2.631,-2.6047,-2.5769,-2.5608,-2.5454,-2.5344,-2.5322,-2.5315,-2.5242,-2.5096,-2.4502,-2.3591,-2.2096,-2.2153,-2.1481,-2.0449,-1.9387,-1.8815,-1.8902,-1.7439,-1.6374,-1.5922,-1.5687,-1.5359,-1.4766,-1.4483,-1.4305,-3.0505,-3.0442,-3.0442,-3.0394,-3.0299,-3.0044,-2.9735,-2.9425,-2.9409,-2.9218,-2.8956,-2.9179,-2.9147,-2.8813,-2.8027,-2.7685,-2.7526,-2.6557,-2.647,-2.7089,-2.7145,-2.7216,-2.7288,-2.7034,-2.6684,-2.6239,-2.5635,-2.5453,-2.558,-2.5286,-2.4976,-2.4682,-2.4349,-2.4031,-2.3785,-2.3618,-2.3403,-2.3149,-2.2601,-2.223,-2.223,-2.223,-2.2222,-2.2093,-2.1632,-2.1287,-2.1272,-2.07,-2.0457,-2.045,-2.045,-2.0457,-2.0472,-2.0691,-2.0837,-2.0859,-2.1145,-2.135,-2.1445,-2.173,-2.2015,-2.2264,-2.2564,-2.2725,-2.2732,-2.2725,-2.2835,-2.3098,-2.3391,-2.3618,-2.3764,-2.421,-2.462,-2.4781,-2.5213,-2.552,-2.5644,-2.5922,-2.6127,-2.6157,-2.6413,-2.661,-2.6661,-2.683,-2.6954,-2.6954,-2.6991,-2.6881,-2.6669,-2.661,-2.6493,-2.6288,-2.6069,-2.5725,-2.5483,-2.5396,-2.5322,-2.5154,-2.4514,-2.3789,-2.3213,-2.2365,-2.1648,-2.1317,-2.0405,-1.9875,-1.9726,-1.868,-1.7779,-1.7593,-1.7344,-1.6682,-1.5668,-1.4954,-1.4346,-3.1101,-3.0831,-3.0815,-3.0616,-3.0338,-3.0283,-3.0084,-2.9774,-2.9774,-2.9576,-2.925,-2.929,-2.9274,-2.925,-2.9115,-2.9036,-2.9036,-2.8956,-2.8734,-2.8535,-2.8575,-2.8265,-2.7733,-2.7645,-2.728,-2.666,-2.6231,-2.589,-2.5651,-2.5286,-2.5095,-2.5024,-2.4706,-2.4507,-2.4404,-2.3872,-2.353,-2.3491,-2.3067,-2.2788,-2.257,-2.257,-2.2456,-2.2108,-2.1866,-2.1623,-2.1601,-2.1365,-2.1115,-2.1123,-2.1101,-2.1108,-2.1108,-2.1145,-2.1167,-2.1174,-2.1474,-2.1774,-2.2074,-2.2367,-2.2535,-2.2601,-2.2871,-2.3047,-2.3047,-2.3054,-2.3069,-2.3171,-2.342,-2.3727,-2.4013,-2.4386,-2.4832,-2.5301,-2.5505,-2.5644,-2.5944,-2.6259,-2.6457,-2.6457,-2.672,-2.6939,-2.6917,-2.6961,-2.6991,-2.6991,-2.6991,-2.6969,-2.6917,-2.6888,-2.6859,-2.6698,-2.6193,-2.5564,-2.5293,-2.5118,-2.5308,-2.5461,-2.5375,-2.4875,-2.4309,-2.3928,-2.3536,-2.2753,-2.1946,-2.1546,-2.1546,-2.1305,-2.0867,-2.0061,-1.9854,-1.9637,-1.7744,-1.6012,-1.5125,-3.1308,-3.1172,-3.1172,-3.0974,-3.0656,-3.064,-3.0322,-2.9838,-2.9822,-2.9631,-2.9322,-2.9298,-2.9298,-2.9298,-2.9298,-2.9298,-2.9298,-2.9298,-2.9226,-2.9083,-2.9083,-2.8821,-2.8368,-2.8106,-2.7757,-2.7272,-2.6732,-2.6271,-2.5898,-2.5373,-2.5103,-2.5103,-2.496,-2.4793,-2.4579,-2.4301,-2.3967,-2.3554,-2.3395,-2.3115,-2.2933,-2.2796,-2.2796,-2.2683,-2.2351,-2.2124,-2.1888,-2.1668,-2.1439,-2.1211,-2.1211,-2.1211,-2.1211,-2.1211,-2.1298,-2.1489,-2.1803,-2.2118,-2.2418,-2.2557,-2.2703,-2.2893,-2.3032,-2.3106,-2.312,-2.3281,-2.3391,-2.3435,-2.3698,-2.402,-2.4357,-2.4832,-2.5249,-2.5535,-2.5857,-2.6157,-2.6281,-2.6596,-2.6793,-2.6808,-2.6903,-2.6991,-2.6991,-2.6991,-2.6991,-2.6991,-2.6991,-2.6991,-2.6991,-2.6991,-2.6903,-2.6705,-2.6332,-2.6105,-2.59,-2.5908,-2.5893,-2.5857,-2.5988,-2.5811,-2.547,-2.539,-2.5228,-2.4773,-2.3819,-2.3387,-2.351,-2.2571,-2.1873,-2.1684,-2.126,-2.046,-1.8407,-1.724,-1.6251,-3.1387,-3.1387,-3.1387,-3.1244,-3.1014,-3.1006,-3.0664,-3.0132,-3.0005,-2.9766,-2.9449,-2.9337,-2.9298,-2.9298,-2.9298,-2.9298,-2.9298,-2.9298,-2.9298,-2.9298,-2.9298,-2.9163,-2.89,-2.8646,-2.8344,-2.7947,-2.7304,-2.6636,-2.6025,-2.5413,-2.5103,-2.5103,-2.5103,-2.4984,-2.4738,-2.4642,-2.4333,-2.388,-2.3737,-2.3514,-2.3213,-2.3165,-2.3109,-2.303,-2.2796,-2.2456,-2.2116,-2.1979,-2.1636,-2.1211,-2.1379,-2.143,-2.135,-2.1423,-2.162,-2.192,-2.2169,-2.244,-2.2732,-2.2754,-2.2857,-2.3069,-2.3106,-2.3149,-2.3259,-2.3457,-2.372,-2.402,-2.4218,-2.4474,-2.4701,-2.5286,-2.5674,-2.5805,-2.6252,-2.6522,-2.6632,-2.6866,-2.6983,-2.6991,-2.6976,-2.6939,-2.6888,-2.6925,-2.6969,-2.6866,-2.6925,-2.6991,-2.6991,-2.6983,-2.6903,-2.6676,-2.6639,-2.6537,-2.6427,-2.6266,-2.6252,-2.6296,-2.6347,-2.6398,-2.6288,-2.6537,-2.6639,-2.577,-2.5209,-2.5063,-2.5222,-2.4248,-2.3368,-2.3201,-2.2626,-2.1585,-2.012,-1.8787,-1.7369,-3.1387,-3.1387,-3.1387,-3.1379,-3.1363,-3.1355,-3.1141,-3.072,-3.0426,-3.0108,-2.975,-2.9441,-2.9298,-2.9298,-2.9298,-2.9298,-2.9298,-2.9298,-2.9298,-2.9298,-2.9298,-2.929,-2.9282,-2.925,-2.9028,-2.8519,-2.7931,-2.6978,-2.5747,-2.531,-2.5103,-2.5103,-2.5103,-2.5095,-2.5016,-2.4754,-2.4571,-2.4444,-2.4174,-2.3864,-2.357,-2.3522,-2.3363,-2.3109,-2.2804,-2.2456,-2.2146,-2.2083,-2.1757,-2.1225,-2.1774,-2.1979,-2.1737,-2.1957,-2.225,-2.2513,-2.2586,-2.274,-2.3018,-2.3062,-2.3084,-2.3113,-2.3135,-2.3245,-2.3501,-2.3632,-2.4035,-2.4876,-2.4949,-2.5037,-2.5147,-2.5652,-2.6098,-2.6354,-2.6464,-2.6654,-2.6925,-2.6917,-2.6983,-2.6961,-2.6917,-2.6808,-2.6581,-2.6793,-2.6815,-2.672,-2.6815,-2.6991,-2.6991,-2.6991,-2.6961,-2.6947,-2.6896,-2.6757,-2.6215,-2.6266,-2.6339,-2.6405,-2.6552,-2.661,-2.6815,-2.6961,-2.6947,-2.6939,-2.6605,-2.6459,-2.6816,-2.6684,-2.6239,-2.5632,-2.4583,-2.3465,-2.1917,-1.9752,-1.8133,-3.1387,-3.1387,-3.1387,-3.1387,-3.1387,-3.1387,-3.1188,-3.0839,-3.0473,-3.014,-2.9798,-2.9449,-2.9298,-2.9298,-2.9298,-2.9298,-2.9298,-2.9298,-2.9298,-2.9298,-2.9298,-2.9171,-2.8996,-2.9179,-2.8853,-2.8186,-2.8058,-2.7328,-2.6057,-2.5612,-2.5326,-2.5135,-2.5103,-2.5103,-2.5087,-2.4984,-2.4817,-2.4595,-2.4444,-2.4221,-2.3904,-2.3872,-2.38,-2.3665,-2.313,-2.2562,-2.2108,-2.2321,-2.2094,-2.1525,-2.1957,-2.2125,-2.2052,-2.2293,-2.2498,-2.2623,-2.282,-2.2988,-2.3091,-2.3106,-2.3106,-2.312,-2.3303,-2.3457,-2.364,-2.3976,-2.4459,-2.4986,-2.5469,-2.5725,-2.5966,-2.62,-2.6376,-2.65,-2.6691,-2.683,-2.691,-2.6815,-2.6683,-2.6647,-2.6515,-2.6383,-2.6515,-2.661,-2.6713,-2.6815,-2.6917,-2.6976,-2.6991,-2.6991,-2.6991,-2.6991,-2.6983,-2.691,-2.6727,-2.6654,-2.6705,-2.6757,-2.6837,-2.6844,-2.6969,-2.6991,-2.6969,-2.6969,-2.6991,-2.6991,-2.6991,-2.6991,-2.6845,-2.6692,-2.5646,-2.475,-2.3536,-2.1291,-1.965,-3.1387,-3.1387,-3.1387,-3.1387,-3.1387,-3.1387,-3.126,-3.0998,-3.0648,-3.0299,-2.9965,-2.9615,-2.9409,-2.9306,-2.9298,-2.9298,-2.9298,-2.9298,-2.9298,-2.9298,-2.9298,-2.9171,-2.8996,-2.9067,-2.8765,-2.8122,-2.7915,-2.7272,-2.6231,-2.5802,-2.5461,-2.5127,-2.5103,-2.5103,-2.5103,-2.5103,-2.4968,-2.4785,-2.4754,-2.4571,-2.4269,-2.4221,-2.4158,-2.4007,-2.3594,-2.3063,-2.2414,-2.2704,-2.2583,-2.2031,-2.2191,-2.2484,-2.2506,-2.2667,-2.2776,-2.2798,-2.2981,-2.3106,-2.3106,-2.3106,-2.3149,-2.3259,-2.3464,-2.3654,-2.3896,-2.4415,-2.4891,-2.5352,-2.5835,-2.6281,-2.6435,-2.65,-2.6544,-2.6632,-2.6764,-2.683,-2.6815,-2.6537,-2.6376,-2.6339,-2.6303,-2.6274,-2.6347,-2.6544,-2.6698,-2.6844,-2.691,-2.6991,-2.6991,-2.6991,-2.6991,-2.6991,-2.6991,-2.6991,-2.6896,-2.6859,-2.6859,-2.6917,-2.6932,-2.6976,-2.6991,-2.6991,-2.6991,-2.6991,-2.6991,-2.6991,-2.6991,-2.6991,-2.6991,-2.6838,-2.6392,-2.5646,-2.4288,-2.2936,-2.0997,-3.1387,-3.1387,-3.1387,-3.1387,-3.1387,-3.1387,-3.1387,-3.1292,-3.0974,-3.0624,-3.0299,-2.9941,-2.9544,-2.9337,-2.9202,-2.9234,-2.9194,-2.9171,-2.9202,-2.9242,-2.9282,-2.925,-2.9147,-2.8964,-2.8797,-2.8559,-2.7693,-2.6883,-2.6207,-2.5898,-2.5556,-2.5199,-2.5159,-2.5151,-2.5111,-2.5103,-2.5103,-2.5063,-2.5048,-2.4905,-2.4627,-2.4587,-2.4452,-2.4166,-2.4078,-2.3794,-2.3154,-2.3349,-2.3141,-2.2393,-2.2701,-2.3076,-2.3032,-2.3062,-2.3084,-2.3069,-2.3106,-2.3106,-2.3113,-2.3128,-2.3288,-2.3501,-2.3618,-2.3925,-2.4393,-2.4825,-2.5293,-2.5827,-2.6193,-2.6471,-2.6471,-2.6464,-2.6559,-2.6866,-2.6647,-2.65,-2.6449,-2.6215,-2.601,-2.6039,-2.6171,-2.6325,-2.6259,-2.6522,-2.6786,-2.6713,-2.683,-2.6991,-2.6991,-2.6991,-2.6991,-2.6991,-2.6991,-2.6991,-2.6991,-2.6991,-2.6983,-2.6991,-2.6983,-2.6991,-2.6991,-2.6991,-2.6991,-2.6991,-2.6991,-2.6991,-2.6991,-2.6991,-2.6845,-2.6838,-2.6546,-2.6253,-2.5198,-2.3838,-2.2043,-3.1387,-3.1387,-3.1387,-3.1387,-3.1387,-3.1387,-3.1387,-3.1347,-3.1014,-3.0799,-3.0553,-2.9822,-2.9393,-2.9194,-2.8805,-2.8567,-2.8559,-2.8567,-2.8694,-2.8924,-2.9171,-2.9012,-2.871,-2.8948,-2.8869,-2.8336,-2.759,-2.697,-2.6565,-2.639,-2.6064,-2.558,-2.5461,-2.5342,-2.5119,-2.5103,-2.5103,-2.5103,-2.5103,-2.5048,-2.4952,-2.4944,-2.4873,-2.4801,-2.4778,-2.4619,-2.4182,-2.3739,-2.3376,-2.2804,-2.2943,-2.3106,-2.3106,-2.3106,-2.3106,-2.3106,-2.3106,-2.3106,-2.3142,-2.331,-2.3471,-2.3662,-2.3998,-2.432,-2.4591,-2.5081,-2.5557,-2.5959,-2.612,-2.6244,-2.6413,-2.6288,-2.623,-2.6303,-2.623,-2.6157,-2.6113,-2.5886,-2.571,-2.5688,-2.5769,-2.5952,-2.6281,-2.6625,-2.6735,-2.6822,-2.6925,-2.6991,-2.6991,-2.6969,-2.6991,-2.6991,-2.6991,-2.6939,-2.6917,-2.691,-2.6932,-2.6969,-2.6991,-2.6991,-2.6991,-2.6991,-2.6991,-2.6991,-2.6991,-2.6991,-2.6991,-2.6991,-2.6845,-2.6845,-2.6845,-2.6399,-2.5953,-2.4449,-2.2496,-3.1387,-3.1387,-3.1387,-3.1387,-3.1387,-3.1387,-3.1387,-3.1355,-3.1157,-3.0847,-3.0386,-2.9798,-2.9258,-2.8877,-2.8416,-2.8233,-2.8217,-2.8217,-2.8281,-2.8424,-2.8734,-2.8622,-2.8289,-2.8654,-2.8535,-2.7931,-2.7542,-2.7145,-2.6692,-2.6652,-2.6319,-2.5739,-2.5635,-2.5453,-2.5143,-2.5103,-2.5103,-2.5103,-2.5103,-2.5103,-2.5103,-2.5103,-2.5103,-2.5103,-2.5103,-2.5,-2.4785,-2.4275,-2.3726,-2.3315,-2.3177,-2.3098,-2.3106,-2.3106,-2.3106,-2.3106,-2.312,-2.3149,-2.3281,-2.3479,-2.3735,-2.3969,-2.4342,-2.4693,-2.4942,-2.544,-2.5835,-2.6127,-2.6215,-2.6237,-2.6259,-2.6032,-2.5813,-2.5666,-2.5776,-2.5769,-2.5688,-2.56,-2.5549,-2.56,-2.5776,-2.6076,-2.6376,-2.6647,-2.6749,-2.6954,-2.6991,-2.6991,-2.6969,-2.6874,-2.6844,-2.6764,-2.6617,-2.6639,-2.6778,-2.6822,-2.6859,-2.6925,-2.6991,-2.6991,-2.6991,-2.6991,-2.6991,-2.6991,-2.6991,-2.6991,-2.6991,-2.6991,-2.6991,-2.6991,-2.6991,-2.6692,-2.6093,-2.4294,-2.249,-3.1387,-3.1387,-3.1387,-3.1387,-3.1387,-3.1387,-3.1387,-3.1387,-3.1323,-3.0783,-3.0052,-2.9711,-2.9155,-2.8408,-2.8138,-2.8058,-2.8146,-2.8082,-2.7939,-2.786,-2.8035,-2.8146,-2.8241,-2.8265,-2.7955,-2.7486,-2.7542,-2.7312,-2.6787,-2.6756,-2.6366,-2.5842,-2.5739,-2.5508,-2.5246,-2.5135,-2.5103,-2.5103,-2.5103,-2.5103,-2.5103,-2.5103,-2.5103,-2.5103,-2.5103,-2.5095,-2.5063,-2.4671,-2.4178,-2.3604,-2.3214,-2.3106,-2.3106,-2.3106,-2.3106,-2.3106,-2.3106,-2.3274,-2.3501,-2.364,-2.3903,-2.4408,-2.4576,-2.4847,-2.5374,-2.5732,-2.6083,-2.6398,-2.6413,-2.631,-2.6054,-2.571,-2.5418,-2.5176,-2.5359,-2.5381,-2.5147,-2.5352,-2.5535,-2.5681,-2.6091,-2.6515,-2.6559,-2.68,-2.6925,-2.6983,-2.6991,-2.6983,-2.6866,-2.672,-2.6544,-2.6413,-2.6296,-2.6427,-2.6588,-2.6661,-2.6727,-2.6939,-2.6991,-2.6983,-2.6991,-2.6991,-2.6991,-2.6991,-2.6991,-2.6991,-2.6991,-2.6991,-2.6991,-2.6991,-2.6991,-2.6692,-2.5939,-2.4589,-2.3838,-3.1387,-3.1387,-3.1387,-3.1387,-3.1387,-3.1387,-3.1387,-3.1355,-3.1093,-3.0648,-3.0092,-2.9369,-2.875,-2.8193,-2.7685,-2.7471,-2.751,-2.7502,-2.7447,-2.7367,-2.7415,-2.778,-2.8074,-2.7971,-2.7772,-2.7566,-2.7439,-2.724,-2.7073,-2.7034,-2.6803,-2.6406,-2.6096,-2.5826,-2.5524,-2.523,-2.5111,-2.5103,-2.5103,-2.5103,-2.5103,-2.5103,-2.5103,-2.5103,-2.5103,-2.5103,-2.5103,-2.4734,-2.4332,-2.3623,-2.3303,-2.3106,-2.3106,-2.3106,-2.312,-2.3135,-2.3135,-2.3267,-2.3581,-2.383,-2.4152,-2.4525,-2.4781,-2.5096,-2.5483,-2.5827,-2.6157,-2.6383,-2.631,-2.612,-2.5952,-2.552,-2.5183,-2.5088,-2.5162,-2.5176,-2.5162,-2.533,-2.5615,-2.5879,-2.6266,-2.6574,-2.6793,-2.691,-2.6991,-2.6991,-2.6954,-2.6896,-2.6727,-2.6515,-2.6325,-2.6186,-2.6113,-2.6266,-2.6398,-2.6478,-2.6639,-2.691,-2.6983,-2.6976,-2.6983,-2.6991,-2.6991,-2.6991,-2.6991,-2.6991,-2.6991,-2.6991,-2.6991,-2.6991,-2.6991,-2.6845,-2.6838,-2.5932,-2.5485,-3.1387,-3.1387,-3.1387,-3.1387,-3.1371,-3.1228,-3.1172,-3.1069,-3.064,-3.0132,-2.9576,-2.8893,-2.8257,-2.7772,-2.7383,-2.7208,-2.72,-2.72,-2.7208,-2.7208,-2.7224,-2.7439,-2.7701,-2.7685,-2.7661,-2.7518,-2.7463,-2.7351,-2.7216,-2.72,-2.7002,-2.6644,-2.6327,-2.5969,-2.562,-2.5294,-2.5103,-2.5103,-2.5103,-2.5103,-2.5103,-2.5103,-2.5103,-2.5103,-2.5103,-2.5103,-2.5103,-2.4734,-2.4232,-2.3728,-2.3362,-2.3238,-2.3106,-2.3106,-2.3171,-2.3281,-2.3318,-2.3508,-2.3932,-2.4196,-2.443,-2.4723,-2.4971,-2.5279,-2.5644,-2.593,-2.6171,-2.6617,-2.6274,-2.6061,-2.5908,-2.5432,-2.511,-2.5059,-2.5059,-2.5118,-2.5235,-2.5549,-2.5864,-2.6179,-2.65,-2.6764,-2.6969,-2.6983,-2.6991,-2.6961,-2.683,-2.6713,-2.6544,-2.631,-2.6076,-2.59,-2.5783,-2.5857,-2.6083,-2.6222,-2.6383,-2.6669,-2.6771,-2.6793,-2.6896,-2.6925,-2.6991,-2.6991,-2.6991,-2.6991,-2.6991,-2.6991,-2.6991,-2.6991,-2.6991,-2.6991,-2.6845,-2.6538,-2.6392,-3.1387,-3.1387,-3.1355,-3.1339,-3.126,-3.0958,-3.0775,-3.0616,-3.0076,-2.9409,-2.8789,-2.8344,-2.7852,-2.7208,-2.724,-2.72,-2.72,-2.72,-2.72,-2.72,-2.72,-2.7272,-2.732,-2.7534,-2.7471,-2.732,-2.755,-2.7447,-2.7264,-2.72,-2.705,-2.674,-2.6374,-2.6025,-2.5707,-2.5334,-2.5127,-2.5103,-2.5103,-2.5103,-2.5103,-2.5103,-2.5103,-2.5103,-2.5103,-2.5103,-2.498,-2.4734,-2.4363,-2.3736,-2.3611,-2.3392,-2.3149,-2.3171,-2.3332,-2.3574,-2.3669,-2.3903,-2.4408,-2.4503,-2.4686,-2.4957,-2.5074,-2.5359,-2.5849,-2.6069,-2.6325,-2.6771,-2.6361,-2.601,-2.5761,-2.5337,-2.511,-2.5059,-2.5059,-2.5205,-2.5498,-2.582,-2.6127,-2.6427,-2.6735,-2.6954,-2.6954,-2.6969,-2.6976,-2.6808,-2.6669,-2.6486,-2.6252,-2.5959,-2.5732,-2.5527,-2.544,-2.5374,-2.5659,-2.5959,-2.6149,-2.6361,-2.642,-2.6493,-2.6691,-2.6786,-2.6932,-2.6991,-2.6991,-2.6991,-2.6991,-2.6991,-2.6976,-2.6991,-2.6991,-2.6991,-2.6991,-2.6392,-2.6093,-3.1387,-3.1371,-3.1093,-3.0982,-3.091,-3.0585,-3.0291,-3.0021,-2.9592,-2.8964,-2.8384,-2.7987,-2.7598,-2.72,-2.72,-2.72,-2.72,-2.72,-2.72,-2.72,-2.72,-2.72,-2.7208,-2.732,-2.728,-2.7232,-2.7264,-2.7272,-2.7208,-2.7193,-2.7169,-2.7018,-2.6454,-2.6112,-2.5953,-2.5405,-2.5103,-2.5103,-2.5103,-2.5103,-2.5103,-2.5103,-2.5103,-2.5103,-2.5103,-2.5103,-2.498,-2.4734,-2.4355,-2.4108,-2.3743,-2.3583,-2.3525,-2.3464,-2.3632,-2.3888,-2.3984,-2.4159,-2.4481,-2.4613,-2.4708,-2.5022,-2.5279,-2.5593,-2.5966,-2.6244,-2.6413,-2.6544,-2.6244,-2.5805,-2.5388,-2.5169,-2.5066,-2.5059,-2.5066,-2.5183,-2.5498,-2.5813,-2.6018,-2.6215,-2.6596,-2.6888,-2.6661,-2.683,-2.6793,-2.6647,-2.6449,-2.6252,-2.5966,-2.5644,-2.5454,-2.5279,-2.5242,-2.5235,-2.5513,-2.5783,-2.5944,-2.6083,-2.6127,-2.6215,-2.6405,-2.6588,-2.6713,-2.6859,-2.6991,-2.6961,-2.6822,-2.6932,-2.691,-2.6947,-2.6969,-2.6961,-2.6808,-2.6371,-2.61,-3.1141,-3.1101,-3.0759,-3.0608,-3.0529,-3.006,-2.9743,-2.9457,-2.8837,-2.836,-2.7987,-2.7637,-2.7375,-2.7216,-2.72,-2.72,-2.72,-2.72,-2.72,-2.72,-2.72,-2.72,-2.72,-2.72,-2.72,-2.72,-2.7208,-2.72,-2.72,-2.72,-2.72,-2.7145,-2.6493,-2.6168,-2.6041,-2.5461,-2.5143,-2.5103,-2.5103,-2.5103,-2.5103,-2.5103,-2.5103,-2.5103,-2.5103,-2.5103,-2.5103,-2.4734,-2.4487,-2.4115,-2.3743,-2.3628,-2.3657,-2.361,-2.383,-2.4218,-2.4313,-2.4466,-2.4708,-2.4803,-2.4883,-2.5037,-2.5352,-2.5666,-2.5937,-2.6193,-2.6347,-2.6347,-2.6069,-2.5571,-2.5132,-2.5059,-2.5059,-2.5059,-2.5059,-2.5198,-2.5469,-2.5688,-2.5871,-2.601,-2.631,-2.6383,-2.642,-2.6537,-2.6478,-2.6281,-2.6039,-2.5849,-2.5747,-2.5454,-2.5279,-2.5147,-2.5103,-2.5176,-2.5425,-2.563,-2.5747,-2.5842,-2.5886,-2.5981,-2.6127,-2.6303,-2.6478,-2.6581,-2.6661,-2.6596,-2.6515,-2.6661,-2.6764,-2.6727,-2.6735,-2.6837,-2.691,-2.6641,-2.667,-3.0775,-3.0743,-3.0394,-3.0211,-3.0068,-2.9496,-2.9147,-2.8893,-2.813,-2.7788,-2.7606,-2.7328,-2.7232,-2.72,-2.72,-2.72,-2.72,-2.72,-2.72,-2.72,-2.72,-2.72,-2.72,-2.72,-2.72,-2.72,-2.72,-2.72,-2.72,-2.72,-2.72,-2.7081,-2.6493,-2.6176,-2.5993,-2.5485,-2.5103,-2.5103,-2.5103,-2.5103,-2.5103,-2.5103,-2.5103,-2.5103,-2.5103,-2.5103,-2.498,-2.4734,-2.4487,-2.4115,-2.386,-2.3791,-2.3769,-2.3698,-2.3962,-2.4583,-2.4642,-2.4759,-2.4935,-2.5022,-2.5037,-2.5074,-2.5352,-2.5622,-2.5864,-2.5996,-2.6113,-2.6032,-2.5791,-2.5359,-2.5096,-2.5059,-2.5059,-2.5059,-2.5059,-2.5183,-2.5366,-2.5461,-2.5593,-2.5864,-2.6054,-2.6127,-2.6069,-2.6083,-2.601,-2.5915,-2.5674,-2.5483,-2.5396,-2.5308,-2.5162,-2.5088,-2.5066,-2.5059,-2.5279,-2.5366,-2.5498,-2.5557,-2.5608,-2.5681,-2.5769,-2.5798,-2.5922,-2.6164,-2.6222,-2.62,-2.623,-2.6339,-2.6413,-2.6427,-2.6471,-2.653,-2.6683,-2.6881,-2.6896,-3.041,-3.0378,-3.0044,-2.9743,-2.9425,-2.902,-2.8535,-2.8027,-2.782,-2.7558,-2.7312,-2.7224,-2.72,-2.72,-2.72,-2.72,-2.72,-2.72,-2.72,-2.72,-2.72,-2.72,-2.72,-2.72,-2.72,-2.72,-2.72,-2.72,-2.72,-2.72,-2.72,-2.7057,-2.6525,-2.6184,-2.5969,-2.55,-2.5143,-2.5111,-2.5103,-2.5103,-2.5103,-2.5103,-2.5103,-2.5103,-2.5103,-2.5103,-2.4988,-2.4734,-2.461,-2.4479,-2.4232,-2.4174,-2.4201,-2.4215,-2.4407,-2.4863,-2.5047,-2.5106,-2.518,-2.5172,-2.5052,-2.5125,-2.5322,-2.5498,-2.5666,-2.582,-2.5871,-2.5652,-2.5432,-2.5125,-2.5074,-2.5059,-2.5059,-2.5059,-2.5066,-2.5088,-2.5147,-2.5198,-2.5293,-2.5571,-2.5776,-2.5893,-2.5769,-2.5696,-2.5696,-2.5652,-2.5513,-2.533,-2.522,-2.5169,-2.5103,-2.5066,-2.5059,-2.5059,-2.511,-2.5132,-2.5198,-2.5235,-2.5271,-2.5271,-2.5308,-2.5227,-2.5337,-2.5681,-2.5915,-2.5988,-2.6025,-2.6032,-2.6069,-2.6098,-2.6149,-2.6208,-2.6427,-2.6617,-2.6617,-2.9957,-2.975,-2.9417,-2.9067,-2.8718,-2.8376,-2.805,-2.7733,-2.7542,-2.7367,-2.7248,-2.72,-2.72,-2.72,-2.72,-2.72,-2.72,-2.72,-2.72,-2.72,-2.72,-2.72,-2.72,-2.72,-2.72,-2.72,-2.72,-2.72,-2.72,-2.72,-2.72,-2.7089,-2.666,-2.6335,-2.6088,-2.5667,-2.5302,-2.5175,-2.5111,-2.5103,-2.5103,-2.5103,-2.5103,-2.5103,-2.5103,-2.5103,-2.498,-2.4734,-2.461,-2.4487,-2.4239,-2.4306,-2.447,-2.4691,-2.4815,-2.5241,-2.5495,-2.5464,-2.5285,-2.5204,-2.5137,-2.5052,-2.522,-2.5366,-2.5505,-2.5637,-2.5615,-2.5352,-2.5205,-2.5059,-2.5059,-2.5059,-2.5059,-2.5059,-2.5059,-2.5059,-2.5059,-2.5059,-2.5169,-2.5293,-2.5374,-2.5432,-2.5374,-2.5344,-2.5388,-2.5359,-2.5308,-2.5198,-2.5074,-2.5059,-2.5059,-2.5059,-2.5059,-2.5059,-2.5059,-2.5059,-2.5059,-2.5059,-2.5059,-2.5059,-2.5059,-2.5081,-2.5147,-2.5352,-2.5535,-2.5725,-2.563,-2.5579,-2.5674,-2.5761,-2.5798,-2.5886,-2.6164,-2.6325,-2.6318,-2.956,-2.9266,-2.8916,-2.8559,-2.8201,-2.7868,-2.7693,-2.7574,-2.7343,-2.7216,-2.72,-2.72,-2.72,-2.72,-2.72,-2.72,-2.72,-2.72,-2.72,-2.72,-2.72,-2.72,-2.72,-2.72,-2.72,-2.72,-2.72,-2.72,-2.72,-2.72,-2.72,-2.7097,-2.6843,-2.6557,-2.6247,-2.5826,-2.55,-2.5294,-2.5119,-2.5103,-2.5103,-2.5103,-2.5103,-2.5103,-2.5103,-2.5103,-2.5103,-2.4865,-2.4734,-2.461,-2.451,-2.4471,-2.4764,-2.496,-2.5267,-2.5574,-2.5863,-2.5816,-2.5674,-2.5286,-2.513,-2.5044,-2.5059,-2.5205,-2.533,-2.5388,-2.5337,-2.5118,-2.5059,-2.5059,-2.5059,-2.5059,-2.5059,-2.5059,-2.5059,-2.5059,-2.5059,-2.5059,-2.5059,-2.5103,-2.5059,-2.5088,-2.514,-2.5147,-2.522,-2.5227,-2.5176,-2.5169,-2.5059,-2.5059,-2.5059,-2.5059,-2.5059,-2.5059,-2.5059,-2.5059,-2.5059,-2.5059,-2.5059,-2.5059,-2.5059,-2.5066,-2.5132,-2.5191,-2.5264,-2.5403,-2.5264,-2.5213,-2.5344,-2.544,-2.544,-2.5571,-2.5842,-2.5988,-2.601,-2.9329,-2.9258,-2.89,-2.8559,-2.8178,-2.7844,-2.7542,-2.7288,-2.7224,-2.72,-2.72,-2.72,-2.72,-2.72,-2.72,-2.72,-2.72,-2.72,-2.72,-2.72,-2.72,-2.72,-2.72,-2.72,-2.72,-2.72,-2.72,-2.72,-2.72,-2.72,-2.72,-2.7129,-2.6907,-2.6636,-2.6501,-2.6057,-2.5635,-2.5524,-2.5262,-2.5103,-2.5103,-2.5103,-2.5103,-2.5103,-2.5103,-2.5103,-2.5103,-2.4988,-2.498,-2.498,-2.498,-2.5004,-2.5107,-2.5383,-2.5541,-2.5642,-2.5643,-2.5584,-2.5517,-2.5316,-2.5025,-2.4979,-2.5008,-2.5066,-2.5147,-2.5169,-2.514,-2.5088,-2.5059,-2.5059,-2.5059,-2.5059,-2.5059,-2.5059,-2.5059,-2.5059,-2.5059,-2.5059,-2.5059,-2.5059,-2.5059,-2.5059,-2.5088,-2.5074,-2.5066,-2.5066,-2.5059,-2.5059,-2.5059,-2.5059,-2.5059,-2.5059,-2.5059,-2.5059,-2.5059,-2.5059,-2.5059,-2.5059,-2.5059,-2.5059,-2.5059,-2.5059,-2.5059,-2.5118,-2.5169,-2.5183,-2.5147,-2.5132,-2.5132,-2.5162,-2.5235,-2.5359,-2.5527,-2.5622,-2.574,-2.8694,-2.8662,-2.8329,-2.7979,-2.7645,-2.7486,-2.7351,-2.7232,-2.72,-2.72,-2.72,-2.72,-2.72,-2.72,-2.72,-2.72,-2.72,-2.72,-2.72,-2.72,-2.72,-2.72,-2.72,-2.72,-2.72,-2.72,-2.72,-2.72,-2.72,-2.72,-2.72,-2.7177,-2.7034,-2.6851,-2.6724,-2.639,-2.6009,-2.5667,-2.531,-2.5119,-2.5103,-2.5103,-2.5103,-2.5103,-2.5103,-2.5103,-2.5103,-2.5103,-2.5103,-2.5103,-2.5103,-2.5103,-2.5191,-2.5421,-2.5643,-2.5573,-2.5579,-2.5527,-2.5302,-2.5218,-2.5056,-2.4937,-2.481,-2.4854,-2.4986,-2.5059,-2.5059,-2.5059,-2.5059,-2.5059,-2.5059,-2.5059,-2.5059,-2.5059,-2.5059,-2.5059,-2.5059,-2.5059,-2.5059,-2.5059,-2.5059,-2.5059,-2.5059,-2.5059,-2.5059,-2.5059,-2.5059,-2.5059,-2.5059,-2.5059,-2.5059,-2.5059,-2.5059,-2.5059,-2.5059,-2.5059,-2.5059,-2.5059,-2.5059,-2.5059,-2.5059,-2.5059,-2.5059,-2.5059,-2.5096,-2.5096,-2.5059,-2.5074,-2.5096,-2.5081,-2.5059,-2.5198,-2.5337,-2.5491,-2.56,-2.8019,-2.8074,-2.7836,-2.7574,-2.7328,-2.7248,-2.7208,-2.72,-2.72,-2.72,-2.72,-2.72,-2.72,-2.72,-2.72,-2.72,-2.72,-2.72,-2.72,-2.72,-2.72,-2.72,-2.72,-2.72,-2.72,-2.72,-2.72,-2.72,-2.72,-2.72,-2.72,-2.72,-2.7169,-2.705,-2.6859,-2.6621,-2.6303,-2.5667,-2.5405,-2.523,-2.5127,-2.5103,-2.5103,-2.5103,-2.5103,-2.5103,-2.5103,-2.5103,-2.5103,-2.5103,-2.5103,-2.5103,-2.5159,-2.531,-2.5445,-2.5439,-2.5459,-2.5404,-2.5359,-2.5121,-2.5084,-2.5063,-2.4834,-2.513,-2.5135,-2.5194,-2.5059,-2.5059,-2.5059,-2.5059,-2.5059,-2.5059,-2.5059,-2.5059,-2.5059,-2.5059,-2.5059,-2.5059,-2.5059,-2.5059,-2.5059,-2.5059,-2.5059,-2.5059,-2.5059,-2.5059,-2.5059,-2.5059,-2.5059,-2.5059,-2.5059,-2.5059,-2.5059,-2.5059,-2.5059,-2.5059,-2.5059,-2.5059,-2.5059,-2.5059,-2.5059,-2.5059,-2.5059,-2.5059,-2.5059,-2.5059,-2.5059,-2.5059,-2.5059,-2.5059,-2.5059,-2.5059,-2.5162,-2.5322,-2.541,-2.7471,-2.7764,-2.7733,-2.7701,-2.7637,-2.7335,-2.72,-2.72,-2.72,-2.72,-2.72,-2.72,-2.72,-2.72,-2.72,-2.72,-2.72,-2.72,-2.72,-2.72,-2.72,-2.72,-2.72,-2.72,-2.72,-2.72,-2.72,-2.72,-2.72,-2.72,-2.72,-2.72,-2.72,-2.7185,-2.7042,-2.6787,-2.6406,-2.5866,-2.5612,-2.5389,-2.5222,-2.5135,-2.5103,-2.5103,-2.5103,-2.5103,-2.5103,-2.5103,-2.5103,-2.5103,-2.5103,-2.5103,-2.5127,-2.5191,-2.5238,-2.5225,-2.5518,-2.5436,-2.5362,-2.5505,-2.5631,-2.5725,-2.5674,-2.551,-2.545,-2.5194,-2.5194,-2.5059,-2.5059,-2.5059,-2.5059,-2.5059,-2.5059,-2.5059,-2.5059,-2.5059,-2.5059,-2.5059,-2.5059,-2.5059,-2.5059,-2.5059,-2.5059,-2.5059,-2.5059,-2.5059,-2.5059,-2.5059,-2.5059,-2.5059,-2.5059,-2.5059,-2.5059,-2.5059,-2.5059,-2.5059,-2.5059,-2.5059,-2.5059,-2.5059,-2.5059,-2.5059,-2.5059,-2.5059,-2.5059,-2.5059,-2.5059,-2.5059,-2.5059,-2.5059,-2.5059,-2.5059,-2.5059,-2.5169,-2.5191,-2.728,-2.7399,-2.7407,-2.7407,-2.7399,-2.7256,-2.72,-2.72,-2.72,-2.72,-2.72,-2.72,-2.72,-2.72,-2.72,-2.72,-2.72,-2.72,-2.72,-2.72,-2.72,-2.72,-2.72,-2.72,-2.72,-2.72,-2.72,-2.72,-2.72,-2.72,-2.72,-2.72,-2.72,-2.72,-2.7081,-2.6891,-2.6533,-2.6247,-2.5866,-2.5548,-2.5453,-2.5199,-2.5103,-2.5103,-2.5103,-2.5103,-2.5103,-2.5103,-2.5103,-2.5103,-2.5103,-2.5103,-2.5103,-2.5103,-2.5119,-2.5175,-2.5408,-2.5612,-2.584,-2.5905,-2.5993,-2.6069,-2.6003,-2.5869,-2.5734,-2.5464,-2.5329,-2.5194,-2.5059,-2.5059,-2.5059,-2.5059,-2.5059,-2.5059,-2.5059,-2.5059,-2.5059,-2.5059,-2.5059,-2.5059,-2.5059,-2.5059,-2.5059,-2.5059,-2.5059,-2.5059,-2.5059,-2.5059,-2.5059,-2.5059,-2.5059,-2.5059,-2.5059,-2.5059,-2.5059,-2.5059,-2.5059,-2.5059,-2.5059,-2.5059,-2.5059,-2.5059,-2.5059,-2.5059,-2.5059,-2.5059,-2.5059,-2.5059,-2.5059,-2.5059,-2.5059,-2.5059,-2.5059,-2.5059,-2.5059,-2.72,-2.72,-2.72,-2.72,-2.72,-2.72,-2.72,-2.72,-2.72,-2.72,-2.72,-2.72,-2.72,-2.72,-2.72,-2.72,-2.72,-2.72,-2.72,-2.72,-2.72,-2.72,-2.72,-2.72,-2.72,-2.72,-2.72,-2.72,-2.72,-2.72,-2.72,-2.72,-2.72,-2.72,-2.7145,-2.6978,-2.6787,-2.6549,-2.6271,-2.5778,-2.5659,-2.5421,-2.5175,-2.5151,-2.5103,-2.5103,-2.5103,-2.5103,-2.5103,-2.5103,-2.5103,-2.5103,-2.5103,-2.5119,-2.5167,-2.5342,-2.5588,-2.5929,-2.6229,-2.6401,-2.6391,-2.654,-2.6398,-2.613,-2.6003,-2.5734,-2.5457,-2.5322,-2.5194,-2.5059,-2.5059,-2.5059,-2.5059,-2.5059,-2.5059,-2.5059,-2.5059,-2.5059,-2.5059,-2.5059,-2.5059,-2.5059,-2.5059,-2.5059,-2.5059,-2.5059,-2.5059,-2.5059,-2.5059,-2.5059,-2.5059,-2.5059,-2.5059,-2.5059,-2.5059,-2.5059,-2.5059,-2.5059,-2.5059,-2.5059,-2.5059,-2.5059,-2.5059,-2.5059,-2.5059,-2.5059,-2.5059,-2.5059,-2.5059,-2.5059,-2.5059,-2.5059,-2.5059,-2.5059,-2.5059,-2.7169,-2.72,-2.7185,-2.7177,-2.7169,-2.72,-2.72,-2.72,-2.72,-2.72,-2.72,-2.72,-2.72,-2.72,-2.72,-2.72,-2.72,-2.72,-2.72,-2.72,-2.72,-2.72,-2.72,-2.72,-2.72,-2.72,-2.72,-2.72,-2.72,-2.72,-2.72,-2.72,-2.72,-2.72,-2.72,-2.7193,-2.701,-2.6724,-2.6636,-2.6223,-2.5874,-2.5691,-2.5485,-2.5342,-2.5214,-2.5214,-2.5214,-2.5127,-2.5111,-2.5103,-2.5103,-2.5103,-2.5103,-2.5103,-2.5246,-2.5556,-2.5898,-2.6255,-2.6644,-2.701,-2.7035,-2.6934,-2.68,-2.6532,-2.6398,-2.613,-2.5599,-2.5322,-2.5187,-2.5059,-2.5059,-2.5059,-2.5059,-2.5059,-2.5059,-2.5059,-2.5059,-2.5059,-2.5059,-2.5059,-2.5059,-2.5059,-2.5059,-2.5059,-2.5059,-2.5059,-2.5059,-2.5059,-2.5059,-2.5059,-2.5059,-2.5059,-2.5059,-2.5059,-2.5059,-2.5059,-2.5059,-2.5059,-2.5059,-2.5059,-2.5059,-2.5059,-2.5059,-2.5066,-2.5059,-2.5059,-2.5059,-2.5059,-2.5059,-2.5059,-2.5059,-2.5059,-2.5059,-2.5059,-2.5059,-2.776,-2.7785,-2.7132,-2.6851,-2.6883,-2.7113,-2.72,-2.72,-2.72,-2.72,-2.72,-2.72,-2.72,-2.72,-2.72,-2.72,-2.72,-2.72,-2.72,-2.72,-2.72,-2.72,-2.72,-2.72,-2.72,-2.72,-2.72,-2.72,-2.72,-2.72,-2.72,-2.72,-2.72,-2.72,-2.72,-2.72,-2.7113,-2.6994,-2.6811,-2.6533,-2.6311,-2.6096,-2.5906,-2.5755,-2.5548,-2.5429,-2.5389,-2.5246,-2.5111,-2.5103,-2.5103,-2.5103,-2.5111,-2.5119,-2.5302,-2.5635,-2.5977,-2.643,-2.6835,-2.7169,-2.7193,-2.72,-2.7067,-2.68,-2.6406,-2.6138,-2.5734,-2.5464,-2.5187,-2.5059,-2.5059,-2.5059,-2.5059,-2.5059,-2.5059,-2.5059,-2.5059,-2.5059,-2.5059,-2.5059,-2.5059,-2.5059,-2.5059,-2.5059,-2.5059,-2.5059,-2.5059,-2.5059,-2.5059,-2.5059,-2.5059,-2.5059,-2.5059,-2.5059,-2.5066,-2.5118,-2.5132,-2.514,-2.5103,-2.5059,-2.5059,-2.5147,-2.5103,-2.5125,-2.5096,-2.5059,-2.5059,-2.5059,-2.5059,-2.5059,-2.5059,-2.5059,-2.5059,-2.5059,-2.5059,-2.8745,-2.8663,-2.8146,-2.788,-2.7706,-2.7382,-2.72,-2.72,-2.72,-2.72,-2.72,-2.72,-2.72,-2.72,-2.72,-2.72,-2.72,-2.72,-2.72,-2.72,-2.72,-2.72,-2.72,-2.72,-2.72,-2.72,-2.72,-2.72,-2.72,-2.72,-2.72,-2.72,-2.7193,-2.72,-2.72,-2.72,-2.7193,-2.7113,-2.6962,-2.6803,-2.6613,-2.6438,-2.6263,-2.6049,-2.5826,-2.562,-2.5532,-2.5357,-2.5111,-2.5119,-2.5119,-2.5111,-2.5127,-2.5254,-2.5445,-2.5794,-2.6295,-2.6724,-2.7073,-2.7185,-2.72,-2.72,-2.72,-2.6934,-2.654,-2.6272,-2.6003,-2.5599,-2.5194,-2.5059,-2.5059,-2.5059,-2.5059,-2.5059,-2.5059,-2.5059,-2.5059,-2.5059,-2.5059,-2.5059,-2.5059,-2.5059,-2.5059,-2.5059,-2.5059,-2.5059,-2.5059,-2.5059,-2.5059,-2.5059,-2.5059,-2.5059,-2.5059,-2.5059,-2.5125,-2.5227,-2.5235,-2.522,-2.5227,-2.5249,-2.5344,-2.5461,-2.533,-2.5176,-2.514,-2.5096,-2.5066,-2.5059,-2.5059,-2.5059,-2.5059,-2.5059,-2.5059,-2.5059,-2.5059,-3.0075,-3.0075,-2.997,-2.9847,-2.9609,-2.8093,-2.737,-2.7278,-2.7161,-2.7161,-2.7169,-2.7169,-2.72,-2.72,-2.72,-2.72,-2.72,-2.72,-2.72,-2.72,-2.72,-2.72,-2.72,-2.72,-2.72,-2.72,-2.7185,-2.7161,-2.7177,-2.6994,-2.701,-2.7137,-2.7097,-2.7137,-2.7169,-2.72,-2.72,-2.7169,-2.7137,-2.6978,-2.6819,-2.6724,-2.6565,-2.6342,-2.6064,-2.5882,-2.5739,-2.5516,-2.5294,-2.5206,-2.5167,-2.5135,-2.5222,-2.5445,-2.5778,-2.6223,-2.6795,-2.7057,-2.7177,-2.72,-2.72,-2.72,-2.72,-2.7208,-2.6808,-2.6272,-2.5869,-2.5599,-2.5322,-2.5194,-2.5059,-2.5059,-2.5059,-2.5059,-2.5059,-2.5059,-2.5059,-2.5059,-2.5059,-2.5059,-2.5059,-2.5059,-2.5059,-2.5059,-2.5059,-2.5059,-2.5059,-2.5059,-2.5059,-2.5059,-2.5059,-2.5059,-2.5059,-2.5059,-2.514,-2.522,-2.5337,-2.5322,-2.5564,-2.563,-2.5725,-2.5747,-2.5622,-2.5461,-2.5235,-2.5162,-2.5205,-2.5154,-2.5059,-2.5059,-2.5059,-2.5059,-2.5059,-2.5059,-2.5059,-3.0591,-3.0491,-2.9795,-2.955,-2.9501,-2.9243,-2.8706,-2.7855,-2.7206,-2.6827,-2.6835,-2.7097,-2.7121,-2.72,-2.72,-2.7177,-2.7177,-2.72,-2.72,-2.7185,-2.7121,-2.7177,-2.7177,-2.7153,-2.7185,-2.7169,-2.7137,-2.701,-2.6795,-2.6644,-2.666,-2.6779,-2.6827,-2.6946,-2.7081,-2.7193,-2.7177,-2.7185,-2.7177,-2.7121,-2.7057,-2.7002,-2.6899,-2.6748,-2.6462,-2.6311,-2.6199,-2.5945,-2.5723,-2.55,-2.5485,-2.5413,-2.5135,-2.5453,-2.5842,-2.6478,-2.6922,-2.72,-2.72,-2.72,-2.72,-2.72,-2.72,-2.6808,-2.654,-2.6138,-2.5734,-2.5599,-2.5322,-2.5194,-2.5059,-2.5059,-2.5059,-2.5059,-2.5059,-2.5059,-2.5059,-2.5059,-2.5059,-2.5059,-2.5059,-2.5059,-2.5059,-2.5059,-2.5059,-2.5059,-2.5059,-2.5059,-2.5059,-2.5059,-2.5059,-2.5059,-2.5059,-2.5059,-2.5074,-2.514,-2.5315,-2.5469,-2.5732,-2.5952,-2.601,-2.5996,-2.5915,-2.5732,-2.5476,-2.5403,-2.5418,-2.5293,-2.5074,-2.5059,-2.5059,-2.5059,-2.5059,-2.5059,-2.5059,-3.1526,-3.145,-3.0966,-3.0709,-3.0629,-3.0379,-2.9887,-2.9011,-2.7875,-2.7221,-2.7246,-2.6929,-2.6787,-2.6748,-2.674,-2.6748,-2.674,-2.6716,-2.6716,-2.674,-2.6938,-2.6835,-2.6851,-2.6914,-2.6859,-2.6859,-2.6771,-2.6613,-2.643,-2.6319,-2.6311,-2.6446,-2.647,-2.6597,-2.6732,-2.6851,-2.697,-2.7034,-2.7097,-2.7177,-2.72,-2.72,-2.72,-2.7137,-2.6859,-2.6732,-2.6652,-2.635,-2.6009,-2.5755,-2.5715,-2.5588,-2.5349,-2.5556,-2.6033,-2.6621,-2.6986,-2.7161,-2.72,-2.72,-2.72,-2.72,-2.7067,-2.68,-2.654,-2.6138,-2.5734,-2.5457,-2.5194,-2.5059,-2.5059,-2.5059,-2.5059,-2.5059,-2.5059,-2.5059,-2.5059,-2.5059,-2.5059,-2.5059,-2.5059,-2.5059,-2.5059,-2.5059,-2.5059,-2.5059,-2.5059,-2.5059,-2.5059,-2.5059,-2.5059,-2.5059,-2.5059,-2.5059,-2.5074,-2.5147,-2.541,-2.5674,-2.5996,-2.6179,-2.6266,-2.6259,-2.6171,-2.5959,-2.5703,-2.563,-2.5557,-2.5264,-2.5059,-2.5059,-2.5059,-2.5059,-2.5059,-2.5059,-2.5059,-3.2612,-3.2612,-3.2727,-3.2529,-3.2498,-3.147,-3.0889,-3.0547,-2.8843,-2.8066,-2.7714,-2.6902,-2.648,-2.6432,-2.6303,-2.6279,-2.6311,-2.6319,-2.6335,-2.6168,-2.6501,-2.6517,-2.6438,-2.6454,-2.6501,-2.6279,-2.6176,-2.6279,-2.6136,-2.5985,-2.5921,-2.6096,-2.6104,-2.6192,-2.6335,-2.6525,-2.6636,-2.6676,-2.6914,-2.7097,-2.7185,-2.72,-2.7193,-2.7145,-2.6946,-2.674,-2.6668,-2.6414,-2.6057,-2.5929,-2.5882,-2.5826,-2.5707,-2.5659,-2.6176,-2.6549,-2.6883,-2.7026,-2.7105,-2.7145,-2.7193,-2.7067,-2.6941,-2.68,-2.6532,-2.6272,-2.5869,-2.5734,-2.5464,-2.5329,-2.5329,-2.5329,-2.5464,-2.5329,-2.5194,-2.5194,-2.5059,-2.5059,-2.5059,-2.5059,-2.5059,-2.5059,-2.5059,-2.5059,-2.5059,-2.5059,-2.5059,-2.5059,-2.5059,-2.5059,-2.5059,-2.5059,-2.5059,-2.5066,-2.5088,-2.522,-2.5557,-2.5864,-2.6157,-2.6478,-2.661,-2.6552,-2.6435,-2.6274,-2.6113,-2.5805,-2.5622,-2.5381,-2.5176,-2.5059,-2.5059,-2.5059,-2.5059,-2.5059,-2.5059,-3.2727,-3.2727,-3.2727,-3.2727,-3.2612,-3.2373,-3.1652,-3.0713,-2.9342,-2.8315,-2.7723,-2.7487,-2.698,-2.6184,-2.6049,-2.6049,-2.6072,-2.5993,-2.6112,-2.6104,-2.6231,-2.6184,-2.6128,-2.6176,-2.6184,-2.6184,-2.6112,-2.5945,-2.5763,-2.5588,-2.5524,-2.5739,-2.5763,-2.5834,-2.6033,-2.6223,-2.6279,-2.6303,-2.6605,-2.693,-2.7129,-2.7185,-2.7193,-2.7177,-2.7057,-2.701,-2.697,-2.6938,-2.6525,-2.6231,-2.6406,-2.6271,-2.5969,-2.5842,-2.5945,-2.6255,-2.6621,-2.6803,-2.6922,-2.7057,-2.7185,-2.72,-2.7067,-2.6934,-2.6666,-2.6272,-2.6138,-2.6003,-2.5869,-2.5734,-2.5599,-2.5734,-2.5734,-2.5464,-2.5329,-2.5194,-2.5187,-2.5059,-2.5059,-2.5059,-2.5059,-2.5059,-2.5059,-2.5059,-2.5059,-2.5059,-2.5059,-2.5059,-2.5059,-2.5059,-2.5059,-2.5059,-2.5059,-2.5066,-2.5096,-2.5249,-2.5571,-2.5849,-2.612,-2.65,-2.691,-2.6822,-2.6691,-2.6691,-2.6559,-2.6193,-2.5857,-2.5615,-2.5418,-2.522,-2.5059,-2.5059,-2.5059,-2.5059,-2.5059,-3.2727,-3.2727,-3.2727,-3.2727,-3.2727,-3.2727,-3.2258,-3.1536,-3.0344,-2.9158,-2.793,-2.7173,-2.6295,-2.5691,-2.5683,-2.5723,-2.5715,-2.5667,-2.562,-2.5675,-2.585,-2.5778,-2.5794,-2.585,-2.5739,-2.5739,-2.5683,-2.5532,-2.5405,-2.5294,-2.5278,-2.5405,-2.5437,-2.5516,-2.5731,-2.581,-2.5914,-2.5937,-2.6263,-2.6613,-2.6962,-2.7081,-2.7185,-2.72,-2.7193,-2.7137,-2.6986,-2.693,-2.6541,-2.6064,-2.5937,-2.612,-2.5914,-2.5826,-2.5763,-2.6009,-2.6342,-2.6676,-2.6764,-2.6946,-2.7177,-2.72,-2.72,-2.7067,-2.7067,-2.6674,-2.6406,-2.6272,-2.6003,-2.5869,-2.5876,-2.5876,-2.5869,-2.5734,-2.5734,-2.5734,-2.5464,-2.5194,-2.5194,-2.5059,-2.5059,-2.5059,-2.5059,-2.5059,-2.5059,-2.5059,-2.5059,-2.5059,-2.5059,-2.5059,-2.5059,-2.5059,-2.5059,-2.5066,-2.5081,-2.5271,-2.5557,-2.582,-2.6105,-2.6508,-2.6896,-2.6954,-2.6954,-2.6874,-2.6735,-2.6471,-2.6157,-2.5849,-2.56,-2.5388,-2.5205,-2.5059,-2.5059,-2.5059,-2.5059,-3.2664,-3.2716,-3.2727,-3.2727,-3.2727,-3.2727,-3.2383,-3.1893,-3.0937,-2.963,-2.8002,-2.5986,-2.5226,-2.5111,-2.5111,-2.5111,-2.5159,-2.5286,-2.5206,-2.527,-2.5469,-2.5437,-2.5421,-2.5413,-2.5373,-2.5302,-2.5238,-2.5222,-2.5167,-2.5111,-2.5111,-2.5103,-2.5103,-2.5119,-2.5206,-2.5365,-2.5564,-2.5651,-2.5906,-2.6255,-2.6605,-2.6946,-2.7089,-2.7161,-2.7137,-2.6978,-2.6771,-2.6525,-2.6231,-2.5842,-2.5469,-2.5635,-2.5755,-2.5683,-2.5564,-2.5707,-2.6184,-2.6462,-2.6644,-2.6946,-2.7113,-2.72,-2.72,-2.72,-2.7208,-2.7075,-2.6674,-2.654,-2.6264,-2.6272,-2.6272,-2.6272,-2.6272,-2.6003,-2.6003,-2.6003,-2.5734,-2.5464,-2.5329,-2.5194,-2.5194,-2.5194,-2.5059,-2.5059,-2.5059,-2.5059,-2.5059,-2.5059,-2.5059,-2.5059,-2.5059,-2.5059,-2.5059,-2.5066,-2.5074,-2.5322,-2.56,-2.59,-2.6208,-2.6574,-2.6866,-2.6947,-2.6983,-2.6947,-2.6786,-2.661,-2.6332,-2.601,-2.5776,-2.5535,-2.5257,-2.5066,-2.5059,-2.5059,-2.5059,-3.2395,-3.2727,-3.2727,-3.2727,-3.2727,-3.2727,-3.1536,-2.9757,-2.9512,-2.7966,-2.6424,-2.5709,-2.5103,-2.5103,-2.5103,-2.5103,-2.5103,-2.5103,-2.5103,-2.5159,-2.5238,-2.5175,-2.5159,-2.5238,-2.5167,-2.5127,-2.5103,-2.5103,-2.5103,-2.5103,-2.5103,-2.5103,-2.5103,-2.5103,-2.5119,-2.523,-2.5278,-2.5373,-2.5572,-2.5898,-2.6231,-2.6581,-2.6922,-2.697,-2.6914,-2.6787,-2.6621,-2.639,-2.6049,-2.5675,-2.5349,-2.5437,-2.55,-2.5492,-2.5326,-2.5429,-2.5914,-2.6207,-2.6446,-2.6843,-2.7034,-2.72,-2.72,-2.72,-2.72,-2.72,-2.6934,-2.6934,-2.68,-2.6666,-2.6666,-2.68,-2.68,-2.6406,-2.6138,-2.6138,-2.6003,-2.5734,-2.5599,-2.5464,-2.5329,-2.5194,-2.5194,-2.5194,-2.5059,-2.5059,-2.5059,-2.5059,-2.5059,-2.5059,-2.5059,-2.5059,-2.5059,-2.5059,-2.5074,-2.5396,-2.5688,-2.5988,-2.6303,-2.6654,-2.6888,-2.6961,-2.6976,-2.6961,-2.6925,-2.68,-2.6493,-2.6186,-2.5886,-2.5622,-2.5279,-2.5074,-2.5066,-2.5059,-2.5059]},{"header":{"parameterUnit":"m.s-1","parameterCategory":1,"la1":31.0,"la2":29.5877,"lo1":-88.7671,"lo2":-86.6584,"dy":0.0162,"dx":0.0185,"nx":115,"ny":88,"refTime":"2024-06-20T12:00:00:Z","depth":0,"parameterNumber":3,"parameterNumberName":"V-component_of_WINDS"},"data":[0.0,0.0,0.0,0.0,0.0,0.0,0.0,0.0,0.0,0.0,0.0,0.0,0.0,0.0,0.0,0.0,0.0,0.0,0.0,0.0,0.0,0.0,0.0,0.0,0.0,0.0,0.0,0.0,0.0,0.0,0.0,0.0,0.0,0.0,0.0,0.0,0.0,0.0,0.0,0.0,0.0,0.0,0.0,0.0,0.0,0.0,0.0,0.0,0.0,0.0,0.0,0.0,0.0,0.0,0.0,0.0,0.0,0.0,0.0,0.0,0.0,0.0,0.0,0.0,0.0,0.0,0.0,0.0,0.0,0.0,0.0,0.0,0.0,0.0,0.0,0.0,0.0,0.0,0.0,0.0,0.0,0.0,0.0,0.0,0.0,0.0,0.0,0.0,0.0,0.0,0.0,0.0,0.0,0.0,0.0,0.0,0.0,0.0,0.0,0.0,0.0,0.0,0.0,0.0,0.0,0.0,0.0,0.0,0.0,0.0,0.0,0.0,0.0,0.0,0.0,0.0,0.0,0.0,0.0,0.0,0.0,0.0,0.0,0.0,0.0,0.0,0.0,0.0,0.0,0.0,0.0,0.0,0.0,0.0,0.0,0.0,0.0,0.0,0.0,0.0,0.0,0.0,0.0,0.0,0.0,0.0,0.0,0.0,0.0,0.0,0.0,0.0,0.0,0.0,0.0,0.0,0.0,0.0,0.0,0.0,0.0,0.0,0.0,0.0,0.0,0.0,0.0,0.0,0.0,0.0,0.0,0.0,0.0,0.0,0.0,0.0,0.0,0.0,0.0,0.0,0.0,0.0,0.0,0.0,0.0,0.0,0.0,0.0,0.0,0.0,0.0,0.0,0.0,0.0,0.0,0.0,0.0,0.0,0.0,0.0,0.0,0.0,0.0,0.0,0.0,0.0,0.0,0.0,0.0,0.0,0.0,0.0,0.0,0.0,0.0,0.0,0.0,0.0,0.0,0.0,0.0,0.0,0.0,0.0,0.0,0.0,0.0,0.0,0.0,0.0,0.0,0.0,0.0,0.0,0.0,0.0,0.0,0.0,0.0,0.0,0.0,0.0,0.0,0.0,0.0,0.0,0.0,0.0,0.0,0.0,0.0,0.0,0.0,0.0,0.0,0.0,0.0,0.0,0.0,0.0,0.0,0.0,0.0,0.0,0.0,0.0,0.0,0.0,0.0,0.0,0.0,0.0,0.0,0.0,0.0,0.0,0.0,0.0,0.0,0.0,0.0,0.0,0.0,0.0,0.0,0.0,0.0,0.0,0.0,0.0,0.0,0.0,0.0,0.0,0.0,0.0,0.0,0.0,0.0,0.0,0.0,0.0,0.0,0.0,0.0,0.0,0.0,0.0,0.0,0.0,0.0,0.0,0.0,0.0,0.0,0.0,0.0,0.0,0.0,0.0,0.0,0.0,0.0,0.0,0.0,0.0,0.0,0.0,0.0,0.0,0.0,0.0,0.0,0.0,0.0,0.0,0.0,0.0,0.0,0.0,0.0,0.0,0.0,0.0,0.0,0.0,0.0,0.0,0.0,0.0,0.0,0.0,0.0,0.0,0.0,0.0,0.0,0.0,0.0,0.0,0.0,0.0,0.0,0.0,0.0,0.0,0.0,0.0,0.0,0.0,0.0,0.0,0.0,0.0,0.0,0.0,0.0,0.0,0.0,0.0,0.0,0.0,0.0,0.0,0.0,0.0,0.0,0.0,0.0,0.0,0.0,0.0,0.0,0.0,0.0,0.0,0.0,0.0,0.0,0.0,0.0,0.0,0.0,0.0,0.0,0.0,0.0,0.0,0.0,0.0,0.0,0.0,0.0,0.0,0.0,0.0,0.0,0.0,0.0,0.0,0.0,0.0,0.0,0.0,0.0,0.0,0.0,0.0,0.0,0.0,0.0,0.0,0.0,0.0,0.0,0.0,0.0,0.0,0.0,0.0,0.0,0.0,0.0,0.0,0.0,0.0,0.0,0.0,0.0,0.0,0.0,0.0,0.0,0.0,0.0,0.0,0.0,0.0,0.0,0.0,0.0,0.0,0.0,0.0,0.0,0.0,0.0,0.0,0.0,0.0,0.0,0.0,0.0,0.0,0.0,0.0,0.0,0.0,0.0,0.0,0.0,0.0,0.0,0.0,0.0,0.0,0.0,0.0,0.0,0.0,0.0,0.0,0.0,0.0,0.0,0.0,0.0,0.0,0.0,0.0,0.0,0.0,0.0,0.0,0.0,0.0,0.0,0.0,0.0,0.0,0.0,0.0,0.0,0.0,0.0,0.0,0.0,0.0,0.0,0.0,0.0,0.0,0.0,0.0,0.0,0.0,0.0,0.0,0.0,0.0,0.0,0.0,0.0,0.0,0.0,0.0,0.0,0.0,0.0,0.0,0.0,0.0,0.0,0.0,0.0,0.0,0.0,0.0,0.0,0.0,0.0,0.0,0.0,0.0,0.0,0.0,0.0,0.0,0.0,0.0,0.0,0.0,0.0,0.0,0.0,0.0,0.0,0.0,0.0,0.0,0.0,0.0,0.0,0.0,0.0,0.0,0.0,0.0,0.0,0.0,0.0,0.0,0.0,0.0,0.0,0.0,0.0,0.0,0.0,0.0,0.0,0.0,0.0,0.0,0.0,0.0,0.0,0.0,0.0,0.0,0.0,0.0,0.0,0.0,0.0,0.0,0.0,0.0,0.0,0.0,0.0,0.0,0.0,0.0,0.0,0.0,0.0,0.0,0.0,0.0,0.0,0.0,0.0,0.0,0.0,0.0,0.0,0.0,0.0,0.0,0.0,0.0,0.0,0.0,0.0,0.0,0.0,0.0,0.0,0.0,0.0,0.0,0.0,0.0,0.0,0.0,0.0,0.0,0.0,0.0,0.0,0.0,0.0,0.0,0.0,0.0,0.0,0.0,0.0,0.0,0.0,0.0,0.0,0.0,0.0,0.0,0.0,0.0,0.0,0.0,0.0,0.0,0.0,0.0,0.0,0.0,0.0,0.0,0.0,0.0,0.0,0.0,0.0,0.0,0.0,0.0,0.0,0.0,0.0,0.0,0.0,0.0,0.0,0.0,0.0,0.0,0.0,0.0,0.0,0.0,0.0,0.0,0.0,0.0,0.0,0.0,0.0,0.0,0.0,0.0,0.0,0.0,0.0,0.0,0.0,0.0,0.0,0.0,0.0,0.0,0.0,0.0,0.0,0.0,0.0,0.0,0.0,0.0,0.0,0.0,0.0,0.0,0.0,0.0,0.0,0.0,0.0,0.0,0.0,0.0,0.0,0.0,0.0,0.0,0.0,0.0,0.0,0.0,0.0,0.0,0.0,0.0,0.0,0.0,0.0,0.0,0.0,0.0,0.0,0.0,0.0,0.0,0.0,0.0,0.0,0.0,0.0,0.0,0.0,0.0,0.0,0.0,0.0,0.0,0.0,0.0,0.0,0.0,0.0,0.0,0.0,0.0,0.0,0.0,0.0,0.0,0.0,0.0,0.0,0.0,0.0,0.0,0.0,0.0,0.0,0.0,0.0,0.0,0.0,0.0,0.0,0.0,0.0,0.0,0.0,0.0,0.0,0.0,0.0,0.0,0.0,0.0,0.0,0.0,0.0,0.0,0.0,0.0,0.0,0.0,0.0,0.0,0.0,0.0,0.0,0.0,0.0,0.0,0.0,0.0,0.0,0.0,0.0,0.0,0.0,0.0,0.0,0.0,0.0,0.0,0.0,0.0,0.0,0.0,0.0,0.0,0.0,0.0,0.0,0.0,0.0,0.0,0.0,0.0,0.0,0.0,0.0,0.0,0.0,0.0,0.0,0.0,0.0,0.0,0.0,0.0,0.0,0.0,0.0,0.0,0.0,0.0,0.0,0.0,0.0,0.0,0.0,0.0,0.0,0.0,0.0,0.0,0.0,0.0,0.0,0.0,0.0,0.0,0.0,0.0,0.0,0.0,0.0,0.0,0.0,0.0,0.0,0.0,0.0,0.0,0.0,0.0,0.0,0.0,0.0,0.0,0.0,0.0,0.0,0.0,0.0,0.0,0.0,0.0,0.0,0.0,0.0,0.0,0.0,0.0,0.0,0.0,0.0,0.0,0.0,0.0,0.0,0.0,0.0,0.0,0.0,0.0,0.0,0.0,0.0,0.0,0.0,0.0,0.0,0.0,0.0,0.0,0.0,0.0,0.0,0.0,0.0,0.0,0.0,0.0,0.0,0.0,0.0,0.0,0.0,0.0,0.0,0.0,0.0,0.0,0.0,0.0,0.0,0.0,0.0,0.0,-1.5327,0.0,0.0,0.0,0.0,0.0,0.0,0.0,0.0,0.0,0.0,0.0,0.0,0.0,0.0,0.0,0.0,0.0,0.0,0.0,0.0,0.0,0.0,0.0,0.0,0.0,0.0,0.0,0.0,0.0,0.0,0.0,0.0,0.0,0.0,0.0,0.0,0.0,0.0,0.0,0.0,0.0,0.0,0.0,0.0,0.0,0.0,0.0,0.0,0.0,0.0,0.0,0.0,0.0,0.0,0.0,0.0,0.0,0.0,0.0,0.0,0.0,0.0,0.0,0.0,0.0,0.0,0.0,0.0,0.0,0.0,0.0,0.0,0.0,0.0,0.0,0.0,0.0,0.0,0.0,0.0,0.0,0.0,0.0,0.0,0.0,0.0,0.0,0.0,0.0,0.0,0.0,0.0,0.0,0.0,0.0,0.0,0.0,0.0,0.0,0.0,0.0,0.0,0.0,0.0,0.0,0.0,0.0,0.0,0.0,0.0,-1.7396,-1.6967,-1.6576,-1.6041,-1.536,0.0,0.0,0.0,0.0,0.0,0.0,0.0,0.0,0.0,0.0,0.0,0.0,0.0,0.0,0.0,0.0,0.0,0.0,0.0,0.0,0.0,0.0,0.0,0.0,0.0,0.0,0.0,0.0,0.0,0.0,0.0,0.0,0.0,0.0,0.0,0.0,0.0,0.0,0.0,0.0,0.0,0.0,0.0,0.0,0.0,0.0,0.0,0.0,0.0,0.0,0.0,0.0,0.0,0.0,0.0,0.0,0.0,0.0,0.0,0.0,0.0,0.0,0.0,0.0,0.0,0.0,0.0,0.0,0.0,0.0,0.0,0.0,0.0,0.0,0.0,0.0,0.0,0.0,0.0,0.0,0.0,0.0,0.0,0.0,0.0,0.0,0.0,0.0,0.0,0.0,0.0,0.0,0.0,0.0,0.0,0.0,0.0,0.0,0.0,0.0,0.0,0.0,0.0,0.0,0.0,0.0,0.0,0.0,0.0,0.0,0.0,0.0,-1.7218,-1.6861,-1.6165,0.0,0.0,0.0,0.0,0.0,0.0,0.0,0.0,0.0,0.0,0.0,0.0,0.0,0.0,0.0,0.0,0.0,0.0,0.0,0.0,0.0,0.0,0.0,0.0,0.0,0.0,0.0,0.0,0.0,0.0,0.0,0.0,0.0,0.0,0.0,0.0,0.0,0.0,0.0,0.0,0.0,0.0,0.0,0.0,0.0,0.0,0.0,0.0,0.0,0.0,0.0,0.0,0.0,0.0,0.0,0.0,0.0,0.0,0.0,0.0,0.0,0.0,0.0,0.0,0.0,0.0,0.0,0.0,0.0,0.0,0.0,0.0,0.0,0.0,0.0,0.0,0.0,0.0,0.0,0.0,0.0,0.0,0.0,0.0,0.0,0.0,0.0,0.0,0.0,0.0,0.0,0.0,0.0,0.0,0.0,0.0,0.0,0.0,0.0,0.0,0.0,0.0,0.0,0.0,0.0,0.0,0.0,0.0,0.0,0.0,-1.7521,-1.9591,-1.9645,0.0,-1.8574,0.0,0.0,0.0,0.0,0.0,0.0,0.0,0.0,0.0,0.0,0.0,0.0,0.0,0.0,0.0,0.0,0.0,0.0,0.0,0.0,0.0,0.0,0.0,0.0,0.0,0.0,0.0,0.0,0.0,0.0,0.0,0.0,0.0,0.0,0.0,0.0,0.0,0.0,0.0,0.0,0.0,0.0,0.0,0.0,0.0,0.0,0.0,0.0,0.0,0.0,0.0,0.0,0.0,0.0,0.0,0.0,0.0,0.0,0.0,0.0,0.0,0.0,0.0,0.0,0.0,0.0,0.0,0.0,0.0,0.0,0.0,0.0,0.0,0.0,0.0,0.0,0.0,0.0,0.0,0.0,0.0,0.0,0.0,0.0,0.0,0.0,0.0,0.0,0.0,0.0,0.0,0.0,0.0,0.0,0.0,0.0,0.0,0.0,0.0,0.0,0.0,0.0,0.0,0.0,0.0,0.0,0.0,0.0,0.0,0.0,0.0,-1.8556,-1.8592,-1.8646,0.0,0.0,0.0,0.0,0.0,0.0,0.0,0.0,0.0,0.0,0.0,0.0,0.0,0.0,0.0,0.0,0.0,0.0,0.0,0.0,0.0,0.0,0.0,0.0,0.0,0.0,0.0,0.0,0.0,0.0,0.0,0.0,0.0,0.0,0.0,0.0,0.0,0.0,0.0,0.0,0.0,0.0,0.0,0.0,0.0,0.0,0.0,0.0,0.0,0.0,0.0,0.0,0.0,0.0,0.0,0.0,0.0,0.0,0.0,0.0,0.0,0.0,0.0,0.0,0.0,0.0,0.0,0.0,0.0,0.0,0.0,0.0,0.0,0.0,0.0,0.0,0.0,0.0,0.0,0.0,0.0,0.0,0.0,0.0,0.0,0.0,0.0,0.0,0.0,0.0,0.0,0.0,0.0,0.0,0.0,0.0,0.0,0.0,0.0,0.0,0.0,0.0,0.0,0.0,0.0,0.0,0.0,0.0,0.0,0.0,-1.786,0.0,-1.8896,-1.8663,-1.8539,-1.8485,0.0,0.0,0.0,0.0,0.0,0.0,0.0,0.0,0.0,0.0,0.0,0.0,0.0,0.0,0.0,0.0,0.0,0.0,0.0,0.0,0.0,0.0,0.0,0.0,0.0,0.0,0.0,0.0,0.0,0.0,0.0,0.0,0.0,0.0,0.0,0.0,0.0,0.0,0.0,0.0,0.0,0.0,0.0,0.0,0.0,0.0,0.0,0.0,0.0,0.0,0.0,0.0,0.0,0.0,0.0,0.0,0.0,0.0,0.0,0.0,0.0,0.0,0.0,0.0,0.0,0.0,0.0,0.0,0.0,0.0,0.0,0.0,0.0,0.0,0.0,0.0,0.0,0.0,0.0,0.0,0.0,0.0,0.0,0.0,0.0,0.0,0.0,0.0,0.0,0.0,0.0,0.0,0.0,0.0,0.0,0.0,0.0,0.0,0.0,0.0,0.0,0.0,0.0,0.0,0.0,0.0,0.0,0.0,0.0,-1.9431,-1.9859,-2.1929,-2.1322,-1.9912,0.0,0.0,0.0,0.0,0.0,0.0,0.0,0.0,0.0,0.0,0.0,0.0,0.0,0.0,0.0,0.0,0.0,0.0,0.0,0.0,0.0,0.0,0.0,0.0,0.0,0.0,0.0,0.0,0.0,0.0,0.0,0.0,0.0,0.0,0.0,0.0,0.0,0.0,0.0,0.0,0.0,0.0,0.0,0.0,0.0,0.0,0.0,0.0,0.0,0.0,0.0,0.0,0.0,0.0,0.0,0.0,0.0,0.0,0.0,0.0,0.0,0.0,0.0,0.0,0.0,0.0,0.0,0.0,0.0,0.0,0.0,0.0,0.0,0.0,0.0,0.0,0.0,0.0,0.0,0.0,0.0,0.0,0.0,0.0,0.0,0.0,0.0,0.0,0.0,0.0,0.0,0.0,0.0,0.0,0.0,0.0,0.0,0.0,0.0,0.0,0.0,0.0,0.0,0.0,0.0,0.0,0.0,0.0,0.0,-1.6576,-1.7521,-1.9912,0.0,-2.0628,-1.9145,0.0,0.0,0.0,0.0,0.0,0.0,0.0,0.0,0.0,0.0,0.0,0.0,0.0,0.0,0.0,0.0,0.0,0.0,0.0,0.0,0.0,0.0,0.0,0.0,0.0,0.0,0.0,0.0,0.0,0.0,0.0,0.0,0.0,0.0,0.0,0.0,0.0,0.0,0.0,0.0,0.0,0.0,0.0,0.0,0.0,0.0,0.0,0.0,0.0,0.0,0.0,0.0,0.0,0.0,0.0,0.0,0.0,0.0,0.0,0.0,0.0,0.0,0.0,0.0,0.0,0.0,0.0,0.0,0.0,0.0,0.0,0.0,0.0,0.0,0.0,0.0,0.0,0.0,0.0,0.0,0.0,0.0,0.0,0.0,0.0,0.0,0.0,0.0,0.0,0.0,0.0,0.0,0.0,0.0,0.0,0.0,0.0,0.0,0.0,0.0,0.0,0.0,0.0,0.0,0.0,0.0,0.0,0.0,0.0,-1.6397,0.0,-2.1197,0.0,-2.0555,-1.8895,0.0,0.0,0.0,0.0,0.0,0.0,0.0,0.0,0.0,0.0,0.0,0.0,0.0,0.0,0.0,0.0,0.0,0.0,0.0,0.0,0.0,0.0,0.0,0.0,0.0,0.0,0.0,0.0,0.0,0.0,0.0,0.0,0.0,0.0,0.0,0.0,0.0,0.0,0.0,0.0,0.0,0.0,0.0,0.0,0.0,0.0,0.0,0.0,0.0,0.0,0.0,0.0,0.0,0.0,0.0,0.0,0.0,0.0,0.0,0.0,0.0,0.0,0.0,0.0,0.0,0.0,0.0,0.0,0.0,0.0,0.0,0.0,0.0,0.0,0.0,0.0,0.0,0.0,0.0,0.0,0.0,0.0,0.0,0.0,0.0,0.0,0.0,0.0,0.0,0.0,0.0,0.0,0.0,0.0,0.0,0.0,0.0,0.0,0.0,0.0,0.0,0.0,0.0,0.0,0.0,0.0,0.0,0.0,-1.6469,-2.0914,-2.3213,-2.3659,-2.2414,-2.1429,-1.9252,0.0,0.0,0.0,0.0,0.0,0.0,0.0,0.0,0.0,0.0,0.0,0.0,0.0,0.0,0.0,0.0,0.0,0.0,0.0,0.0,0.0,0.0,0.0,0.0,0.0,0.0,0.0,0.0,0.0,0.0,0.0,0.0,0.0,0.0,0.0,0.0,0.0,0.0,0.0,0.0,0.0,0.0,0.0,0.0,0.0,0.0,0.0,0.0,0.0,0.0,0.0,0.0,0.0,0.0,0.0,0.0,0.0,0.0,0.0,0.0,0.0,0.0,0.0,0.0,0.0,0.0,0.0,0.0,0.0,0.0,0.0,0.0,0.0,0.0,0.0,0.0,0.0,0.0,0.0,0.0,0.0,0.0,0.0,0.0,0.0,0.0,0.0,0.0,0.0,0.0,0.0,0.0,0.0,0.0,0.0,0.0,0.0,0.0,0.0,0.0,0.0,0.0,0.0,0.0,0.0,0.0,0.0,0.0,0.0,-1.9556,-2.0787,-2.25,-2.4462,-2.0787,-1.9395,0.0,0.0,0.0,0.0,0.0,0.0,0.0,0.0,0.0,0.0,0.0,0.0,0.0,0.0,0.0,0.0,0.0,0.0,0.0,0.0,0.0,0.0,0.0,0.0,0.0,0.0,0.0,0.0,0.0,0.0,0.0,0.0,0.0,0.0,0.0,0.0,0.0,0.0,0.0,0.0,0.0,0.0,0.0,0.0,0.0,0.0,0.0,0.0,0.0,0.0,0.0,0.0,0.0,0.0,0.0,0.0,0.0,0.0,0.0,0.0,0.0,0.0,0.0,0.0,0.0,0.0,0.0,0.0,0.0,0.0,0.0,0.0,0.0,0.0,0.0,0.0,0.0,0.0,0.0,0.0,0.0,0.0,0.0,0.0,0.0,0.0,0.0,0.0,0.0,0.0,0.0,0.0,0.0,0.0,0.0,0.0,0.0,0.0,0.0,0.0,0.0,0.0,0.0,0.0,0.0,0.0,0.0,0.0,0.0,-2.241,-2.3374,-2.4801,-2.6657,-2.2767,-2.0983,-2.1622,0.0,0.0,0.0,0.0,0.0,0.0,0.0,0.0,0.0,0.0,0.0,0.0,0.0,0.0,0.0,0.0,0.0,0.0,0.0,0.0,0.0,0.0,0.0,0.0,0.0,0.0,0.0,0.0,0.0,0.0,0.0,0.0,0.0,0.0,0.0,0.0,0.0,0.0,0.0,0.0,0.0,0.0,0.0,0.0,0.0,0.0,0.0,0.0,0.0,0.0,0.0,0.0,0.0,0.0,0.0,0.0,0.0,0.0,0.0,0.0,0.0,0.0,0.0,0.0,0.0,0.0,0.0,0.0,0.0,0.0,0.0,0.0,0.0,0.0,0.0,0.0,0.0,0.0,0.0,0.0,0.0,0.0,0.0,0.0,0.0,0.0,0.0,0.0,0.0,0.0,0.0,0.0,0.0,0.0,0.0,0.0,0.0,0.0,0.0,0.0,0.0,0.0,0.0,0.0,0.0,0.0,0.0,0.0,-2.8503,-3.0083,-3.0154,-2.8663,-2.68,-2.3784,0.0,0.0,0.0,0.0,0.0,0.0,0.0,0.0,0.0,0.0,0.0,0.0,0.0,0.0,0.0,0.0,0.0,0.0,0.0,0.0,0.0,0.0,0.0,0.0,0.0,0.0,0.0,0.0,0.0,0.0,0.0,0.0,0.0,0.0,0.0,0.0,0.0,0.0,0.0,0.0,0.0,0.0,0.0,0.0,0.0,0.0,0.0,0.0,0.0,0.0,0.0,0.0,0.0,0.0,0.0,0.0,0.0,0.0,0.0,0.0,0.0,0.0,0.0,0.0,0.0,0.0,0.0,0.0,0.0,0.0,0.0,0.0,0.0,0.0,0.0,0.0,0.0,0.0,0.0,0.0,0.0,0.0,0.0,0.0,0.0,0.0,0.0,0.0,0.0,0.0,0.0,0.0,0.0,0.0,0.0,0.0,0.0,0.0,0.0,0.0,0.0,0.0,0.0,0.0,0.0,0.0,0.0,0.0,0.0,-3.2474,-3.465,-3.4972,-3.3348,-2.903,-2.6104,0.0,0.0,0.0,0.0,0.0,0.0,0.0,0.0,0.0,0.0,0.0,0.0,0.0,0.0,0.0,0.0,0.0,0.0,0.0,0.0,0.0,0.0,0.0,0.0,0.0,0.0,0.0,0.0,0.0,0.0,0.0,0.0,0.0,0.0,0.0,0.0,0.0,0.0,0.0,0.0,0.0,0.0,0.0,0.0,0.0,0.0,0.0,0.0,0.0,0.0,0.0,0.0,0.0,0.0,0.0,0.0,0.0,0.0,0.0,0.0,0.0,0.0,0.0,0.0,0.0,0.0,0.0,0.0,0.0,0.0,0.0,0.0,0.0,0.0,0.0,0.0,0.0,0.0,0.0,0.0,0.0,0.0,0.0,0.0,0.0,0.0,0.0,0.0,0.0,0.0,0.0,0.0,0.0,0.0,0.0,0.0,0.0,0.0,0.0,0.0,0.0,0.0,0.0,0.0,0.0,0.0,0.0,0.0,-3.1599,-3.4543,-3.8487,-3.9789,-3.8219,-3.3169,-2.9333,0.0,0.0,0.0,0.0,0.0,0.0,0.0,0.0,0.0,0.0,0.0,0.0,0.0,0.0,0.0,0.0,0.0,0.0,0.0,0.0,0.0,0.0,0.0,0.0,0.0,0.0,0.0,0.0,0.0,0.0,0.0,0.0,0.0,0.0,0.0,0.0,0.0,0.0,0.0,0.0,0.0,0.0,0.0,0.0,0.0,0.0,0.0,0.0,0.0,0.0,0.0,0.0,0.0,0.0,0.0,0.0,0.0,0.0,0.0,0.0,0.0,0.0,0.0,0.0,0.0,0.0,0.0,0.0,0.0,0.0,0.0,0.0,0.0,0.0,0.0,0.0,0.0,0.0,0.0,0.0,0.0,0.0,0.0,0.0,0.0,0.0,0.0,0.0,0.0,0.0,0.0,0.0,0.0,0.0,0.0,0.0,0.0,0.0,0.0,0.0,0.0,0.0,0.0,0.0,0.0,0.0,0.0,0.0,-3.3883,-3.5721,-4.152,-4.3946,-4.2448,-3.7773,-3.2741,0.0,0.0,0.0,0.0,0.0,0.0,0.0,0.0,0.0,0.0,0.0,0.0,0.0,0.0,0.0,0.0,0.0,0.0,0.0,0.0,0.0,0.0,0.0,0.0,0.0,0.0,0.0,0.0,0.0,0.0,0.0,0.0,0.0,0.0,0.0,0.0,0.0,0.0,0.0,0.0,0.0,0.0,0.0,0.0,0.0,0.0,0.0,0.0,0.0,0.0,0.0,0.0,0.0,0.0,0.0,0.0,0.0,0.0,0.0,0.0,0.0,0.0,0.0,0.0,0.0,0.0,0.0,0.0,0.0,0.0,0.0,0.0,0.0,0.0,0.0,0.0,0.0,0.0,0.0,0.0,0.0,0.0,0.0,0.0,0.0,0.0,0.0,0.0,0.0,0.0,0.0,0.0,0.0,0.0,0.0,0.0,0.0,0.0,0.0,0.0,0.0,0.0,0.0,0.0,0.0,0.0,0.0,0.0,-3.5489,-3.8879,-4.2644,-4.4446,-4.4107,-3.8326,-3.3508,0.0,0.0,0.0,0.0,0.0,0.0,0.0,0.0,0.0,0.0,0.0,0.0,0.0,0.0,0.0,0.0,0.0,0.0,0.0,0.0,0.0,0.0,0.0,0.0,0.0,0.0,0.0,0.0,0.0,0.0,0.0,0.0,0.0,0.0,0.0,0.0,0.0,0.0,0.0,0.0,0.0,0.0,0.0,0.0,0.0,0.0,0.0,0.0,-2.207,0.0,0.0,0.0,0.0,0.0,0.0,0.0,0.0,0.0,0.0,0.0,0.0,0.0,0.0,0.0,0.0,0.0,0.0,0.0,0.0,0.0,0.0,0.0,0.0,0.0,0.0,0.0,0.0,0.0,0.0,0.0,0.0,0.0,0.0,0.0,0.0,0.0,0.0,0.0,0.0,0.0,0.0,0.0,0.0,0.0,0.0,0.0,0.0,0.0,0.0,0.0,0.0,0.0,0.0,0.0,0.0,0.0,0.0,0.0,-3.7113,-4.1046,-4.415,-4.5374,-4.4482,-3.9988,-3.5648,0.0,0.0,0.0,0.0,0.0,0.0,0.0,0.0,0.0,0.0,0.0,0.0,0.0,0.0,0.0,0.0,0.0,0.0,0.0,0.0,0.0,0.0,0.0,0.0,0.0,0.0,0.0,0.0,0.0,0.0,0.0,0.0,0.0,0.0,0.0,0.0,0.0,0.0,0.0,0.0,0.0,0.0,0.0,0.0,0.0,0.0,0.0,0.0,0.0,0.0,0.0,0.0,0.0,0.0,0.0,0.0,0.0,0.0,0.0,0.0,0.0,0.0,0.0,0.0,0.0,0.0,0.0,0.0,0.0,0.0,0.0,0.0,0.0,0.0,0.0,0.0,0.0,0.0,0.0,0.0,0.0,0.0,0.0,0.0,0.0,0.0,0.0,0.0,0.0,0.0,0.0,0.0,0.0,0.0,0.0,0.0,0.0,0.0,0.0,0.0,0.0,0.0,0.0,0.0,0.0,0.0,0.0,-3.3924,-3.8399,-4.2898,-4.5614,-4.623,-4.4624,-4.1797,-3.7935,-3.3094,0.0,0.0,0.0,0.0,0.0,0.0,0.0,0.0,0.0,0.0,0.0,0.0,0.0,0.0,0.0,0.0,0.0,0.0,0.0,0.0,0.0,0.0,0.0,0.0,0.0,0.0,0.0,0.0,0.0,0.0,0.0,0.0,0.0,0.0,0.0,0.0,0.0,0.0,-1.9945,-2.1966,0.0,0.0,0.0,0.0,0.0,0.0,0.0,0.0,-2.413,0.0,0.0,0.0,0.0,0.0,0.0,0.0,0.0,0.0,0.0,0.0,0.0,0.0,0.0,0.0,0.0,0.0,0.0,0.0,0.0,0.0,0.0,0.0,0.0,0.0,0.0,0.0,0.0,0.0,0.0,0.0,0.0,0.0,0.0,0.0,0.0,0.0,0.0,0.0,0.0,0.0,0.0,0.0,0.0,0.0,0.0,0.0,0.0,0.0,0.0,0.0,0.0,0.0,0.0,0.0,0.0,-3.331,-3.4748,-3.8594,-4.5096,-4.6373,-4.623,-4.4624,-4.2198,-3.8417,-3.3176,0.0,0.0,0.0,0.0,0.0,0.0,0.0,0.0,0.0,0.0,0.0,0.0,0.0,0.0,0.0,0.0,0.0,0.0,0.0,0.0,0.0,0.0,0.0,0.0,0.0,0.0,0.0,0.0,0.0,0.0,0.0,0.0,0.0,0.0,0.0,0.0,0.0,0.0,0.0,-2.4432,-2.5616,0.0,0.0,0.0,0.0,0.0,0.0,0.0,0.0,-2.5551,0.0,0.0,0.0,0.0,0.0,0.0,0.0,0.0,0.0,0.0,0.0,0.0,0.0,0.0,0.0,0.0,0.0,0.0,0.0,0.0,0.0,0.0,0.0,0.0,0.0,0.0,0.0,0.0,0.0,0.0,0.0,0.0,0.0,0.0,0.0,0.0,0.0,0.0,0.0,0.0,0.0,0.0,0.0,0.0,0.0,0.0,0.0,0.0,0.0,0.0,0.0,0.0,0.0,0.0,0.0,-3.4045,-3.6626,-4.0602,-4.6337,-4.6945,-4.6346,-4.4711,-4.1715,-3.7829,0.0,0.0,0.0,0.0,0.0,0.0,0.0,0.0,0.0,0.0,0.0,0.0,0.0,0.0,0.0,0.0,0.0,0.0,0.0,0.0,0.0,0.0,0.0,0.0,0.0,0.0,0.0,0.0,0.0,0.0,0.0,0.0,0.0,0.0,0.0,0.0,0.0,0.0,0.0,0.0,-2.6395,-2.7471,-2.9061,0.0,0.0,0.0,0.0,0.0,0.0,-2.7248,-2.6635,0.0,0.0,0.0,0.0,0.0,0.0,0.0,0.0,0.0,0.0,0.0,0.0,0.0,0.0,0.0,0.0,0.0,0.0,0.0,0.0,0.0,0.0,0.0,0.0,0.0,0.0,0.0,0.0,0.0,0.0,0.0,0.0,0.0,0.0,0.0,0.0,0.0,0.0,0.0,0.0,0.0,0.0,0.0,0.0,0.0,0.0,0.0,0.0,0.0,0.0,0.0,0.0,0.0,0.0,0.0,-3.4322,-3.8043,-4.2257,-4.6962,-4.7232,-4.6434,-4.4754,-4.1058,-3.7091,0.0,0.0,0.0,0.0,0.0,0.0,0.0,0.0,0.0,0.0,0.0,0.0,0.0,0.0,0.0,0.0,0.0,0.0,0.0,0.0,0.0,0.0,0.0,0.0,0.0,0.0,0.0,0.0,0.0,0.0,0.0,0.0,0.0,0.0,0.0,0.0,0.0,0.0,0.0,0.0,0.0,-2.9667,-3.1203,-2.9986,0.0,0.0,0.0,0.0,-2.8859,-2.9162,0.0,0.0,0.0,0.0,0.0,0.0,0.0,0.0,0.0,0.0,0.0,0.0,0.0,0.0,0.0,0.0,0.0,0.0,0.0,0.0,0.0,0.0,0.0,0.0,0.0,0.0,0.0,0.0,0.0,0.0,0.0,0.0,0.0,0.0,0.0,0.0,0.0,0.0,0.0,0.0,0.0,0.0,0.0,0.0,0.0,0.0,0.0,0.0,0.0,0.0,0.0,0.0,0.0,0.0,0.0,0.0,-3.4256,-3.7486,-4.164,-4.6704,-4.7025,-4.6293,-4.4624,-4.0903,-3.6736,0.0,0.0,0.0,0.0,0.0,0.0,0.0,0.0,0.0,0.0,0.0,0.0,0.0,0.0,0.0,0.0,0.0,0.0,0.0,0.0,0.0,0.0,0.0,0.0,0.0,0.0,0.0,0.0,0.0,0.0,0.0,0.0,0.0,0.0,0.0,0.0,0.0,0.0,0.0,0.0,0.0,-3.2328,-3.1068,-3.145,-3.137,0.0,0.0,-3.3089,-3.2994,-3.4813,0.0,0.0,0.0,0.0,0.0,0.0,0.0,0.0,0.0,0.0,0.0,0.0,0.0,0.0,0.0,0.0,0.0,0.0,0.0,0.0,0.0,0.0,0.0,0.0,0.0,0.0,0.0,0.0,0.0,0.0,0.0,0.0,0.0,0.0,0.0,0.0,0.0,0.0,0.0,0.0,0.0,0.0,0.0,0.0,0.0,0.0,0.0,0.0,0.0,0.0,0.0,0.0,0.0,0.0,0.0,-2.8662,-3.5046,-3.9536,-4.3522,-4.7026,-4.7338,-4.6539,-4.485,-4.0235,-3.5921,0.0,0.0,0.0,0.0,0.0,0.0,0.0,0.0,0.0,0.0,0.0,0.0,0.0,0.0,0.0,0.0,0.0,0.0,0.0,0.0,0.0,0.0,0.0,0.0,0.0,0.0,0.0,0.0,0.0,0.0,0.0,0.0,0.0,0.0,0.0,0.0,0.0,0.0,0.0,0.0,0.0,0.0,-3.3545,-3.3968,0.0,0.0,0.0,-3.5116,-3.3259,0.0,0.0,0.0,0.0,0.0,0.0,0.0,0.0,0.0,0.0,0.0,0.0,0.0,0.0,0.0,0.0,0.0,0.0,0.0,0.0,0.0,0.0,0.0,0.0,0.0,0.0,0.0,0.0,0.0,0.0,0.0,0.0,0.0,0.0,0.0,0.0,0.0,0.0,0.0,0.0,0.0,0.0,0.0,0.0,0.0,0.0,0.0,0.0,0.0,0.0,0.0,0.0,0.0,0.0,0.0,0.0,0.0,-3.5612,-4.1123,-4.5006,-4.7124,-4.7443,-4.6686,-4.4881,-4.0238,0.0,0.0,0.0,0.0,0.0,0.0,0.0,0.0,0.0,0.0,0.0,0.0,0.0,0.0,0.0,0.0,0.0,0.0,0.0,0.0,0.0,0.0,0.0,0.0,0.0,0.0,0.0,-1.302,0.0,0.0,0.0,0.0,0.0,0.0,0.0,0.0,0.0,0.0,0.0,0.0,0.0,0.0,-3.4592,-3.5856,-3.6546,-3.7038,0.0,0.0,-3.7485,-3.5003,-3.7959,-3.8376,0.0,0.0,0.0,0.0,0.0,0.0,0.0,0.0,0.0,0.0,0.0,0.0,0.0,0.0,0.0,0.0,0.0,0.0,0.0,0.0,0.0,0.0,0.0,0.0,0.0,0.0,0.0,0.0,0.0,0.0,0.0,0.0,0.0,0.0,0.0,0.0,0.0,0.0,0.0,0.0,0.0,0.0,0.0,0.0,0.0,0.0,0.0,0.0,0.0,0.0,0.0,0.0,0.0,0.0,0.0,-3.5388,-4.0971,-4.4874,-4.6936,-4.7025,-4.6275,-4.4624,-4.1629,-3.7416,0.0,0.0,0.0,0.0,0.0,0.0,0.0,0.0,0.0,0.0,0.0,0.0,0.0,0.0,0.0,0.0,0.0,0.0,0.0,0.0,0.0,0.0,0.0,0.0,0.0,0.0,0.0,0.0,0.0,0.0,0.0,0.0,0.0,0.0,0.0,0.0,0.0,0.0,0.0,0.0,0.0,-3.6728,-3.6873,-3.8833,-4.0672,0.0,0.0,-4.0858,-4.0631,-4.3417,-4.2905,-3.4775,0.0,0.0,0.0,0.0,0.0,0.0,0.0,0.0,0.0,0.0,0.0,0.0,0.0,0.0,0.0,0.0,0.0,0.0,0.0,0.0,0.0,0.0,0.0,0.0,0.0,0.0,0.0,0.0,0.0,0.0,0.0,0.0,0.0,0.0,0.0,0.0,0.0,0.0,0.0,0.0,0.0,0.0,0.0,0.0,0.0,0.0,0.0,0.0,0.0,0.0,0.0,0.0,0.0,-3.1336,-3.5866,-4.1722,-4.5534,-4.7097,-4.7294,-4.6729,-4.5609,-4.2548,-3.8331,0.0,0.0,0.0,0.0,0.0,0.0,0.0,0.0,0.0,0.0,0.0,0.0,0.0,0.0,0.0,0.0,0.0,0.0,0.0,0.0,0.0,0.0,0.0,0.0,0.0,0.0,0.0,0.0,-2.104,-2.2206,-2.2765,0.0,0.0,0.0,0.0,0.0,0.0,0.0,0.0,0.0,0.0,-3.8296,-4.0774,-4.1975,0.0,0.0,-4.3932,-4.3441,-4.2143,-4.3038,-4.173,-3.5438,-3.343,0.0,0.0,0.0,0.0,0.0,0.0,0.0,0.0,0.0,0.0,0.0,0.0,0.0,0.0,0.0,0.0,0.0,0.0,0.0,0.0,0.0,0.0,0.0,0.0,0.0,0.0,0.0,0.0,0.0,0.0,0.0,0.0,0.0,0.0,0.0,0.0,0.0,0.0,0.0,0.0,0.0,0.0,0.0,0.0,0.0,0.0,0.0,0.0,0.0,0.0,0.0,0.0,-3.1964,-3.5987,-4.2105,-4.5928,-4.7284,-4.7407,-4.7047,-4.6169,-4.3584,-3.9769,0.0,0.0,0.0,0.0,0.0,0.0,0.0,0.0,0.0,0.0,0.0,0.0,0.0,0.0,0.0,0.0,0.0,0.0,0.0,0.0,0.0,0.0,0.0,0.0,0.0,0.0,0.0,0.0,-2.3803,-2.4413,-2.3047,0.0,0.0,0.0,0.0,0.0,0.0,0.0,0.0,0.0,0.0,-4.0057,-4.2987,-4.365,-4.414,-4.5117,-4.4926,-4.4188,-4.2972,-4.3,-4.1541,-3.6803,0.0,0.0,0.0,0.0,0.0,0.0,0.0,0.0,0.0,0.0,0.0,0.0,0.0,0.0,0.0,0.0,0.0,0.0,0.0,0.0,0.0,0.0,0.0,0.0,0.0,0.0,0.0,0.0,0.0,0.0,-1.7164,0.0,0.0,0.0,0.0,0.0,0.0,0.0,0.0,0.0,0.0,0.0,0.0,0.0,0.0,0.0,0.0,0.0,0.0,0.0,0.0,0.0,0.0,0.0,-3.5624,-4.1917,-4.5846,-4.7248,-4.7302,-4.696,-4.6205,-4.4669,-4.199,-3.7895,0.0,0.0,0.0,0.0,0.0,0.0,0.0,0.0,0.0,0.0,0.0,0.0,0.0,0.0,0.0,0.0,0.0,0.0,0.0,0.0,0.0,0.0,0.0,0.0,0.0,0.0,-2.0536,-2.2703,-2.3621,0.0,0.0,0.0,0.0,0.0,0.0,0.0,0.0,0.0,0.0,-3.8953,-4.2087,-4.2674,-4.338,-4.4407,-4.5968,-4.4151,-4.2806,-4.3601,-4.4289,-4.3436,0.0,0.0,0.0,0.0,0.0,0.0,0.0,0.0,0.0,0.0,0.0,0.0,0.0,0.0,0.0,0.0,0.0,0.0,0.0,0.0,0.0,0.0,0.0,0.0,0.0,0.0,0.0,-2.3437,-2.2206,0.0,0.0,0.0,0.0,0.0,0.0,0.0,0.0,0.0,0.0,0.0,-3.4812,-3.6283,0.0,0.0,0.0,0.0,0.0,0.0,0.0,0.0,0.0,0.0,0.0,0.0,-3.3738,-3.6794,-4.2846,-4.6488,-4.7414,-4.7407,-4.7342,-4.7071,-4.6002,-4.285,-3.7336,0.0,0.0,0.0,0.0,0.0,0.0,0.0,0.0,0.0,0.0,0.0,0.0,0.0,0.0,0.0,0.0,0.0,0.0,0.0,0.0,0.0,0.0,0.0,0.0,0.0,-2.3162,0.0,0.0,0.0,0.0,0.0,0.0,0.0,0.0,0.0,0.0,0.0,-3.5239,-3.805,-4.0379,-4.2445,-4.4122,-4.4628,-4.5516,0.0,0.0,0.0,0.0,0.0,0.0,0.0,0.0,0.0,0.0,0.0,0.0,0.0,0.0,-4.0677,-3.5078,-3.4282,-3.4491,-3.4529,0.0,0.0,0.0,0.0,0.0,0.0,0.0,0.0,0.0,0.0,0.0,0.0,0.0,0.0,0.0,0.0,-2.783,0.0,0.0,0.0,0.0,0.0,0.0,0.0,0.0,-3.7845,-3.9896,-4.0039,-4.1432,-4.1121,0.0,-3.8672,-3.4668,0.0,0.0,0.0,0.0,0.0,0.0,0.0,0.0,-3.4945,-3.8045,-4.3864,-4.7259,-4.7933,-4.7987,-4.7861,-4.7536,-4.623,-4.3123,-3.8218,-3.3792,-3.0098,0.0,0.0,0.0,0.0,0.0,0.0,0.0,0.0,0.0,0.0,0.0,0.0,0.0,0.0,0.0,0.0,0.0,0.0,0.0,0.0,0.0,0.0,0.0,-2.485,0.0,0.0,0.0,0.0,0.0,0.0,0.0,0.0,0.0,-3.2514,-3.5732,-3.894,-4.1217,-4.2832,-4.3979,-4.4502,0.0,0.0,0.0,0.0,0.0,0.0,0.0,-4.2621,-4.2162,-4.173,-4.1654,-4.2375,-4.4308,-4.5577,-4.5009,0.0,0.0,-4.039,-3.969,-4.0072,-4.0112,-4.084,-4.1282,-4.0729,-4.2009,-4.31,0.0,0.0,0.0,0.0,0.0,0.0,0.0,0.0,-3.7145,-3.7401,0.0,-3.4865,0.0,0.0,0.0,0.0,0.0,-3.5793,0.0,0.0,-4.6278,-4.8487,-4.6183,-4.627,-4.5875,-4.4982,-4.4229,-4.234,-3.9192,-3.4202,0.0,0.0,0.0,0.0,0.0,0.0,-3.5648,-3.9514,-4.4983,-4.817,-4.8931,-4.8912,-4.8532,-4.7699,-4.5454,-4.3061,-4.0601,-3.8285,-3.5245,-3.1235,-2.8092,0.0,0.0,0.0,0.0,0.0,0.0,0.0,0.0,0.0,0.0,0.0,0.0,0.0,0.0,0.0,0.0,0.0,0.0,0.0,0.0,-2.4139,0.0,0.0,0.0,0.0,0.0,0.0,0.0,0.0,0.0,0.0,-3.6565,-3.9434,-4.2303,-4.3826,0.0,0.0,0.0,0.0,-4.5129,-4.3286,-4.2236,-4.1909,-4.2313,-4.4298,-4.5875,-4.6253,0.0,0.0,-4.7984,-4.7643,-4.734,-4.5691,-4.823,-4.9641,-4.8068,-4.6373,-4.5395,-4.5456,-4.5058,-4.4472,-4.455,-4.6173,-4.7188,-4.543,0.0,0.0,0.0,0.0,-3.978,-4.1124,-4.3832,-4.2967,-4.2091,-4.1153,-4.0291,0.0,0.0,0.0,0.0,0.0,0.0,-4.1033,-4.3484,-4.6503,-4.8452,-4.9503,-5.0031,-4.9887,-4.9162,-4.8928,-4.7805,-4.5798,-4.3696,-3.8651,-3.0993,0.0,0.0,0.0,0.0,-3.9893,-4.2792,-4.7138,-4.951,-4.9727,-4.9202,-4.8532,-4.7735,-4.6486,-4.4947,-4.3079,-4.1325,-3.879,-3.5372,-3.2759,0.0,0.0,0.0,0.0,0.0,0.0,0.0,0.0,0.0,0.0,0.0,0.0,0.0,0.0,0.0,0.0,0.0,0.0,0.0,-2.3596,-2.5643,-2.7013,0.0,0.0,0.0,0.0,0.0,0.0,0.0,0.0,0.0,-4.2559,-4.2557,-4.2813,0.0,0.0,-4.3868,-4.2695,-4.445,-4.6048,-4.6616,0.0,0.0,0.0,-4.8343,-4.8075,-4.8742,-5.0637,-5.2021,-5.1926,-5.2873,-5.3707,-5.3707,-5.4619,-5.5141,-5.4601,-5.2292,-5.0741,-5.1237,-5.1726,-5.2253,-5.2844,-5.3868,-5.4562,-5.3309,-4.8712,-4.5588,-4.5217,-4.6652,-4.6037,-4.7385,-5.0046,-4.9305,-4.8611,-4.7949,-4.6713,-4.4928,-4.2775,-4.1067,0.0,0.0,0.0,-4.4813,-4.7529,-4.8704,-5.0027,-5.1412,-5.1886,-5.1868,-5.1495,-5.1477,-5.0991,-5.0046,-4.8533,-4.4453,-3.7943,0.0,0.0,-3.6073,-3.993,-4.3118,-4.5544,-4.884,-5.056,-5.0542,-4.9474,-4.8677,-4.8188,-4.7102,-4.6033,-4.5073,-4.3516,-4.1633,-3.9405,-3.6453,-3.294,0.0,0.0,0.0,0.0,0.0,0.0,0.0,0.0,0.0,0.0,0.0,-2.1171,0.0,0.0,0.0,0.0,-2.4499,-2.5688,-2.7596,-2.9095,0.0,0.0,0.0,0.0,0.0,0.0,0.0,-3.9592,-4.336,-4.6266,-4.7089,-4.6341,-4.5885,-4.625,-4.6101,-4.5679,-4.4745,0.0,-4.7691,-4.8056,-4.8698,-4.9598,-5.0652,-5.0787,-5.116,-5.2636,-5.3669,-5.4522,-5.5091,-5.6038,-5.6815,-5.7289,-5.7699,-5.7989,-5.8019,-5.6586,-5.5427,-5.5426,-5.5834,-5.6376,-5.6946,-5.7718,-5.8356,-5.9286,-5.9114,-5.349,-5.1375,-5.1646,-5.2282,-5.3677,-5.5509,-5.5455,-5.5865,-5.624,-5.3457,-5.1495,-5.0082,-4.6106,0.0,-4.643,-4.7793,-4.9517,-5.1463,-5.226,-5.2604,-5.2491,-5.2437,-5.2401,-5.2419,-5.2347,-5.2358,-5.2307,-5.0046,-4.8109,-4.6555,-4.3628,-4.2026,-4.1885,-4.3444,-4.5436,-4.7772,-5.0035,-5.1212,-5.1267,-4.98,-4.8942,-4.8851,-4.7295,-4.6468,-4.6359,-4.491,-4.3715,-4.2828,-3.9297,-3.5838,-3.2651,0.0,0.0,0.0,0.0,0.0,0.0,0.0,0.0,0.0,0.0,0.0,0.0,0.0,0.0,0.0,-2.9427,0.0,-3.3683,-3.3918,0.0,0.0,0.0,-3.7938,-4.194,-4.3679,-4.4874,-4.5689,0.0,0.0,-5.047,0.0,-5.0707,-5.1202,-5.0912,-5.0141,-4.8693,-4.9533,-4.9858,-4.8652,-4.9052,-4.9789,-5.0746,-5.2568,-5.4755,-5.6721,-5.7554,-5.7535,-5.7649,-5.7725,-5.7725,-5.799,-5.8464,-5.9064,-5.9071,-5.9646,-5.9832,-5.833,-5.8006,-5.8006,-5.8432,-5.8996,-5.9483,-6.2331,-6.2308,-6.0823,-5.9295,-5.7738,-5.7316,-5.7567,-5.8251,-5.7976,-5.7667,-5.7239,-5.6525,-5.5741,-5.4896,-5.3288,-5.3055,-5.394,-5.3113,-5.3396,-5.4471,-5.4197,-5.4133,-5.4261,-5.3532,-5.3243,-5.332,-5.2741,-5.2405,-5.234,-5.1752,-5.0587,-4.9081,-4.8199,-4.5984,-4.2675,-4.4682,-4.6711,-4.8605,-4.9764,-5.0624,-5.1112,-5.0173,-4.9298,-4.8614,-4.715,-4.6073,-4.5459,-4.4581,-4.3715,-4.2882,-4.0836,-3.8518,-3.5928,-3.0532,0.0,0.0,0.0,0.0,0.0,0.0,0.0,0.0,0.0,-2.7055,-2.1894,0.0,-3.0133,0.0,-3.4371,-3.7341,-3.792,-3.8482,0.0,0.0,-4.1796,-4.3027,-4.7572,-4.8424,-4.8985,-4.9764,-5.1611,-5.3078,-5.3675,-5.4018,-5.4708,-5.5841,-5.2704,-5.0211,-5.0057,-5.1685,-5.2728,-5.2451,-5.3832,-5.5394,-5.545,-5.6583,-5.7683,-5.8262,-5.89,-5.9506,-6.0113,-6.0207,-6.0435,-6.106,-6.1363,-6.1515,-6.1492,-6.1738,-6.1766,-6.1394,-6.0978,-6.0848,-6.1573,-6.1831,-6.1946,-6.3377,-6.3377,-6.3377,-6.205,-5.9908,-6.016,-6.0389,-6.0583,-6.0031,-5.9345,-5.8613,-5.8256,-5.7723,-5.7083,-5.6689,-5.6528,-5.6599,-5.5775,-5.57,-5.6163,-5.5818,-5.5541,-5.5359,-5.4876,-5.4496,-5.4218,-5.3422,-5.2994,-5.2929,-5.2473,-5.186,-5.0994,-5.0818,-4.9145,-4.6062,-4.6513,-4.7295,-4.8387,-4.951,-5.0606,-5.1664,-5.0579,-4.9216,-4.7674,-4.6446,-4.4953,-4.3093,-4.2643,-4.1958,-4.0836,-3.9278,-3.7504,-3.5439,-3.1437,-2.8232,0.0,0.0,0.0,0.0,0.0,0.0,0.0,0.0,0.0,0.0,0.0,-3.486,0.0,-3.9369,-4.2013,-4.2013,-4.3371,-4.5363,-4.8079,-4.7663,-4.8931,-5.3313,-5.3458,-5.3711,-5.487,-5.5794,-5.6627,-5.7406,-5.7419,-5.7765,-5.8969,-5.6388,-5.4052,-5.3493,-5.4185,-5.4614,-5.4399,-5.5677,-5.715,-5.7977,-5.9028,-5.9776,-6.005,-6.06,-6.1174,-6.1591,-6.1686,-6.1856,-6.2311,-6.269,-6.2936,-6.2955,-6.3346,-6.366,-6.365,-6.3485,-6.3206,-6.2909,-6.2852,-6.2852,-6.3698,-6.3698,-6.3698,-6.2521,-6.0754,-6.2057,-6.2182,-6.1486,-6.079,-6.0219,-5.9737,-5.9238,-5.8723,-5.8228,-5.8103,-5.78,-5.7335,-5.7173,-5.719,-5.7438,-5.7329,-5.7,-5.6464,-5.6247,-5.5781,-5.5129,-5.4243,-5.3809,-5.3772,-5.2852,-5.23,-5.2119,-5.1898,-5.1034,-4.9604,-4.8101,-4.7443,-4.7717,-4.9275,-5.0778,-5.2072,-5.048,-4.8525,-4.6409,-4.526,-4.3382,-4.0637,-4.0366,-3.9697,-3.8391,-3.7015,-3.5675,-3.4353,-3.2017,-3.0097,0.0,-2.7888,0.0,0.0,0.0,0.0,0.0,0.0,0.0,0.0,-3.9188,-4.0619,-4.1379,-4.4331,-4.6305,-4.6522,-4.8424,-5.085,-5.3603,-5.3458,-5.4526,-5.7876,-5.7858,-5.8094,-5.9579,-5.976,-6.0068,-6.0701,-6.0339,-6.0194,-6.0683,-6.0122,-5.89,-5.7551,-5.6872,-5.6437,-5.5547,-5.6013,-5.751,-5.9025,-6.0319,-6.1228,-6.1649,-6.2109,-6.2551,-6.2643,-6.2589,-6.2535,-6.2719,-6.323,-6.3627,-6.37,-6.4446,-6.509,-6.5033,-6.5035,-6.4722,-6.3623,-6.328,-6.3146,-6.534,-6.534,-6.5358,-6.509,-6.4662,-6.4323,-6.1628,-5.7507,-5.7346,-5.7917,-5.9023,-6.0148,-6.0576,-6.0456,-5.9813,-5.9777,-6.0188,-5.9143,-5.9003,-5.9744,-5.9204,-5.8879,-5.8697,-5.7433,-5.6662,-5.6343,-5.4975,-5.4273,-5.4255,-5.35,-5.2474,-5.1167,-5.0372,-4.9305,-4.7973,0.0,0.0,0.0,-4.9275,-5.019,-5.0317,-4.8135,-4.6374,-4.5222,-4.3206,0.0,-4.0474,-3.986,-3.9478,-3.917,-3.888,0.0,0.0,0.0,0.0,0.0,0.0,0.0,0.0,0.0,0.0,0.0,-3.9514,-3.8735,-3.984,-4.3099,-4.5508,-4.6341,-4.9257,-5.1683,-5.2951,-5.3476,-5.4255,-5.5395,-5.6011,-5.688,-5.8257,-5.8818,-5.9542,-6.0448,-6.0593,-6.0901,-6.1625,-6.1643,-6.1607,-6.1788,-6.1661,-6.1136,-6.0155,-5.9643,-5.9127,-5.8498,-5.8575,-5.9398,-6.0493,-6.1352,-6.1942,-6.2191,-6.2755,-6.3327,-6.3686,-6.3447,-6.3383,-6.3744,-6.3971,-6.4065,-6.4104,-6.4576,-6.4977,-6.4996,-6.5027,-6.5028,-6.4932,-6.4886,-6.4886,-6.5804,0.0,-6.5804,-6.5143,0.0,-6.3645,-6.1218,-5.765,-5.9202,-6.0094,-6.0558,-6.1718,-6.2021,-6.1611,-6.0023,-5.9541,-5.9809,-5.7545,-5.7441,-5.9057,-5.8772,-5.888,-5.9276,-5.8448,-5.7621,-5.6776,-5.559,-5.4996,-5.496,-5.4223,-5.3253,-5.2084,-5.1604,-5.0814,-4.982,-4.9582,-4.9251,-4.8702,-4.9629,-5.0425,-5.1085,-4.9577,-4.7926,-4.6314,0.0,0.0,0.0,0.0,0.0,0.0,0.0,0.0,0.0,0.0,0.0,-3.9297,-3.9695,-4.0256,-4.1053,-4.1832,-4.3498,-4.6196,-4.6812,-4.6522,-4.5345,-4.8206,-5.0542,-5.1719,-5.3295,-5.4544,-5.5359,-5.6156,-5.6772,-5.717,-5.7895,-5.8709,-5.947,-5.9959,-6.052,-6.1281,-6.1734,-6.2168,-6.2549,-6.2965,-6.3164,-6.32,-6.3182,-6.3019,-6.2512,-6.1386,-6.0281,-5.9516,-5.9883,-6.0408,-6.0896,-6.1798,-6.2456,-6.253,-6.3219,-6.3827,-6.415,-6.4172,-6.4251,-6.4502,-6.454,-6.4558,-6.454,-6.4834,-6.5065,-6.5046,-6.5128,-6.5239,-6.5383,-6.5364,-6.5352,-6.6125,-6.6018,-6.6018,-6.4804,-6.2913,-6.2913,-6.1789,-6.0112,0.0,0.0,0.0,-6.3002,-6.3038,-6.236,-6.0415,-5.9559,-5.938,-5.6865,-5.6723,-5.8588,-5.8624,-5.8876,-5.931,-5.9257,-5.8358,-5.6957,-5.6149,-5.5772,-5.5718,-5.493,-5.423,-5.3688,-5.3526,-5.3041,-5.2305,-5.2156,-5.1437,-5.0132,-5.0019,-5.0679,-5.1963,-5.1095,-4.9611,-4.7536,-4.6657,-4.4921,-4.2266,-4.2065,-4.1468,-4.0256,-4.0329,-4.0492,-4.0655,-4.1361,-4.2158,-4.2973,-4.4349,-4.5562,-4.6522,-4.7681,-4.9039,-5.0615,-5.2679,-5.3023,-5.0886,-5.2806,-5.4635,-5.5903,-5.612,-5.6247,-5.641,-5.7587,-5.8456,-5.8601,-5.9325,-6.0086,-6.0701,-6.1118,-6.1516,-6.2168,-6.2893,-6.34,-6.3418,-6.3925,-6.4396,-6.4378,-6.4251,-6.4396,-6.4106,-6.2386,-6.0864,-6.0338,-6.0518,-6.0827,-6.1117,-6.1816,-6.2544,-6.2558,-6.3187,-6.3878,-6.4237,-6.4535,-6.4823,-6.5237,-6.5122,-6.4991,-6.4989,-6.5056,-6.5166,-6.5147,-6.5239,-6.5333,-6.5364,-6.5321,-6.534,-6.7392,-6.6821,-6.6821,-6.6232,-6.5304,-6.5304,-6.5126,-6.4626,-6.2414,-6.1361,-6.1361,-6.277,-6.3341,-6.3216,-6.2877,-6.2717,-6.2717,-6.2271,-6.1974,0.0,-6.183,-6.1167,-5.997,-5.9325,-5.8498,-5.7493,-5.6652,-5.6277,-5.6187,-5.5473,-5.5026,-5.4848,-5.4258,-5.3526,-5.2809,-5.2346,-5.1928,-5.1549,-5.0365,-4.991,-5.0236,-4.8686,-4.7486,-4.668,-4.5874,-4.4881,-4.3824,-4.3806,-4.3661,-4.3444,-4.4077,-4.4784,-4.5472,-4.6214,-4.7065,-4.7862,-4.8749,-4.9908,-5.1321,-5.1067,-5.1466,-5.3041,-5.4164,-5.4291,-5.3349,-5.4707,-5.5776,-5.6011,-5.6627,-5.7315,-5.7949,-5.8275,-5.8764,-5.9379,-6.0158,-6.0701,-6.0919,-6.206,-6.2856,-6.3019,-6.3726,-6.4233,-6.4251,-6.4378,-6.4541,-6.445,-6.4649,-6.4468,-6.4233,-6.2947,-6.1915,-6.1607,-6.1154,-6.1154,-6.1697,-6.1897,-6.2186,-6.2096,-6.231,-6.3038,-6.4196,-6.4363,-6.4696,-6.6105,-6.5701,-6.5363,-6.5344,-6.5124,-6.5151,-6.5198,-6.5247,-6.5237,-6.5404,-6.5385,-6.5378,-6.7891,-6.7606,-6.757,-6.7392,-6.7017,-6.6624,-6.6196,-6.5697,-6.4287,-6.3395,-6.3127,-6.4198,-6.4465,-6.3948,-6.2717,-6.2146,-6.2075,-6.038,-6.0152,-6.1086,-6.1086,-6.0943,-6.0586,-5.9853,-5.9027,-5.8149,-5.6972,-5.6615,-5.6936,-5.624,-5.5633,-5.5187,-5.4402,-5.3635,-5.2903,-5.2681,-5.2287,-5.179,-5.1287,-5.1052,-5.1099,-5.0333,-4.9775,-4.9523,-4.881,-4.8233,-4.7922,-4.753,-4.7355,-4.7337,-4.7681,-4.8079,-4.8442,-4.922,-4.9818,-5.0198,-5.0959,-5.1719,-5.2444,-5.2552,-5.3096,-5.4255,-5.507,-5.5341,-5.4979,-5.5577,-5.6156,-5.6609,-5.7387,-5.7985,-5.8402,-5.918,-5.985,-6.0231,-6.1335,-6.2078,-6.2204,-6.3092,-6.3834,-6.3907,-6.4559,-6.5029,-6.5048,-6.5428,-6.57,-6.57,-6.57,-6.5555,-6.512,-6.4468,-6.378,-6.3382,-6.3001,-6.273,-6.2675,-6.2657,-6.2476,-6.2114,-6.2602,-6.3097,-6.3719,-6.3885,-6.467,-6.5352,-6.5451,-6.5617,-6.5918,-6.6239,-6.6289,-6.6319,-6.5973,-6.587,-6.5925,-6.6008,-6.5887,-6.8516,-6.8373,-6.8373,-6.8266,-6.8052,-6.7481,-6.6785,-6.6089,-6.6053,-6.5625,-6.5036,-6.5536,-6.5465,-6.4715,-6.2949,-6.2182,-6.1825,-5.9648,-5.9452,-6.0843,-6.0968,-6.1129,-6.1289,-6.0719,-5.9933,-5.8934,-5.7578,-5.7168,-5.7453,-5.6793,-5.6097,-5.5437,-5.4688,-5.3974,-5.3421,-5.3046,-5.2564,-5.1993,-5.1979,-5.2054,-5.2054,-5.2054,-5.2036,-5.2048,-5.1585,-5.1391,-5.1355,-5.0914,-5.0633,-5.0615,-5.0615,-5.0633,-5.0669,-5.1212,-5.1574,-5.1629,-5.2335,-5.2842,-5.3078,-5.3784,-5.449,-5.5106,-5.5848,-5.6247,-5.6265,-5.6247,-5.6518,-5.717,-5.7895,-5.8456,-5.8818,-5.9923,-6.0937,-6.1335,-6.2404,-6.3164,-6.3472,-6.416,-6.4667,-6.474,-6.5374,-6.5862,-6.5989,-6.6406,-6.6714,-6.6714,-6.6804,-6.6533,-6.6007,-6.5862,-6.5573,-6.5066,-6.4522,-6.3671,-6.3074,-6.2856,-6.2675,-6.2259,-6.3038,-6.3628,-6.3778,-6.4494,-6.517,-6.5608,-6.5713,-6.6039,-6.6593,-6.6792,-6.6937,-6.6824,-6.6466,-6.6292,-6.6539,-6.6764,-6.6777,-6.9854,-6.9247,-6.9212,-6.8766,-6.8141,-6.8016,-6.757,-6.6874,-6.6874,-6.6428,-6.5697,-6.5786,-6.575,-6.5697,-6.5393,-6.5215,-6.5215,-6.5036,-6.4537,-6.4091,-6.418,-6.3484,-6.2289,-6.2092,-6.1272,-5.988,-5.8916,-5.8149,-5.7614,-5.6793,-5.6365,-5.6204,-5.5491,-5.5045,-5.4813,-5.3617,-5.285,-5.2761,-5.2115,-5.179,-5.1907,-5.1907,-5.1956,-5.2084,-5.2144,-5.2203,-5.2149,-5.2224,-5.2263,-5.2281,-5.2226,-5.2245,-5.2245,-5.2335,-5.2389,-5.2408,-5.315,-5.3892,-5.4635,-5.5359,-5.5776,-5.5939,-5.6609,-5.7043,-5.7043,-5.7062,-5.7098,-5.7351,-5.7967,-5.8728,-5.9434,-6.0357,-6.1462,-6.2621,-6.3128,-6.3472,-6.4215,-6.4993,-6.5482,-6.5482,-6.6134,-6.6677,-6.6623,-6.6732,-6.6804,-6.6804,-6.6804,-6.675,-6.6623,-6.6551,-6.6478,-6.608,-6.483,-6.3273,-6.2603,-6.2168,-6.2639,-6.3019,-6.3202,-6.3966,-6.5018,-6.5742,-6.6463,-6.655,-6.7046,-6.6807,-6.6807,-6.6556,-6.6183,-6.6656,-6.6494,-6.6293,-6.6805,-6.7341,-6.7526,-7.0318,-7.0015,-7.0015,-6.9568,-6.8855,-6.8819,-6.8105,-6.7017,-6.6981,-6.6553,-6.5857,-6.5804,-6.5804,-6.5804,-6.5804,-6.5804,-6.5804,-6.5804,-6.5643,-6.5322,-6.5322,-6.4733,-6.3716,-6.3127,-6.2342,-6.1254,-6.004,-5.9006,-5.8167,-5.6989,-5.6383,-5.6383,-5.6062,-5.5687,-5.5205,-5.4581,-5.3831,-5.2903,-5.2547,-5.2222,-5.1812,-5.1808,-5.1808,-5.1858,-5.2023,-5.212,-5.2198,-5.2311,-5.2405,-5.2498,-5.2498,-5.2498,-5.2498,-5.2498,-5.2715,-5.3186,-5.3965,-5.4744,-5.5486,-5.583,-5.6192,-5.6663,-5.7007,-5.7188,-5.7224,-5.7623,-5.7895,-5.8003,-5.8655,-5.9452,-6.0285,-6.1462,-6.2494,-6.32,-6.3997,-6.474,-6.5048,-6.5826,-6.6315,-6.6351,-6.6587,-6.6804,-6.6804,-6.6804,-6.6804,-6.6804,-6.6804,-6.6804,-6.6804,-6.6804,-6.6587,-6.6098,-6.5174,-6.4613,-6.4106,-6.4124,-6.4088,-6.3997,-6.4323,-6.5109,-6.5076,-6.5715,-6.6153,-6.67,-6.6798,-6.6971,-6.7322,-6.7457,-6.7317,-6.7234,-6.6919,-6.6922,-6.7516,-6.7884,-6.8348,-7.0496,-7.0496,-7.0496,-7.0175,-6.9658,-6.964,-6.8873,-6.7677,-6.7392,-6.6856,-6.6143,-6.5893,-6.5804,-6.5804,-6.5804,-6.5804,-6.5804,-6.5804,-6.5804,-6.5804,-6.5804,-6.55,-6.4912,-6.4341,-6.3663,-6.277,-6.1325,-5.9826,-5.8452,-5.7079,-5.6383,-5.6383,-5.6383,-5.6115,-5.5562,-5.5348,-5.4652,-5.3635,-5.3314,-5.2814,-5.2136,-5.2029,-5.1904,-5.1726,-5.1808,-5.1956,-5.2102,-5.2414,-5.2557,-5.2498,-5.2915,-5.3041,-5.2842,-5.3023,-5.3512,-5.4255,-5.487,-5.554,-5.6265,-5.6319,-5.6573,-5.7098,-5.7188,-5.7297,-5.7569,-5.8058,-5.8709,-5.9452,-5.9941,-6.0575,-6.1136,-6.2585,-6.3545,-6.3871,-6.4975,-6.5645,-6.5917,-6.6496,-6.6786,-6.6804,-6.6768,-6.6677,-6.6551,-6.6641,-6.675,-6.6496,-6.6641,-6.6804,-6.6804,-6.6786,-6.6587,-6.6025,-6.5935,-6.5681,-6.541,-6.5011,-6.4975,-6.5084,-6.5211,-6.5337,-6.5066,-6.5681,-6.5935,-6.6698,-6.6537,-6.6592,-6.7012,-6.7537,-6.7867,-6.7862,-6.7623,-6.743,-6.7922,-6.8323,-6.902,-7.0496,-7.0496,-7.0496,-7.0478,-7.0443,-7.0425,-6.9943,-6.8997,-6.8337,-6.7624,-6.6821,-6.6125,-6.5804,-6.5804,-6.5804,-6.5804,-6.5804,-6.5804,-6.5804,-6.5804,-6.5804,-6.5786,-6.5768,-6.5697,-6.5197,-6.4055,-6.2735,-6.0594,-5.7828,-5.6847,-5.6383,-5.6383,-5.6383,-5.6365,-5.6186,-5.5598,-5.5187,-5.4902,-5.4295,-5.3599,-5.2939,-5.2832,-5.2475,-5.1904,-5.1826,-5.1956,-5.2174,-5.2985,-5.3182,-5.2534,-5.3892,-5.4399,-5.3802,-5.4345,-5.507,-5.5721,-5.5903,-5.6283,-5.6971,-5.708,-5.7134,-5.7206,-5.7261,-5.7532,-5.8166,-5.8492,-5.9488,-6.1571,-6.1752,-6.1969,-6.2241,-6.349,-6.4595,-6.5229,-6.55,-6.5971,-6.6641,-6.6623,-6.6786,-6.6732,-6.6623,-6.6351,-6.579,-6.6315,-6.637,-6.6134,-6.637,-6.6804,-6.6804,-6.6804,-6.6732,-6.6696,-6.6569,-6.6225,-6.4885,-6.5011,-6.5192,-6.5355,-6.5718,-6.5862,-6.637,-6.6732,-6.6696,-6.6677,-6.6685,-6.6743,-6.679,-6.6885,-6.704,-6.7212,-6.754,-6.7668,-6.7959,-6.8884,-6.9489,-7.0496,-7.0496,-7.0496,-7.0496,-7.0496,-7.0496,-7.005,-6.9265,-6.8444,-6.7695,-6.6928,-6.6143,-6.5804,-6.5804,-6.5804,-6.5804,-6.5804,-6.5804,-6.5804,-6.5804,-6.5804,-6.5518,-6.5126,-6.5536,-6.4804,-6.3306,-6.302,-6.1379,-5.8524,-5.7525,-5.6882,-5.6454,-5.6383,-5.6383,-5.6347,-5.6115,-5.574,-5.5241,-5.4902,-5.4402,-5.3689,-5.3617,-5.3457,-5.3153,-5.2258,-5.1889,-5.2084,-5.2906,-5.3339,-5.3277,-5.4345,-5.4762,-5.4581,-5.5178,-5.5685,-5.5993,-5.6482,-5.6899,-5.7152,-5.7188,-5.7188,-5.7224,-5.7677,-5.8058,-5.851,-5.9343,-6.0538,-6.1842,-6.3037,-6.3671,-6.4269,-6.4848,-6.5283,-6.5591,-6.6062,-6.6406,-6.6605,-6.637,-6.6044,-6.5953,-6.5627,-6.5301,-6.5627,-6.5862,-6.6116,-6.637,-6.6623,-6.6768,-6.6804,-6.6804,-6.6804,-6.6804,-6.6786,-6.6605,-6.6152,-6.5971,-6.6098,-6.6225,-6.6424,-6.6442,-6.675,-6.6804,-6.675,-6.675,-6.6804,-6.6804,-6.6804,-6.6804,-6.6863,-6.6903,-6.7248,-6.7541,-6.7871,-6.8567,-6.9096,-7.0496,-7.0496,-7.0496,-7.0496,-7.0496,-7.0496,-7.0211,-6.9622,-6.8837,-6.8052,-6.7302,-6.6517,-6.6053,-6.5822,-6.5804,-6.5804,-6.5804,-6.5804,-6.5804,-6.5804,-6.5804,-6.5518,-6.5126,-6.5286,-6.4608,-6.3163,-6.2699,-6.1254,-5.8916,-5.7953,-5.7186,-5.6436,-5.6383,-5.6383,-5.6383,-5.6383,-5.6079,-5.5669,-5.5598,-5.5187,-5.4509,-5.4402,-5.4259,-5.392,-5.2993,-5.2416,-5.2485,-5.3486,-5.3855,-5.3851,-5.4925,-5.5649,-5.5703,-5.6102,-5.6373,-5.6428,-5.688,-5.7188,-5.7188,-5.7188,-5.7297,-5.7569,-5.8076,-5.8546,-5.9144,-6.043,-6.1607,-6.2748,-6.3943,-6.5048,-6.5428,-6.5591,-6.57,-6.5917,-6.6243,-6.6406,-6.637,-6.5681,-6.5283,-6.5192,-6.5102,-6.5029,-6.5211,-6.57,-6.608,-6.6442,-6.6605,-6.6804,-6.6804,-6.6804,-6.6804,-6.6804,-6.6804,-6.6804,-6.6569,-6.6478,-6.6478,-6.6623,-6.6659,-6.6768,-6.6804,-6.6804,-6.6804,-6.6804,-6.6804,-6.6804,-6.6804,-6.6804,-6.6804,-6.6845,-6.7001,-6.7248,-6.7647,-6.8055,-6.8678,-7.0496,-7.0496,-7.0496,-7.0496,-7.0496,-7.0496,-7.0496,-7.0282,-6.9568,-6.8783,-6.8052,-6.7249,-6.6357,-6.5893,-6.559,-6.5661,-6.5572,-6.5518,-6.559,-6.5679,-6.5768,-6.5697,-6.5465,-6.5054,-6.468,-6.4144,-6.2199,-6.038,-5.8863,-5.8167,-5.74,-5.6597,-5.6508,-5.649,-5.6401,-5.6383,-5.6383,-5.6294,-5.6258,-5.5937,-5.5312,-5.5223,-5.492,-5.4277,-5.4081,-5.3758,-5.325,-5.4676,-5.4849,-5.4061,-5.5835,-5.7116,-5.7007,-5.708,-5.7134,-5.7098,-5.7188,-5.7188,-5.7206,-5.7243,-5.7641,-5.8166,-5.8456,-5.9216,-6.0375,-6.1444,-6.2603,-6.3925,-6.483,-6.5518,-6.5518,-6.55,-6.5736,-6.6496,-6.5953,-6.5591,-6.5464,-6.4885,-6.4378,-6.445,-6.4776,-6.5156,-6.4993,-6.5645,-6.6297,-6.6116,-6.6406,-6.6804,-6.6804,-6.6804,-6.6804,-6.6804,-6.6804,-6.6804,-6.6804,-6.6804,-6.6786,-6.6804,-6.6786,-6.6804,-6.6804,-6.6804,-6.6804,-6.6804,-6.6804,-6.6804,-6.6804,-6.6804,-6.6863,-6.6845,-6.6961,-6.7076,-6.7396,-6.7786,-6.835,-7.0496,-7.0496,-7.0496,-7.0496,-7.0496,-7.0496,-7.0496,-7.0407,-6.9658,-6.9176,-6.8623,-6.6981,-6.6018,-6.5572,-6.4697,-6.4162,-6.4144,-6.4162,-6.4448,-6.4965,-6.5518,-6.5161,-6.4483,-6.5019,-6.484,-6.3645,-6.1968,-6.0576,-5.9666,-5.9273,-5.8542,-5.7453,-5.7186,-5.6918,-5.6418,-5.6383,-5.6383,-5.6383,-5.6383,-5.6258,-5.6044,-5.6026,-5.5865,-5.5705,-5.5651,-5.5294,-5.4634,-5.5253,-5.5407,-5.5054,-5.6432,-5.7188,-5.7188,-5.7188,-5.7188,-5.7188,-5.7188,-5.7188,-5.7279,-5.7695,-5.8094,-5.8565,-5.9398,-6.0194,-6.0864,-6.2078,-6.3255,-6.4251,-6.4649,-6.4957,-6.5374,-6.5066,-6.4921,-6.5102,-6.4921,-6.474,-6.4631,-6.407,-6.3635,-6.3581,-6.378,-6.4233,-6.5048,-6.5899,-6.617,-6.6388,-6.6641,-6.6804,-6.6804,-6.675,-6.6804,-6.6804,-6.6804,-6.6677,-6.6623,-6.6605,-6.6659,-6.675,-6.6804,-6.6804,-6.6804,-6.6804,-6.6804,-6.6804,-6.6804,-6.6804,-6.6804,-6.6804,-6.6863,-6.6863,-6.6863,-6.7019,-6.7172,-6.763,-6.8222,-7.0496,-7.0496,-7.0496,-7.0496,-7.0496,-7.0496,-7.0496,-7.0425,-6.9979,-6.9283,-6.8248,-6.6928,-6.5714,-6.4858,-6.3823,-6.3413,-6.3377,-6.3377,-6.352,-6.3841,-6.4537,-6.4287,-6.3538,-6.4358,-6.4091,-6.2735,-6.186,-6.0968,-5.9951,-5.9862,-5.9113,-5.781,-5.7578,-5.7168,-5.6472,-5.6383,-5.6383,-5.6383,-5.6383,-5.6383,-5.6383,-5.6383,-5.6383,-5.6383,-5.6383,-5.6151,-5.5669,-5.5829,-5.5895,-5.5941,-5.6653,-5.717,-5.7188,-5.7188,-5.7188,-5.7188,-5.7224,-5.7297,-5.7623,-5.8112,-5.8746,-5.9325,-6.0249,-6.1118,-6.1734,-6.2965,-6.3943,-6.4667,-6.4885,-6.4939,-6.4993,-6.4432,-6.3889,-6.3526,-6.3798,-6.378,-6.3581,-6.3363,-6.3237,-6.3363,-6.3798,-6.4541,-6.5283,-6.5953,-6.6207,-6.6714,-6.6804,-6.6804,-6.675,-6.6514,-6.6442,-6.6243,-6.5881,-6.5935,-6.6279,-6.6388,-6.6478,-6.6641,-6.6804,-6.6804,-6.6804,-6.6804,-6.6804,-6.6804,-6.6804,-6.6804,-6.6804,-6.6804,-6.6804,-6.6804,-6.6804,-6.6903,-6.7097,-6.7665,-6.8204,-7.0496,-7.0496,-7.0496,-7.0496,-7.0496,-7.0496,-7.0496,-7.0496,-7.0354,-6.914,-6.7499,-6.6731,-6.5482,-6.3805,-6.3199,-6.302,-6.3216,-6.3074,-6.2753,-6.2574,-6.2967,-6.3216,-6.3431,-6.3484,-6.2788,-6.1736,-6.186,-6.1343,-6.0165,-6.0094,-5.922,-5.8042,-5.781,-5.7293,-5.6704,-5.6454,-5.6383,-5.6383,-5.6383,-5.6383,-5.6383,-5.6383,-5.6383,-5.6383,-5.6383,-5.6365,-5.6294,-5.6403,-5.6276,-5.5947,-5.6743,-5.7188,-5.7188,-5.7188,-5.7188,-5.7188,-5.7188,-5.7605,-5.8166,-5.851,-5.9162,-6.0412,-6.0828,-6.1498,-6.2802,-6.3689,-6.4559,-6.5337,-6.5374,-6.512,-6.4486,-6.3635,-6.2911,-6.2313,-6.2766,-6.282,-6.2241,-6.2748,-6.32,-6.3563,-6.4577,-6.5627,-6.5736,-6.6333,-6.6641,-6.6786,-6.6804,-6.6786,-6.6496,-6.6134,-6.57,-6.5374,-6.5084,-6.541,-6.5808,-6.5989,-6.6152,-6.6677,-6.6804,-6.6786,-6.6804,-6.6804,-6.6804,-6.6804,-6.6804,-6.6804,-6.6804,-6.6804,-6.6804,-6.6804,-6.6804,-6.6903,-6.7136,-6.7559,-6.7786,-7.0496,-7.0496,-7.0496,-7.0496,-7.0496,-7.0496,-7.0496,-7.0425,-6.9836,-6.8837,-6.7588,-6.5964,-6.4573,-6.3324,-6.2182,-6.17,-6.1789,-6.1771,-6.1646,-6.1468,-6.1575,-6.2396,-6.3056,-6.2824,-6.2378,-6.1914,-6.1628,-6.1182,-6.0808,-6.0719,-6.0201,-5.9309,-5.8613,-5.8006,-5.7328,-5.6668,-5.6401,-5.6383,-5.6383,-5.6383,-5.6383,-5.6383,-5.6383,-5.6383,-5.6383,-5.6383,-5.6383,-5.6546,-5.6635,-5.668,-5.696,-5.7188,-5.7188,-5.7188,-5.7224,-5.7261,-5.7261,-5.7587,-5.8365,-5.8981,-5.9778,-6.0701,-6.1335,-6.2114,-6.3074,-6.3925,-6.474,-6.5301,-6.512,-6.4649,-6.4233,-6.3164,-6.2331,-6.2096,-6.2277,-6.2313,-6.2277,-6.2693,-6.34,-6.4052,-6.5011,-6.5772,-6.6315,-6.6605,-6.6804,-6.6804,-6.6714,-6.6569,-6.6152,-6.5627,-6.5156,-6.4812,-6.4631,-6.5011,-6.5337,-6.5537,-6.5935,-6.6605,-6.6786,-6.6768,-6.6786,-6.6804,-6.6804,-6.6804,-6.6804,-6.6804,-6.6804,-6.6804,-6.6804,-6.6804,-6.6804,-6.6863,-6.6845,-6.7117,-6.7267,-7.0496,-7.0496,-7.0496,-7.0496,-7.0461,-7.0139,-7.0015,-6.9783,-6.8819,-6.7677,-6.6428,-6.4894,-6.3466,-6.2378,-6.1504,-6.1111,-6.1093,-6.1093,-6.1111,-6.1111,-6.1147,-6.1628,-6.2217,-6.2182,-6.2128,-6.1807,-6.1682,-6.1432,-6.1129,-6.1093,-6.0647,-5.9844,-5.9131,-5.8328,-5.7543,-5.6811,-5.6383,-5.6383,-5.6383,-5.6383,-5.6383,-5.6383,-5.6383,-5.6383,-5.6383,-5.6383,-5.6383,-5.6546,-5.6742,-5.6933,-5.7105,-5.7156,-5.7188,-5.7188,-5.7351,-5.7623,-5.7713,-5.8184,-5.9235,-5.9887,-6.0466,-6.119,-6.1806,-6.2567,-6.3472,-6.4178,-6.4776,-6.5881,-6.5029,-6.4504,-6.4124,-6.2947,-6.215,-6.2023,-6.2023,-6.2168,-6.2458,-6.3237,-6.4015,-6.4794,-6.5591,-6.6243,-6.675,-6.6786,-6.6804,-6.6732,-6.6406,-6.6116,-6.57,-6.512,-6.4541,-6.4106,-6.3816,-6.3997,-6.4559,-6.4903,-6.5301,-6.6007,-6.6261,-6.6315,-6.6569,-6.6641,-6.6804,-6.6804,-6.6804,-6.6804,-6.6804,-6.6804,-6.6804,-6.6804,-6.6804,-6.6804,-6.6863,-6.6943,-6.7001,-7.0496,-7.0496,-7.0425,-7.0389,-7.0211,-6.9533,-6.9122,-6.8766,-6.7552,-6.6053,-6.4662,-6.3663,-6.2556,-6.1111,-6.1182,-6.1093,-6.1093,-6.1093,-6.1093,-6.1093,-6.1093,-6.1254,-6.1361,-6.1843,-6.17,-6.1361,-6.1878,-6.1646,-6.1236,-6.1093,-6.0754,-6.0058,-5.9238,-5.8452,-5.7739,-5.69,-5.6436,-5.6383,-5.6383,-5.6383,-5.6383,-5.6383,-5.6383,-5.6383,-5.6383,-5.6383,-5.6437,-5.6546,-5.6707,-5.6951,-5.7003,-5.7177,-5.7297,-5.7351,-5.775,-5.8347,-5.8583,-5.9162,-6.0412,-6.0647,-6.11,-6.177,-6.206,-6.2766,-6.3979,-6.4522,-6.5156,-6.6261,-6.5247,-6.4378,-6.3762,-6.2712,-6.215,-6.2023,-6.2023,-6.2386,-6.311,-6.3907,-6.4667,-6.541,-6.617,-6.6714,-6.6714,-6.675,-6.6768,-6.6351,-6.6007,-6.5555,-6.4975,-6.4251,-6.3689,-6.3182,-6.2965,-6.2802,-6.3508,-6.4251,-6.4722,-6.5247,-6.5392,-6.5573,-6.6062,-6.6297,-6.6659,-6.6804,-6.6804,-6.6804,-6.6804,-6.6804,-6.6768,-6.6804,-6.6804,-6.6804,-6.6804,-6.7001,-6.7097,-7.0496,-7.0461,-6.9836,-6.9586,-6.9426,-6.8694,-6.8034,-6.7427,-6.6464,-6.5054,-6.3752,-6.286,-6.1985,-6.1093,-6.1093,-6.1093,-6.1093,-6.1093,-6.1093,-6.1093,-6.1093,-6.1093,-6.1111,-6.1361,-6.1272,-6.1165,-6.1236,-6.1254,-6.1111,-6.1075,-6.1022,-6.0683,-5.9416,-5.8649,-5.8292,-5.7061,-5.6383,-5.6383,-5.6383,-5.6383,-5.6383,-5.6383,-5.6383,-5.6383,-5.6383,-5.6383,-5.6437,-5.6546,-5.6689,-5.6794,-5.6969,-5.7289,-5.7861,-5.8076,-5.8492,-5.9126,-5.9361,-5.9796,-6.0593,-6.0919,-6.1154,-6.1933,-6.2567,-6.3345,-6.4269,-6.4957,-6.5374,-6.57,-6.4957,-6.3871,-6.2838,-6.2295,-6.2041,-6.2023,-6.2041,-6.2331,-6.311,-6.3889,-6.4396,-6.4885,-6.5826,-6.6551,-6.5989,-6.6406,-6.6315,-6.5953,-6.5464,-6.4975,-6.4269,-6.3472,-6.3001,-6.2567,-6.2476,-6.2458,-6.3146,-6.3816,-6.4215,-6.4559,-6.4667,-6.4885,-6.5355,-6.5808,-6.6116,-6.6478,-6.6804,-6.6732,-6.6388,-6.6659,-6.6605,-6.6696,-6.675,-6.6732,-6.6772,-6.6946,-6.7115,-6.9943,-6.9854,-6.9087,-6.8748,-6.8569,-6.7517,-6.6803,-6.6161,-6.4769,-6.3698,-6.286,-6.2075,-6.1486,-6.1129,-6.1093,-6.1093,-6.1093,-6.1093,-6.1093,-6.1093,-6.1093,-6.1093,-6.1093,-6.1093,-6.1093,-6.1093,-6.1111,-6.1093,-6.1093,-6.1093,-6.1093,-6.0968,-5.9505,-5.8774,-5.8488,-5.7186,-5.6472,-5.6383,-5.6383,-5.6383,-5.6383,-5.6383,-5.6383,-5.6383,-5.6383,-5.6383,-5.6383,-5.6546,-5.6653,-5.6812,-5.6969,-5.7397,-5.8187,-5.8438,-5.8981,-5.9941,-6.0176,-6.0557,-6.1154,-6.139,-6.1589,-6.1969,-6.2748,-6.3526,-6.4196,-6.483,-6.5211,-6.5211,-6.4522,-6.3291,-6.2204,-6.2023,-6.2023,-6.2023,-6.2023,-6.2367,-6.3037,-6.3581,-6.4033,-6.4378,-6.512,-6.5301,-6.5392,-6.5681,-6.5537,-6.5048,-6.445,-6.3979,-6.3726,-6.3001,-6.2567,-6.2241,-6.2132,-6.2313,-6.2929,-6.3436,-6.3726,-6.3961,-6.407,-6.4305,-6.4667,-6.5102,-6.5537,-6.579,-6.5989,-6.5826,-6.5627,-6.5989,-6.6243,-6.6152,-6.617,-6.6424,-6.6605,-6.6776,-6.6849,-6.9122,-6.9051,-6.8266,-6.7856,-6.7534,-6.625,-6.5465,-6.4894,-6.3181,-6.2414,-6.2003,-6.1379,-6.1165,-6.1093,-6.1093,-6.1093,-6.1093,-6.1093,-6.1093,-6.1093,-6.1093,-6.1093,-6.1093,-6.1093,-6.1093,-6.1093,-6.1093,-6.1093,-6.1093,-6.1093,-6.1093,-6.0826,-5.9505,-5.8792,-5.8381,-5.7239,-5.6383,-5.6383,-5.6383,-5.6383,-5.6383,-5.6383,-5.6383,-5.6383,-5.6383,-5.6383,-5.6437,-5.6546,-5.6653,-5.6812,-5.6899,-5.7436,-5.8099,-5.8655,-5.9307,-6.0846,-6.0991,-6.1281,-6.1716,-6.1933,-6.1969,-6.206,-6.2748,-6.3418,-6.4015,-6.4341,-6.4631,-6.4432,-6.3834,-6.2766,-6.2114,-6.2023,-6.2023,-6.2023,-6.2023,-6.2331,-6.2784,-6.3019,-6.3345,-6.4015,-6.4486,-6.4667,-6.4522,-6.4559,-6.4378,-6.4142,-6.3545,-6.3074,-6.2856,-6.2639,-6.2277,-6.2096,-6.2041,-6.2023,-6.2567,-6.2784,-6.311,-6.3255,-6.3382,-6.3563,-6.378,-6.3852,-6.416,-6.4758,-6.4903,-6.4848,-6.4921,-6.5192,-6.5374,-6.541,-6.5518,-6.5663,-6.6044,-6.6533,-6.6569,-6.8302,-6.823,-6.7481,-6.6803,-6.6089,-6.5179,-6.4091,-6.2949,-6.2485,-6.1896,-6.1343,-6.1147,-6.1093,-6.1093,-6.1093,-6.1093,-6.1093,-6.1093,-6.1093,-6.1093,-6.1093,-6.1093,-6.1093,-6.1093,-6.1093,-6.1093,-6.1093,-6.1093,-6.1093,-6.1093,-6.1093,-6.0772,-5.9577,-5.8809,-5.8328,-5.7275,-5.6472,-5.6401,-5.6383,-5.6383,-5.6383,-5.6383,-5.6383,-5.6383,-5.6383,-5.6383,-5.6455,-5.6546,-5.66,-5.6635,-5.6742,-5.7297,-5.8069,-5.8824,-6.0033,-6.1154,-6.1607,-6.1751,-6.1932,-6.1914,-6.2005,-6.2186,-6.2675,-6.311,-6.3526,-6.3907,-6.4033,-6.349,-6.2947,-6.2186,-6.206,-6.2023,-6.2023,-6.2023,-6.2041,-6.2096,-6.2241,-6.2367,-6.2603,-6.3291,-6.3798,-6.4088,-6.378,-6.3599,-6.3599,-6.349,-6.3146,-6.2693,-6.2422,-6.2295,-6.2132,-6.2041,-6.2023,-6.2023,-6.215,-6.2204,-6.2367,-6.2458,-6.2549,-6.2549,-6.2639,-6.244,-6.2712,-6.3563,-6.4142,-6.4323,-6.4414,-6.4432,-6.4522,-6.4595,-6.4722,-6.4867,-6.541,-6.5881,-6.5881,-6.7285,-6.6821,-6.6071,-6.5286,-6.4501,-6.3734,-6.3002,-6.2289,-6.186,-6.1468,-6.12,-6.1093,-6.1093,-6.1093,-6.1093,-6.1093,-6.1093,-6.1093,-6.1093,-6.1093,-6.1093,-6.1093,-6.1093,-6.1093,-6.1093,-6.1093,-6.1093,-6.1093,-6.1093,-6.1093,-6.1093,-6.0843,-5.988,-5.9148,-5.8595,-5.765,-5.6829,-5.6543,-5.6401,-5.6383,-5.6383,-5.6383,-5.6383,-5.6383,-5.6383,-5.6383,-5.6437,-5.6546,-5.66,-5.6653,-5.676,-5.7262,-5.7998,-5.888,-5.9908,-6.0936,-6.155,-6.1858,-6.1805,-6.1606,-6.1443,-6.2005,-6.2422,-6.2784,-6.3128,-6.3454,-6.34,-6.2748,-6.2386,-6.2023,-6.2023,-6.2023,-6.2023,-6.2023,-6.2023,-6.2023,-6.2023,-6.2023,-6.2295,-6.2603,-6.2802,-6.2947,-6.2802,-6.273,-6.2838,-6.2766,-6.2639,-6.2367,-6.206,-6.2023,-6.2023,-6.2023,-6.2023,-6.2023,-6.2023,-6.2023,-6.2023,-6.2023,-6.2023,-6.2023,-6.2023,-6.2078,-6.2241,-6.2748,-6.32,-6.3671,-6.3436,-6.3309,-6.3545,-6.3762,-6.3852,-6.407,-6.4758,-6.5156,-6.5138,-6.6392,-6.5732,-6.4947,-6.4144,-6.3341,-6.2592,-6.2199,-6.1932,-6.1414,-6.1129,-6.1093,-6.1093,-6.1093,-6.1093,-6.1093,-6.1093,-6.1093,-6.1093,-6.1093,-6.1093,-6.1093,-6.1093,-6.1093,-6.1093,-6.1093,-6.1093,-6.1093,-6.1093,-6.1093,-6.1093,-6.1093,-6.0861,-6.029,-5.9648,-5.8952,-5.8006,-5.7275,-5.6811,-5.6418,-5.6383,-5.6383,-5.6383,-5.6383,-5.6383,-5.6383,-5.6383,-5.6383,-5.651,-5.6546,-5.66,-5.6707,-5.6958,-5.764,-5.8448,-5.9166,-5.9885,-6.0929,-6.1564,-6.1602,-6.1425,-6.1425,-6.1987,-6.2023,-6.2386,-6.2693,-6.2838,-6.2712,-6.2168,-6.2023,-6.2023,-6.2023,-6.2023,-6.2023,-6.2023,-6.2023,-6.2023,-6.2023,-6.2023,-6.2023,-6.2132,-6.2023,-6.2096,-6.2223,-6.2241,-6.2422,-6.244,-6.2313,-6.2295,-6.2023,-6.2023,-6.2023,-6.2023,-6.2023,-6.2023,-6.2023,-6.2023,-6.2023,-6.2023,-6.2023,-6.2023,-6.2023,-6.2041,-6.2204,-6.2349,-6.253,-6.2875,-6.253,-6.2404,-6.273,-6.2965,-6.2965,-6.3291,-6.3961,-6.4323,-6.4378,-6.5875,-6.5714,-6.4912,-6.4144,-6.3288,-6.2538,-6.186,-6.1289,-6.1147,-6.1093,-6.1093,-6.1093,-6.1093,-6.1093,-6.1093,-6.1093,-6.1093,-6.1093,-6.1093,-6.1093,-6.1093,-6.1093,-6.1093,-6.1093,-6.1093,-6.1093,-6.1093,-6.1093,-6.1093,-6.1093,-6.1093,-6.0933,-6.0433,-5.9826,-5.9523,-5.8524,-5.7578,-5.7328,-5.674,-5.6383,-5.6383,-5.6383,-5.6383,-5.6383,-5.6383,-5.6383,-5.6383,-5.6455,-5.6437,-5.6437,-5.6437,-5.6491,-5.6723,-5.7348,-5.7705,-5.8622,-6.0047,-6.1766,-6.1604,-6.1497,-6.1552,-6.1824,-6.1897,-6.2041,-6.2241,-6.2295,-6.2223,-6.2096,-6.2023,-6.2023,-6.2023,-6.2023,-6.2023,-6.2023,-6.2023,-6.2023,-6.2023,-6.2023,-6.2023,-6.2023,-6.2023,-6.2023,-6.2096,-6.206,-6.2041,-6.2041,-6.2023,-6.2023,-6.2023,-6.2023,-6.2023,-6.2023,-6.2023,-6.2023,-6.2023,-6.2023,-6.2023,-6.2023,-6.2023,-6.2023,-6.2023,-6.2023,-6.2023,-6.2168,-6.2295,-6.2331,-6.2241,-6.2204,-6.2204,-6.2277,-6.2458,-6.2766,-6.3182,-6.3418,-6.3708,-6.4448,-6.4376,-6.3627,-6.2842,-6.2092,-6.1736,-6.1432,-6.1165,-6.1093,-6.1093,-6.1093,-6.1093,-6.1093,-6.1093,-6.1093,-6.1093,-6.1093,-6.1093,-6.1093,-6.1093,-6.1093,-6.1093,-6.1093,-6.1093,-6.1093,-6.1093,-6.1093,-6.1093,-6.1093,-6.1093,-6.1093,-6.104,-6.0719,-6.0308,-6.0023,-5.9273,-5.8417,-5.765,-5.6847,-5.6418,-5.6383,-5.6383,-5.6383,-5.6383,-5.6383,-5.6383,-5.6383,-5.6383,-5.6383,-5.6383,-5.6383,-5.6383,-5.6579,-5.7096,-5.7596,-5.7777,-5.9181,-6.0138,-6.0339,-6.0882,-6.1245,-6.1335,-6.1408,-6.1516,-6.1842,-6.2023,-6.2023,-6.2023,-6.2023,-6.2023,-6.2023,-6.2023,-6.2023,-6.2023,-6.2023,-6.2023,-6.2023,-6.2023,-6.2023,-6.2023,-6.2023,-6.2023,-6.2023,-6.2023,-6.2023,-6.2023,-6.2023,-6.2023,-6.2023,-6.2023,-6.2023,-6.2023,-6.2023,-6.2023,-6.2023,-6.2023,-6.2023,-6.2023,-6.2023,-6.2023,-6.2023,-6.2023,-6.2023,-6.2023,-6.2114,-6.2114,-6.2023,-6.206,-6.2114,-6.2078,-6.2023,-6.2367,-6.2712,-6.3092,-6.3363,-6.2931,-6.3056,-6.2521,-6.1932,-6.1379,-6.12,-6.1111,-6.1093,-6.1093,-6.1093,-6.1093,-6.1093,-6.1093,-6.1093,-6.1093,-6.1093,-6.1093,-6.1093,-6.1093,-6.1093,-6.1093,-6.1093,-6.1093,-6.1093,-6.1093,-6.1093,-6.1093,-6.1093,-6.1093,-6.1093,-6.1093,-6.1093,-6.1022,-6.0754,-6.0326,-5.9791,-5.9077,-5.765,-5.7061,-5.6668,-5.6436,-5.6383,-5.6383,-5.6383,-5.6383,-5.6383,-5.6383,-5.6383,-5.6383,-5.6383,-5.6383,-5.6383,-5.6508,-5.6847,-5.715,-5.7473,-5.8552,-5.9129,-5.9382,-5.9907,-6.0557,-6.0883,-6.1082,-6.1425,-6.1824,-6.1969,-6.2023,-6.2023,-6.2023,-6.2023,-6.2023,-6.2023,-6.2023,-6.2023,-6.2023,-6.2023,-6.2023,-6.2023,-6.2023,-6.2023,-6.2023,-6.2023,-6.2023,-6.2023,-6.2023,-6.2023,-6.2023,-6.2023,-6.2023,-6.2023,-6.2023,-6.2023,-6.2023,-6.2023,-6.2023,-6.2023,-6.2023,-6.2023,-6.2023,-6.2023,-6.2023,-6.2023,-6.2023,-6.2023,-6.2023,-6.2023,-6.2023,-6.2023,-6.2023,-6.2023,-6.2023,-6.2023,-6.2277,-6.2675,-6.2893,-6.17,-6.236,-6.2289,-6.2217,-6.2075,-6.1397,-6.1093,-6.1093,-6.1093,-6.1093,-6.1093,-6.1093,-6.1093,-6.1093,-6.1093,-6.1093,-6.1093,-6.1093,-6.1093,-6.1093,-6.1093,-6.1093,-6.1093,-6.1093,-6.1093,-6.1093,-6.1093,-6.1093,-6.1093,-6.1093,-6.1093,-6.1093,-6.1093,-6.1058,-6.0736,-6.0165,-5.9309,-5.8096,-5.7525,-5.7025,-5.665,-5.6454,-5.6383,-5.6383,-5.6383,-5.6383,-5.6383,-5.6383,-5.6383,-5.6383,-5.6383,-5.6383,-5.6436,-5.6579,-5.6686,-5.6991,-5.7993,-5.8498,-5.8679,-5.9723,-6.0752,-6.1348,-6.1602,-6.1586,-6.1822,-6.1969,-6.1969,-6.2023,-6.2023,-6.2023,-6.2023,-6.2023,-6.2023,-6.2023,-6.2023,-6.2023,-6.2023,-6.2023,-6.2023,-6.2023,-6.2023,-6.2023,-6.2023,-6.2023,-6.2023,-6.2023,-6.2023,-6.2023,-6.2023,-6.2023,-6.2023,-6.2023,-6.2023,-6.2023,-6.2023,-6.2023,-6.2023,-6.2023,-6.2023,-6.2023,-6.2023,-6.2023,-6.2023,-6.2023,-6.2023,-6.2023,-6.2023,-6.2023,-6.2023,-6.2023,-6.2023,-6.2023,-6.2023,-6.2295,-6.2349,-6.1272,-6.1539,-6.1557,-6.1557,-6.1539,-6.1218,-6.1093,-6.1093,-6.1093,-6.1093,-6.1093,-6.1093,-6.1093,-6.1093,-6.1093,-6.1093,-6.1093,-6.1093,-6.1093,-6.1093,-6.1093,-6.1093,-6.1093,-6.1093,-6.1093,-6.1093,-6.1093,-6.1093,-6.1093,-6.1093,-6.1093,-6.1093,-6.1093,-6.1093,-6.0826,-6.0397,-5.9594,-5.8952,-5.8096,-5.7382,-5.7168,-5.6597,-5.6383,-5.6383,-5.6383,-5.6383,-5.6383,-5.6383,-5.6383,-5.6383,-5.6383,-5.6383,-5.6383,-5.6383,-5.6418,-5.6543,-5.7743,-5.8208,-5.8726,-5.9934,-6.1235,-6.1415,-6.1633,-6.169,-6.1746,-6.1858,-6.1913,-6.1969,-6.2023,-6.2023,-6.2023,-6.2023,-6.2023,-6.2023,-6.2023,-6.2023,-6.2023,-6.2023,-6.2023,-6.2023,-6.2023,-6.2023,-6.2023,-6.2023,-6.2023,-6.2023,-6.2023,-6.2023,-6.2023,-6.2023,-6.2023,-6.2023,-6.2023,-6.2023,-6.2023,-6.2023,-6.2023,-6.2023,-6.2023,-6.2023,-6.2023,-6.2023,-6.2023,-6.2023,-6.2023,-6.2023,-6.2023,-6.2023,-6.2023,-6.2023,-6.2023,-6.2023,-6.2023,-6.2023,-6.2023,-6.1093,-6.1093,-6.1093,-6.1093,-6.1093,-6.1093,-6.1093,-6.1093,-6.1093,-6.1093,-6.1093,-6.1093,-6.1093,-6.1093,-6.1093,-6.1093,-6.1093,-6.1093,-6.1093,-6.1093,-6.1093,-6.1093,-6.1093,-6.1093,-6.1093,-6.1093,-6.1093,-6.1093,-6.1093,-6.1093,-6.1093,-6.1093,-6.1093,-6.1093,-6.0968,-6.0594,-6.0165,-5.963,-5.9006,-5.7899,-5.7632,-5.7096,-5.6543,-5.649,-5.6383,-5.6383,-5.6383,-5.6383,-5.6383,-5.6383,-5.6383,-5.6383,-5.6383,-5.6418,-5.6525,-5.6918,-5.7471,-5.8238,-5.9259,-6.0357,-6.1426,-6.1404,-6.1444,-6.1559,-6.1633,-6.1746,-6.184,-6.1895,-6.1969,-6.2023,-6.2023,-6.2023,-6.2023,-6.2023,-6.2023,-6.2023,-6.2023,-6.2023,-6.2023,-6.2023,-6.2023,-6.2023,-6.2023,-6.2023,-6.2023,-6.2023,-6.2023,-6.2023,-6.2023,-6.2023,-6.2023,-6.2023,-6.2023,-6.2023,-6.2023,-6.2023,-6.2023,-6.2023,-6.2023,-6.2023,-6.2023,-6.2023,-6.2023,-6.2023,-6.2023,-6.2023,-6.2023,-6.2023,-6.2023,-6.2023,-6.2023,-6.2023,-6.2023,-6.2023,-6.2023,-6.1022,-6.1093,-6.1058,-6.104,-6.1022,-6.1093,-6.1093,-6.1093,-6.1093,-6.1093,-6.1093,-6.1093,-6.1093,-6.1093,-6.1093,-6.1093,-6.1093,-6.1093,-6.1093,-6.1093,-6.1093,-6.1093,-6.1093,-6.1093,-6.1093,-6.1093,-6.1093,-6.1093,-6.1093,-6.1093,-6.1093,-6.1093,-6.1093,-6.1093,-6.1093,-6.1075,-6.0665,-6.0023,-5.9826,-5.8899,-5.8113,-5.7703,-5.7239,-5.6918,-5.6633,-5.6633,-5.6633,-5.6436,-5.6401,-5.6383,-5.6383,-5.6383,-5.6383,-5.6383,-5.6704,-5.74,-5.8167,-5.897,-5.9844,-6.0665,-6.1081,-6.1211,-6.127,-6.1386,-6.1444,-6.1559,-6.1802,-6.1895,-6.195,-6.2023,-6.2023,-6.2023,-6.2023,-6.2023,-6.2023,-6.2023,-6.2023,-6.2023,-6.2023,-6.2023,-6.2023,-6.2023,-6.2023,-6.2023,-6.2023,-6.2023,-6.2023,-6.2023,-6.2023,-6.2023,-6.2023,-6.2023,-6.2023,-6.2023,-6.2023,-6.2023,-6.2023,-6.2023,-6.2023,-6.2023,-6.2023,-6.2023,-6.2023,-6.2041,-6.2023,-6.2023,-6.2023,-6.2023,-6.2023,-6.2023,-6.2023,-6.2023,-6.2023,-6.2023,-6.2023,-5.886,-5.8913,-5.9882,-6.0308,-6.038,-6.0897,-6.1093,-6.1093,-6.1093,-6.1093,-6.1093,-6.1093,-6.1093,-6.1093,-6.1093,-6.1093,-6.1093,-6.1093,-6.1093,-6.1093,-6.1093,-6.1093,-6.1093,-6.1093,-6.1093,-6.1093,-6.1093,-6.1093,-6.1093,-6.1093,-6.1093,-6.1093,-6.1093,-6.1093,-6.1093,-6.1093,-6.0897,-6.0629,-6.0219,-5.9594,-5.9095,-5.8613,-5.8185,-5.7846,-5.7382,-5.7114,-5.7025,-5.6704,-5.6401,-5.6383,-5.6383,-5.6383,-5.6401,-5.6418,-5.6829,-5.7578,-5.8345,-5.9362,-6.0272,-6.1022,-6.1075,-6.1093,-6.1152,-6.127,-6.1462,-6.1577,-6.1746,-6.1858,-6.195,-6.2023,-6.2023,-6.2023,-6.2023,-6.2023,-6.2023,-6.2023,-6.2023,-6.2023,-6.2023,-6.2023,-6.2023,-6.2023,-6.2023,-6.2023,-6.2023,-6.2023,-6.2023,-6.2023,-6.2023,-6.2023,-6.2023,-6.2023,-6.2023,-6.2023,-6.2041,-6.2168,-6.2204,-6.2223,-6.2132,-6.2023,-6.2023,-6.2241,-6.2132,-6.2186,-6.2114,-6.2023,-6.2023,-6.2023,-6.2023,-6.2023,-6.2023,-6.2023,-6.2023,-6.2023,-6.2023,-5.7339,-5.7489,-5.8352,-5.8782,-5.908,-6.0434,-6.1093,-6.1093,-6.1093,-6.1093,-6.1093,-6.1093,-6.1093,-6.1093,-6.1093,-6.1093,-6.1093,-6.1093,-6.1093,-6.1093,-6.1093,-6.1093,-6.1093,-6.1093,-6.1093,-6.1093,-6.1093,-6.1093,-6.1093,-6.1093,-6.1093,-6.1093,-6.1075,-6.1093,-6.1093,-6.1093,-6.1075,-6.0897,-6.0558,-6.0201,-5.9773,-5.938,-5.8988,-5.8506,-5.8006,-5.7543,-5.7346,-5.6954,-5.6401,-5.6418,-5.6418,-5.6401,-5.6436,-5.6722,-5.715,-5.7935,-5.9059,-6.0023,-6.0808,-6.1058,-6.1093,-6.1093,-6.1093,-6.1211,-6.1404,-6.1519,-6.1633,-6.1802,-6.1969,-6.2023,-6.2023,-6.2023,-6.2023,-6.2023,-6.2023,-6.2023,-6.2023,-6.2023,-6.2023,-6.2023,-6.2023,-6.2023,-6.2023,-6.2023,-6.2023,-6.2023,-6.2023,-6.2023,-6.2023,-6.2023,-6.2023,-6.2023,-6.2023,-6.2023,-6.2186,-6.244,-6.2458,-6.2422,-6.244,-6.2494,-6.273,-6.3019,-6.2693,-6.2313,-6.2223,-6.2114,-6.2041,-6.2023,-6.2023,-6.2023,-6.2023,-6.2023,-6.2023,-6.2023,-6.2023,-5.6564,-5.6564,-5.6664,-5.6729,-5.7183,-5.9567,-6.076,-6.0909,-6.1004,-6.1004,-6.1022,-6.1022,-6.1093,-6.1093,-6.1093,-6.1093,-6.1093,-6.1093,-6.1093,-6.1093,-6.1093,-6.1093,-6.1093,-6.1093,-6.1093,-6.1093,-6.1058,-6.1004,-6.104,-6.0629,-6.0665,-6.095,-6.0861,-6.095,-6.1022,-6.1093,-6.1093,-6.1022,-6.095,-6.0594,-6.0237,-6.0023,-5.9666,-5.9166,-5.8542,-5.8131,-5.781,-5.7311,-5.6811,-5.6615,-5.6525,-5.6454,-5.665,-5.715,-5.7899,-5.8899,-6.0183,-6.0772,-6.104,-6.1093,-6.1093,-6.1093,-6.1093,-6.1111,-6.1288,-6.1519,-6.169,-6.1802,-6.1895,-6.1969,-6.2023,-6.2023,-6.2023,-6.2023,-6.2023,-6.2023,-6.2023,-6.2023,-6.2023,-6.2023,-6.2023,-6.2023,-6.2023,-6.2023,-6.2023,-6.2023,-6.2023,-6.2023,-6.2023,-6.2023,-6.2023,-6.2023,-6.2023,-6.2023,-6.2223,-6.2422,-6.2712,-6.2675,-6.3273,-6.3436,-6.3671,-6.3726,-6.3418,-6.3019,-6.2458,-6.2277,-6.2386,-6.2259,-6.2023,-6.2023,-6.2023,-6.2023,-6.2023,-6.2023,-6.2023,-5.4345,-5.4446,-5.5451,-5.587,-5.6072,-5.7393,-5.8209,-5.8729,-5.9698,-6.0255,-6.0272,-6.0861,-6.0915,-6.1093,-6.1093,-6.104,-6.104,-6.1093,-6.1093,-6.1058,-6.0915,-6.104,-6.104,-6.0986,-6.1058,-6.1022,-6.095,-6.0665,-6.0183,-5.9844,-5.988,-6.0148,-6.0255,-6.0522,-6.0826,-6.1075,-6.104,-6.1058,-6.104,-6.0915,-6.0772,-6.0647,-6.0415,-6.0076,-5.9434,-5.9095,-5.8845,-5.8274,-5.7774,-5.7275,-5.7239,-5.7079,-5.6454,-5.7168,-5.8042,-5.947,-6.0469,-6.1093,-6.1093,-6.1093,-6.1093,-6.1093,-6.1093,-6.1288,-6.1404,-6.1577,-6.1746,-6.1802,-6.1895,-6.1969,-6.2023,-6.2023,-6.2023,-6.2023,-6.2023,-6.2023,-6.2023,-6.2023,-6.2023,-6.2023,-6.2023,-6.2023,-6.2023,-6.2023,-6.2023,-6.2023,-6.2023,-6.2023,-6.2023,-6.2023,-6.2023,-6.2023,-6.2023,-6.2023,-6.206,-6.2223,-6.2657,-6.3037,-6.3689,-6.4233,-6.4378,-6.4341,-6.4142,-6.3689,-6.3056,-6.2875,-6.2911,-6.2603,-6.206,-6.2023,-6.2023,-6.2023,-6.2023,-6.2023,-6.2023,-5.2991,-5.3127,-5.3907,-5.4278,-5.4413,-5.5089,-5.5623,-5.6327,-5.8114,-5.9047,-5.91,-5.9781,-6.0165,-6.0076,-6.0058,-6.0076,-6.0058,-6.0005,-6.0005,-6.0058,-6.0504,-6.0272,-6.0308,-6.0451,-6.0326,-6.0326,-6.013,-5.9773,-5.9362,-5.9113,-5.9095,-5.9398,-5.9452,-5.9737,-6.004,-6.0308,-6.0576,-6.0719,-6.0861,-6.104,-6.1093,-6.1093,-6.1093,-6.095,-6.0326,-6.004,-5.9862,-5.9184,-5.8417,-5.7846,-5.7757,-5.7471,-5.6936,-5.74,-5.847,-5.9791,-6.0611,-6.1004,-6.1093,-6.1093,-6.1093,-6.1093,-6.1152,-6.127,-6.1404,-6.1577,-6.1746,-6.184,-6.1969,-6.2023,-6.2023,-6.2023,-6.2023,-6.2023,-6.2023,-6.2023,-6.2023,-6.2023,-6.2023,-6.2023,-6.2023,-6.2023,-6.2023,-6.2023,-6.2023,-6.2023,-6.2023,-6.2023,-6.2023,-6.2023,-6.2023,-6.2023,-6.2023,-6.2023,-6.206,-6.2241,-6.2893,-6.3545,-6.4341,-6.4794,-6.5011,-6.4993,-6.4776,-6.4251,-6.3617,-6.3436,-6.3255,-6.253,-6.2023,-6.2023,-6.2023,-6.2023,-6.2023,-6.2023,-6.2023,-5.2445,-5.2445,-5.2373,-5.2566,-5.2516,-5.3161,-5.3501,-5.3719,-5.6304,-5.7544,-5.7779,-5.8355,-5.8784,-5.9019,-5.9077,-5.9023,-5.9095,-5.9113,-5.9148,-5.8774,-5.9523,-5.9559,-5.938,-5.9416,-5.9523,-5.9023,-5.8792,-5.9023,-5.8702,-5.8363,-5.8221,-5.8613,-5.8631,-5.8827,-5.9148,-5.9577,-5.9826,-5.9916,-6.0451,-6.0861,-6.1058,-6.1093,-6.1075,-6.0968,-6.0522,-6.0058,-5.9898,-5.9327,-5.8524,-5.8238,-5.8131,-5.8006,-5.7739,-5.7632,-5.8792,-5.963,-6.038,-6.0701,-6.0879,-6.0968,-6.1075,-6.1152,-6.1229,-6.127,-6.1386,-6.1519,-6.169,-6.1746,-6.1858,-6.1913,-6.1913,-6.1913,-6.1858,-6.1913,-6.1969,-6.1969,-6.2023,-6.2023,-6.2023,-6.2023,-6.2023,-6.2023,-6.2023,-6.2023,-6.2023,-6.2023,-6.2023,-6.2023,-6.2023,-6.2023,-6.2023,-6.2023,-6.2023,-6.2041,-6.2096,-6.2422,-6.3255,-6.4015,-6.474,-6.5537,-6.5862,-6.5718,-6.5428,-6.5029,-6.4631,-6.3871,-6.3418,-6.282,-6.2313,-6.2023,-6.2023,-6.2023,-6.2023,-6.2023,-6.2023,-5.2373,-5.2373,-5.2373,-5.2373,-5.2445,-5.257,-5.2939,-5.3466,-5.4608,-5.5872,-5.6842,-5.7628,-5.819,-5.8467,-5.8506,-5.8506,-5.856,-5.8381,-5.8649,-5.8631,-5.8916,-5.8809,-5.8684,-5.8792,-5.8809,-5.8809,-5.8649,-5.8274,-5.7864,-5.7471,-5.7328,-5.781,-5.7864,-5.8024,-5.847,-5.8899,-5.9023,-5.9077,-5.9755,-6.0487,-6.0933,-6.1058,-6.1075,-6.104,-6.0772,-6.0665,-6.0576,-6.0504,-5.9577,-5.8916,-5.9309,-5.9006,-5.8328,-5.8042,-5.8274,-5.897,-5.9791,-6.0201,-6.0469,-6.0772,-6.1058,-6.1093,-6.1152,-6.1211,-6.1328,-6.1519,-6.1577,-6.1633,-6.169,-6.1746,-6.1802,-6.1746,-6.1746,-6.1858,-6.1913,-6.1969,-6.195,-6.2023,-6.2023,-6.2023,-6.2023,-6.2023,-6.2023,-6.2023,-6.2023,-6.2023,-6.2023,-6.2023,-6.2023,-6.2023,-6.2023,-6.2023,-6.2023,-6.2041,-6.2114,-6.2494,-6.3291,-6.3979,-6.4649,-6.5591,-6.6605,-6.6388,-6.6062,-6.6062,-6.5736,-6.483,-6.3997,-6.34,-6.2911,-6.2422,-6.2023,-6.2023,-6.2023,-6.2023,-6.2023,-5.2373,-5.2373,-5.2373,-5.2373,-5.2373,-5.2373,-5.264,-5.3008,-5.3632,-5.4552,-5.5715,-5.6652,-5.7366,-5.7703,-5.7685,-5.7774,-5.7757,-5.765,-5.7543,-5.7667,-5.806,-5.7899,-5.7935,-5.806,-5.781,-5.781,-5.7685,-5.7346,-5.7061,-5.6811,-5.6775,-5.7061,-5.7132,-5.7311,-5.7792,-5.7971,-5.8203,-5.8256,-5.8988,-5.9773,-6.0558,-6.0826,-6.1058,-6.1093,-6.1075,-6.095,-6.0611,-6.0487,-5.9612,-5.8542,-5.8256,-5.8667,-5.8203,-5.8006,-5.7864,-5.8417,-5.9166,-5.9916,-6.0112,-6.0522,-6.104,-6.1093,-6.1093,-6.1152,-6.1152,-6.1346,-6.1462,-6.1519,-6.1633,-6.169,-6.1708,-6.1708,-6.169,-6.1746,-6.1746,-6.1746,-6.1858,-6.1969,-6.1969,-6.2023,-6.2023,-6.2023,-6.2023,-6.2023,-6.2023,-6.2023,-6.2023,-6.2023,-6.2023,-6.2023,-6.2023,-6.2023,-6.2023,-6.2041,-6.2078,-6.2549,-6.3255,-6.3907,-6.4613,-6.5609,-6.6569,-6.6714,-6.6714,-6.6514,-6.617,-6.5518,-6.474,-6.3979,-6.3363,-6.2838,-6.2386,-6.2023,-6.2023,-6.2023,-6.2023,-5.2274,-5.2357,-5.2373,-5.2373,-5.2373,-5.2373,-5.2587,-5.2817,-5.3315,-5.4008,-5.4957,-5.6046,-5.6328,-5.6401,-5.6401,-5.6401,-5.6508,-5.6793,-5.6615,-5.6757,-5.7204,-5.7132,-5.7096,-5.7079,-5.6989,-5.6829,-5.6686,-5.665,-5.6525,-5.6401,-5.6401,-5.6383,-5.6383,-5.6418,-5.6615,-5.6972,-5.7418,-5.7614,-5.8185,-5.897,-5.9755,-6.0522,-6.0843,-6.1004,-6.095,-6.0594,-6.013,-5.9577,-5.8916,-5.8042,-5.7204,-5.7578,-5.7846,-5.7685,-5.7418,-5.7739,-5.8809,-5.9434,-5.9844,-6.0522,-6.0897,-6.1093,-6.1093,-6.1093,-6.1111,-6.117,-6.1346,-6.1404,-6.1501,-6.1519,-6.1519,-6.1519,-6.1519,-6.1633,-6.1633,-6.1633,-6.1746,-6.1858,-6.1913,-6.1969,-6.1969,-6.1969,-6.2023,-6.2023,-6.2023,-6.2023,-6.2023,-6.2023,-6.2023,-6.2023,-6.2023,-6.2023,-6.2023,-6.2041,-6.206,-6.2675,-6.3363,-6.4106,-6.4867,-6.5772,-6.6496,-6.6696,-6.6786,-6.6696,-6.6297,-6.5862,-6.5174,-6.4378,-6.3798,-6.32,-6.2512,-6.2041,-6.2023,-6.2023,-6.2023,-5.1843,-5.2373,-5.2373,-5.2373,-5.2373,-5.2373,-5.3008,-5.396,-5.4072,-5.4887,-5.5711,-5.6088,-5.6383,-5.6383,-5.6383,-5.6383,-5.6383,-5.6383,-5.6383,-5.6508,-5.6686,-5.6543,-5.6508,-5.6686,-5.6525,-5.6436,-5.6383,-5.6383,-5.6383,-5.6383,-5.6383,-5.6383,-5.6383,-5.6383,-5.6418,-5.6668,-5.6775,-5.6989,-5.7435,-5.8167,-5.8916,-5.9701,-6.0469,-6.0576,-6.0451,-6.0165,-5.9791,-5.9273,-5.8506,-5.7667,-5.6936,-5.7132,-5.7275,-5.7257,-5.6882,-5.7114,-5.8203,-5.8863,-5.9398,-6.029,-6.0719,-6.1093,-6.1093,-6.1093,-6.1093,-6.1093,-6.1211,-6.1211,-6.127,-6.1328,-6.1328,-6.127,-6.127,-6.1462,-6.1577,-6.1577,-6.1633,-6.1746,-6.1802,-6.1858,-6.1913,-6.1969,-6.1969,-6.1969,-6.2023,-6.2023,-6.2023,-6.2023,-6.2023,-6.2023,-6.2023,-6.2023,-6.2023,-6.2023,-6.206,-6.2856,-6.3581,-6.4323,-6.5102,-6.5971,-6.6551,-6.6732,-6.6768,-6.6732,-6.6641,-6.6333,-6.5573,-6.4812,-6.407,-6.3418,-6.2567,-6.206,-6.2041,-6.2023,-6.2023]}]]